[[{"header":{"parameterUnit":"m.s-1","parameterCategory":1,"la1":30.6,"la2":29.2853,"lo1":-89.7004,"lo2":-87.6739,"dy":0.0162,"dx":0.0183,"nx":112,"ny":82,"refTime":"2026-05-02T12:00:00:Z","depth":0,"parameterNumber":2,"parameterNumberName":"U-component_of_WINDS"},"data":[0.0,0.0,0.0,0.0,0.0,0.0,0.0,0.0,0.0,0.0,0.0,0.0,0.0,0.0,0.0,0.0,0.0,0.0,0.0,0.0,0.0,0.0,0.0,0.0,0.0,0.0,0.0,0.0,0.0,0.0,0.0,0.0,0.0,0.0,0.0,0.0,0.0,0.0,0.0,0.0,0.0,0.0,0.0,0.0,0.0,0.0,0.0,0.0,0.0,0.0,0.0,0.0,0.0,0.0,0.0,0.0,0.0,0.0,0.0,0.0,0.0,0.0,0.0,0.0,0.0,0.0,0.0,0.0,0.0,0.0,0.0,0.0,0.0,0.0,0.0,0.0,0.0,0.0,0.0,0.0,0.0,0.0,0.0,0.0,0.0,0.0,0.0,0.0,0.0,0.0,6.8767,7.0321,7.3899,7.5861,7.4976,7.3245,7.0744,6.7321,0.0,0.0,0.0,0.0,0.0,0.0,0.0,0.0,0.0,0.0,0.0,0.0,0.0,0.0,0.0,0.0,0.0,0.0,0.0,0.0,0.0,0.0,0.0,0.0,0.0,0.0,0.0,0.0,0.0,0.0,0.0,0.0,0.0,0.0,0.0,0.0,0.0,0.0,0.0,0.0,0.0,0.0,0.0,0.0,0.0,0.0,0.0,0.0,0.0,0.0,0.0,0.0,0.0,0.0,0.0,0.0,0.0,0.0,0.0,0.0,0.0,0.0,0.0,0.0,0.0,0.0,0.0,0.0,0.0,0.0,0.0,0.0,0.0,0.0,0.0,0.0,0.0,0.0,0.0,0.0,0.0,0.0,0.0,0.0,0.0,0.0,0.0,0.0,0.0,0.0,0.0,0.0,0.0,0.0,0.0,0.0,0.0,0.0,0.0,0.0,0.0,0.0,0.0,0.0,6.8282,7.3399,7.5822,7.6746,7.5861,7.3591,7.0744,6.7321,0.0,0.0,0.0,0.0,0.0,0.0,0.0,0.0,0.0,0.0,0.0,0.0,0.0,0.0,0.0,0.0,0.0,0.0,0.0,0.0,0.0,0.0,0.0,0.0,0.0,0.0,0.0,0.0,0.0,0.0,0.0,0.0,0.0,0.0,0.0,0.0,0.0,0.0,0.0,0.0,0.0,0.0,0.0,0.0,0.0,0.0,0.0,0.0,0.0,0.0,0.0,0.0,0.0,0.0,0.0,0.0,0.0,0.0,0.0,0.0,0.0,0.0,0.0,0.0,0.0,0.0,0.0,0.0,0.0,0.0,0.0,0.0,0.0,0.0,0.0,0.0,0.0,0.0,0.0,0.0,0.0,0.0,0.0,0.0,0.0,0.0,0.0,0.0,0.0,0.0,0.0,0.0,0.0,0.0,0.0,0.0,0.0,0.0,0.0,0.0,0.0,0.0,0.0,6.8398,7.0706,7.6169,7.7092,7.713,7.6746,7.3937,7.0937,6.7975,6.5782,0.0,0.0,0.0,0.0,0.0,0.0,0.0,0.0,0.0,0.0,0.0,0.0,0.0,0.0,0.0,0.0,0.0,0.0,0.0,0.0,0.0,0.0,0.0,0.0,0.0,0.0,0.0,0.0,0.0,0.0,0.0,0.0,0.0,0.0,0.0,0.0,0.0,0.0,0.0,0.0,0.0,0.0,0.0,0.0,0.0,0.0,0.0,0.0,0.0,0.0,0.0,0.0,0.0,0.0,0.0,0.0,0.0,0.0,0.0,0.0,0.0,0.0,0.0,0.0,0.0,0.0,0.0,0.0,0.0,0.0,0.0,0.0,0.0,0.0,0.0,0.0,0.0,0.0,0.0,0.0,0.0,0.0,0.0,0.0,0.0,0.0,0.0,0.0,0.0,0.0,0.0,0.0,0.0,0.0,0.0,0.0,0.0,0.0,0.0,0.0,0.0,0.0,7.2091,7.4053,7.8361,7.8054,7.7592,7.7592,7.4091,7.0898,6.8552,6.582,0.0,0.0,0.0,0.0,0.0,0.0,0.0,0.0,0.0,0.0,0.0,0.0,0.0,0.0,0.0,0.0,0.0,0.0,0.0,0.0,0.0,0.0,0.0,0.0,0.0,0.0,0.0,0.0,0.0,0.0,0.0,0.0,0.0,0.0,0.0,0.0,0.0,0.0,0.0,0.0,0.0,0.0,0.0,0.0,0.0,0.0,0.0,0.0,0.0,0.0,0.0,0.0,0.0,0.0,0.0,0.0,0.0,0.0,0.0,0.0,0.0,0.0,0.0,0.0,0.0,0.0,0.0,0.0,0.0,0.0,0.0,0.0,0.0,0.0,0.0,0.0,0.0,0.0,0.0,0.0,0.0,0.0,0.0,0.0,0.0,0.0,0.0,0.0,0.0,0.0,0.0,0.0,0.0,0.0,0.0,0.0,0.0,0.0,0.0,0.0,0.0,0.0,7.3976,7.7592,7.9515,7.8938,7.84,7.84,7.386,7.0244,6.8513,6.5243,0.0,0.0,0.0,0.0,0.0,0.0,0.0,0.0,0.0,0.0,0.0,0.0,0.0,0.0,0.0,0.0,0.0,0.0,0.0,0.0,0.0,0.0,0.0,0.0,0.0,0.0,0.0,0.0,0.0,0.0,0.0,0.0,0.0,0.0,0.0,0.0,0.0,0.0,0.0,0.0,0.0,0.0,0.0,0.0,0.0,0.0,0.0,0.0,0.0,0.0,0.0,0.0,0.0,0.0,0.0,0.0,0.0,0.0,0.0,0.0,0.0,0.0,0.0,0.0,0.0,0.0,0.0,0.0,0.0,0.0,0.0,0.0,0.0,0.0,0.0,0.0,0.0,0.0,0.0,0.0,0.0,0.0,0.0,0.0,0.0,0.0,0.0,0.0,0.0,0.0,0.0,0.0,0.0,0.0,0.0,0.0,0.0,0.0,0.0,0.0,0.0,0.0,7.3514,7.6938,8.0246,7.9823,7.9092,7.8554,7.5284,7.1898,6.8629,0.0,0.0,0.0,0.0,0.0,0.0,0.0,0.0,0.0,0.0,0.0,0.0,0.0,0.0,0.0,0.0,0.0,0.0,0.0,0.0,0.0,0.0,0.0,0.0,0.0,0.0,0.0,0.0,0.0,0.0,0.0,0.0,0.0,0.0,0.0,0.0,0.0,0.0,0.0,0.0,0.0,0.0,0.0,0.0,0.0,0.0,0.0,0.0,0.0,0.0,0.0,0.0,0.0,0.0,0.0,0.0,0.0,0.0,0.0,0.0,0.0,0.0,0.0,0.0,0.0,0.0,0.0,0.0,0.0,0.0,0.0,0.0,0.0,0.0,0.0,0.0,0.0,0.0,0.0,0.0,0.0,0.0,0.0,0.0,0.0,0.0,0.0,0.0,0.0,0.0,0.0,0.0,0.0,0.0,0.0,0.0,0.0,0.0,0.0,0.0,0.0,0.0,7.0475,7.3822,7.7323,8.1093,8.0708,7.9977,7.9361,7.6245,7.2629,6.8667,0.0,0.0,0.0,0.0,0.0,0.0,0.0,0.0,0.0,0.0,0.0,0.0,0.0,0.0,0.0,0.0,0.0,0.0,0.0,0.0,0.0,0.0,0.0,0.0,0.0,0.0,0.0,0.0,0.0,0.0,0.0,0.0,0.0,0.0,0.0,0.0,0.0,0.0,0.0,0.0,0.0,0.0,0.0,0.0,0.0,0.0,0.0,0.0,0.0,0.0,0.0,0.0,0.0,0.0,0.0,0.0,0.0,0.0,0.0,0.0,0.0,0.0,0.0,0.0,0.0,0.0,0.0,0.0,0.0,0.0,0.0,0.0,0.0,0.0,0.0,0.0,0.0,0.0,0.0,0.0,0.0,0.0,0.0,0.0,0.0,0.0,0.0,0.0,0.0,0.0,0.0,0.0,0.0,0.0,0.0,0.0,0.0,0.0,0.0,0.0,0.0,0.0,7.0706,7.5361,7.9515,8.2054,8.1593,8.1131,8.1093,7.6476,7.2091,0.0,0.0,0.0,0.0,0.0,0.0,0.0,0.0,0.0,0.0,0.0,0.0,0.0,0.0,0.0,0.0,0.0,0.0,0.0,0.0,0.0,0.0,0.0,0.0,0.0,0.0,0.0,0.0,0.0,0.0,0.0,0.0,0.0,0.0,0.0,0.0,0.0,0.0,0.0,0.0,0.0,0.0,0.0,0.0,0.0,0.0,0.0,0.0,0.0,0.0,0.0,0.0,0.0,0.0,0.0,0.0,0.0,0.0,0.0,0.0,0.0,0.0,0.0,0.0,0.0,0.0,0.0,0.0,0.0,0.0,0.0,0.0,0.0,0.0,0.0,0.0,0.0,0.0,0.0,0.0,0.0,0.0,0.0,0.0,0.0,0.0,0.0,0.0,0.0,0.0,0.0,0.0,0.0,0.0,0.0,0.0,0.0,0.0,0.0,0.0,0.0,0.0,0.0,7.1591,7.7284,8.1708,8.3054,8.2978,8.2362,8.1208,7.8092,7.3937,6.8744,0.0,0.0,0.0,0.0,0.0,0.0,0.0,0.0,0.0,0.0,0.0,0.0,0.0,0.0,0.0,0.0,0.0,0.0,0.0,0.0,0.0,0.0,0.0,0.0,0.0,0.0,0.0,0.0,0.0,0.0,0.0,0.0,0.0,0.0,0.0,0.0,0.0,0.0,0.0,0.0,0.0,0.0,0.0,0.0,0.0,0.0,0.0,0.0,0.0,0.0,0.0,0.0,0.0,0.0,0.0,0.0,0.0,0.0,0.0,0.0,0.0,0.0,0.0,0.0,0.0,0.0,0.0,0.0,0.0,0.0,0.0,0.0,0.0,0.0,0.0,0.0,0.0,0.0,0.0,0.0,0.0,0.0,0.0,0.0,0.0,0.0,0.0,0.0,0.0,0.0,0.0,0.0,0.0,0.0,0.0,0.0,0.0,0.0,0.0,0.0,0.0,0.0,7.1975,7.7823,8.2401,8.3939,8.4132,8.3708,8.2708,7.9977,7.5745,6.9783,0.0,0.0,0.0,0.0,0.0,0.0,0.0,0.0,0.0,0.0,0.0,0.0,0.0,0.0,0.0,0.0,0.0,0.0,0.0,0.0,0.0,0.0,0.0,0.0,0.0,0.0,0.0,0.0,0.0,0.0,0.0,0.0,0.0,0.0,0.0,0.0,0.0,0.0,0.0,0.0,0.0,0.0,0.0,0.0,0.0,0.0,0.0,0.0,0.0,0.0,0.0,0.0,0.0,0.0,0.0,0.0,0.0,0.0,0.0,0.0,0.0,0.0,0.0,0.0,0.0,0.0,0.0,0.0,0.0,0.0,0.0,0.0,0.0,0.0,0.0,0.0,0.0,0.0,0.0,0.0,0.0,0.0,0.0,0.0,0.0,0.0,0.0,0.0,0.0,0.0,0.0,0.0,0.0,0.0,0.0,0.0,0.0,0.0,0.0,0.0,0.0,0.0,7.2091,7.7669,8.2362,8.4747,8.5016,8.4978,8.4901,8.1862,7.74,7.1514,0.0,0.0,0.0,0.0,0.0,0.0,0.0,0.0,0.0,0.0,0.0,0.0,0.0,0.0,0.0,0.0,0.0,0.0,0.0,0.0,0.0,0.0,0.0,0.0,0.0,0.0,0.0,0.0,0.0,0.0,0.0,0.0,0.0,0.0,0.0,0.0,0.0,0.0,0.0,0.0,0.0,0.0,0.0,0.0,0.0,0.0,0.0,0.0,0.0,0.0,0.0,0.0,0.0,0.0,0.0,0.0,0.0,0.0,0.0,0.0,6.7157,6.5429,0.0,0.0,0.0,0.0,0.0,0.0,0.0,0.0,0.0,0.0,0.0,0.0,0.0,0.0,0.0,0.0,0.0,0.0,0.0,0.0,0.0,0.0,0.0,0.0,0.0,0.0,0.0,0.0,0.0,0.0,0.0,0.0,0.0,0.0,0.0,0.0,0.0,0.0,0.0,0.0,7.3014,7.9592,8.4555,8.5709,8.5863,8.5593,8.4939,8.2401,7.8554,7.3283,6.909,0.0,0.0,0.0,0.0,0.0,0.0,0.0,0.0,0.0,0.0,0.0,0.0,0.0,0.0,0.0,0.0,0.0,0.0,0.0,0.0,0.0,0.0,0.0,0.0,0.0,0.0,0.0,0.0,0.0,0.0,0.0,0.0,0.0,0.0,0.0,0.0,0.0,0.0,0.0,0.0,0.0,0.0,0.0,0.0,0.0,0.0,0.0,0.0,0.0,0.0,0.0,0.0,0.0,0.0,0.0,0.0,0.0,0.0,0.0,7.0197,6.8338,0.0,0.0,0.0,0.0,0.0,0.0,0.0,0.0,0.0,0.0,0.0,0.0,0.0,0.0,0.0,0.0,0.0,0.0,0.0,0.0,0.0,0.0,0.0,0.0,0.0,0.0,0.0,0.0,0.0,0.0,0.0,0.0,0.0,0.0,0.0,0.0,0.0,0.0,0.0,0.0,7.3822,8.0054,8.4747,8.5978,8.6094,8.594,8.5517,8.3516,8.0477,7.6169,7.1898,0.0,0.0,0.0,0.0,0.0,0.0,0.0,0.0,0.0,0.0,0.0,0.0,0.0,0.0,0.0,0.0,0.0,0.0,0.0,0.0,0.0,0.0,0.0,0.0,0.0,0.0,0.0,0.0,0.0,0.0,0.0,0.0,0.0,0.0,0.0,0.0,0.0,0.0,0.0,0.0,0.0,0.0,0.0,0.0,0.0,0.0,0.0,0.0,0.0,0.0,0.0,0.0,0.0,7.4381,7.4959,7.5175,7.6309,7.7029,7.7182,7.3825,7.2379,7.2252,7.0298,0.0,0.0,0.0,0.0,0.0,0.0,0.0,0.0,0.0,0.0,0.0,0.0,0.0,0.0,0.0,0.0,0.0,0.0,0.0,0.0,0.0,0.0,7.4028,7.319,7.4737,7.5513,7.2281,0.0,0.0,0.0,0.0,0.0,0.0,0.0,0.0,0.0,0.0,0.0,7.4822,8.0092,8.4247,8.594,8.6094,8.6094,8.6094,8.4555,8.2247,7.9131,7.513,7.0783,0.0,0.0,0.0,0.0,0.0,0.0,0.0,0.0,0.0,0.0,0.0,0.0,0.0,0.0,0.0,0.0,0.0,0.0,0.0,0.0,0.0,0.0,0.0,0.0,0.0,0.0,0.0,0.0,0.0,0.0,0.0,0.0,7.0003,6.9008,0.0,0.0,0.0,0.0,0.0,0.0,0.0,0.0,0.0,0.0,0.0,0.0,0.0,7.4451,7.6416,7.7787,7.8553,7.8787,8.0294,8.1039,8.1085,8.1287,8.17,8.237,8.1166,0.0,7.5202,7.5574,0.0,0.0,0.0,0.0,0.0,0.0,0.0,0.0,0.0,0.0,0.0,0.0,0.0,0.0,0.0,0.0,0.0,0.0,0.0,0.0,0.0,0.0,8.0961,8.0162,8.039,8.0424,7.9252,7.4787,7.0615,6.9278,6.9129,6.8359,0.0,0.0,0.0,0.0,0.0,0.0,7.6515,8.0862,8.4247,8.594,8.6094,8.6094,8.6094,8.4555,8.2785,8.0862,7.7438,7.4207,7.1321,6.7359,0.0,0.0,0.0,0.0,0.0,0.0,0.0,0.0,0.0,0.0,0.0,0.0,0.0,0.0,0.0,0.0,0.0,0.0,0.0,0.0,0.0,0.0,0.0,0.0,0.0,0.0,0.0,0.0,0.0,6.9807,7.1165,7.0309,7.0964,7.0567,0.0,0.0,0.0,0.0,0.0,0.0,0.0,0.0,0.0,7.7874,7.7938,7.8926,8.1065,8.2301,8.2996,8.3177,8.4352,8.5123,8.5563,8.5563,8.6004,8.6775,8.6407,8.4889,8.2486,7.9201,7.6961,7.5418,0.0,0.0,0.0,0.0,7.4707,7.5822,7.6553,7.6754,7.6526,7.5205,0.0,0.0,0.0,0.0,0.0,0.0,0.0,7.4334,7.6539,7.9229,8.1671,8.2774,8.3097,8.3148,8.2685,8.0403,7.7202,7.2966,7.2491,7.1319,6.6842,6.6842,0.0,0.0,0.0,7.5399,7.8323,8.2016,8.4786,8.5978,8.6094,8.6094,8.6094,8.5016,8.3824,8.2593,7.9746,7.7207,7.513,7.1437,6.8167,0.0,0.0,0.0,0.0,0.0,0.0,0.0,0.0,0.0,0.0,0.0,0.0,0.0,0.0,0.0,0.0,0.0,0.0,0.0,0.0,0.0,0.0,0.0,0.0,0.0,0.0,0.0,0.0,7.1481,7.2778,7.2335,7.2913,7.2361,0.0,0.0,0.0,0.0,0.0,0.0,7.6178,7.7274,7.9108,8.1754,8.2264,8.3401,8.5263,8.62,8.6701,8.6738,8.7325,8.7949,8.85,8.85,8.894,8.9711,8.9491,8.9197,8.839,8.296,8.0245,7.9391,7.8157,7.7798,7.8097,7.8946,7.99,8.1016,8.2731,8.3025,8.2256,8.0249,7.7813,7.5134,7.2005,0.0,0.0,0.0,0.0,7.6375,7.9462,8.1072,8.233,8.4153,8.4754,8.4779,8.446,8.4274,8.2573,7.7281,7.6615,7.5271,6.9966,7.008,0.0,7.0689,7.3927,7.7368,8.0131,8.2928,8.4963,8.5769,8.5988,8.6094,8.6094,8.517,8.4286,8.3632,8.14,7.9477,7.8015,7.5091,7.2014,6.8783,0.0,0.0,0.0,0.0,0.0,0.0,0.0,0.0,0.0,0.0,0.0,0.0,0.0,0.0,0.0,0.0,0.0,0.0,0.0,0.0,0.0,0.0,0.0,0.0,0.0,0.0,0.0,0.0,0.0,7.573,7.6952,0.0,0.0,0.0,0.0,7.502,7.8031,8.0591,8.221,8.3321,8.4599,8.6334,8.6554,8.7105,8.8019,8.8793,8.9234,8.9234,8.9271,8.9307,8.9344,8.9344,8.9784,9.0519,8.9748,8.9821,9.0296,8.7587,8.5477,8.3917,8.3619,8.3443,8.3483,8.4234,8.5555,8.6872,8.6314,8.607,8.5937,8.5337,8.2089,7.8186,7.6903,7.5447,0.0,0.0,7.8634,8.0564,8.3088,8.4496,8.5269,8.5477,8.5604,8.5527,8.4749,8.4472,8.388,8.2347,8.199,8.083,7.7331,0.0,7.6831,7.6861,7.7169,7.8637,8.1993,8.333,8.4246,8.5047,8.57,8.6094,8.6094,8.4593,8.3632,8.3593,8.1977,8.0631,7.9708,7.7977,7.5822,7.3245,6.9052,0.0,0.0,0.0,0.0,0.0,0.0,0.0,0.0,0.0,0.0,0.0,0.0,0.0,0.0,0.0,0.0,0.0,0.0,0.0,0.0,0.0,0.0,0.0,0.0,0.0,0.0,0.0,0.0,7.7415,7.9242,0.0,7.6987,7.8406,7.9315,7.8977,8.1978,8.4312,8.5423,8.6795,8.8066,8.9172,9.0331,9.1069,9.1363,9.217,9.2537,9.2537,9.2537,9.2537,9.2537,9.2537,9.2427,9.2207,9.1913,9.162,9.1288,9.037,8.8679,8.6557,8.5467,8.5549,8.6436,8.667,8.7863,8.9146,8.8301,8.7763,8.7097,8.483,8.2702,8.0745,7.9793,7.951,7.9607,8.04,8.1422,8.2779,8.467,8.5445,8.5844,8.6398,8.6538,8.6481,8.6224,8.6037,8.5802,8.5371,8.354,8.0972,7.7606,7.7945,7.8383,7.7748,7.9064,8.0794,8.2581,8.3566,8.4354,8.5041,8.4995,8.4971,8.5296,8.386,8.2904,8.2785,8.1329,8.031,8.0004,7.8484,7.6694,7.4576,7.144,6.7927,0.0,0.0,0.0,0.0,0.0,0.0,0.0,0.0,0.0,0.0,0.0,0.0,0.0,0.0,0.0,0.0,0.0,0.0,0.0,0.0,0.0,0.0,0.0,0.0,0.0,7.7184,7.9354,8.0191,8.1948,8.2474,8.0819,8.2191,8.325,8.3398,8.5673,8.7619,8.8977,9.0078,9.1033,9.184,9.2941,9.3492,9.3492,9.4042,9.4299,9.4299,9.4299,9.4299,9.4299,9.4299,9.4006,9.3492,9.3492,9.3161,9.2647,9.2294,9.1017,8.9155,8.8003,8.8016,8.8766,8.9302,9.0201,9.1014,9.0192,8.9504,8.8498,8.5581,8.4242,8.3618,8.2553,8.259,8.3067,8.3324,8.3801,8.4535,8.5857,8.6187,8.6334,8.6885,8.6995,8.6995,8.6995,8.6951,8.682,8.6523,8.5059,8.2932,8.0181,8.084,8.132,8.0112,8.1395,8.2721,8.3336,8.4163,8.4807,8.5214,8.4843,8.4741,8.5015,8.3293,8.2225,8.2399,8.0428,7.94,7.9667,7.8204,7.6645,7.513,7.2043,6.8706,6.5148,0.0,0.0,0.0,0.0,0.0,0.0,0.0,0.0,0.0,0.0,0.0,0.0,0.0,0.0,0.0,0.0,0.0,0.0,0.0,0.0,0.0,0.0,0.0,7.8669,7.9954,8.164,8.4116,8.5291,8.56,8.4829,8.549,8.6628,8.8206,8.9087,9.0629,9.3015,9.3161,9.3529,9.4336,9.4373,9.4373,9.441,9.4373,9.4373,9.4373,9.441,9.441,9.4373,9.441,9.4373,9.4336,9.4336,9.4299,9.4226,9.3455,9.2648,9.1801,9.1553,9.1092,9.0677,9.2166,9.271,9.2599,9.1932,9.1209,9.0188,8.7839,8.7068,8.6775,8.5196,8.4682,8.4829,8.56,8.582,8.6004,8.6848,8.7031,8.7068,8.7068,8.7068,8.7031,8.7031,8.7031,8.6775,8.5967,8.6797,8.7148,8.5575,8.581,8.5773,8.4318,8.4236,0.0,8.4398,8.5105,8.5552,8.5552,8.5446,8.5336,8.5298,8.2829,8.1609,8.2449,7.9476,7.8065,7.8828,7.7265,7.5932,7.5092,7.0976,6.8045,6.6412,0.0,0.0,0.0,0.0,0.0,0.0,0.0,0.0,0.0,0.0,0.0,0.0,0.0,0.0,0.0,0.0,0.0,0.0,0.0,0.0,0.0,7.6609,7.8297,7.9875,8.206,8.4203,8.6045,8.7537,8.8316,8.8096,8.9344,9.0335,9.0776,9.2134,9.3235,9.3932,9.452,9.5217,9.6025,9.6025,9.6318,9.6906,9.6318,9.6025,9.6061,9.6612,9.6575,9.6061,9.6649,9.6282,9.518,9.518,9.485,9.4263,9.4042,9.3822,9.3456,9.1597,9.071,9.0647,9.1037,9.1209,9.1179,9.1011,9.0401,8.9638,8.8977,8.8353,8.7802,8.7325,8.6811,8.6407,8.6628,8.6664,8.6848,8.7655,8.7876,8.8023,8.861,8.8316,8.7876,8.7876,8.7435,8.6921,8.6701,8.7824,8.7939,8.5263,8.499,8.494,8.4509,8.4479,8.4498,8.4534,8.4719,8.4828,8.477,8.4248,8.3818,8.3627,8.1921,8.0643,8.0182,7.8342,7.7389,7.7614,7.614,7.5157,7.4741,7.1648,6.947,0.0,0.0,0.0,0.0,0.0,0.0,0.0,0.0,0.0,0.0,0.0,0.0,0.0,0.0,0.0,0.0,0.0,0.0,0.0,0.0,0.0,0.0,8.0092,8.2258,8.4065,8.5058,8.6444,8.8757,9.0188,9.1106,9.1436,9.2281,9.2978,9.3308,9.4263,9.496,9.529,9.6061,9.6575,9.6685,9.7346,9.775,9.7897,9.775,9.7713,9.7713,9.819,9.8154,9.7713,9.819,9.7713,9.6502,9.6502,9.6061,9.529,9.529,9.5107,9.463,0.0,0.0,0.0,0.0,9.195,9.1657,9.1657,9.1106,9.0372,9.0005,8.9601,8.916,8.8793,8.839,8.8023,8.8023,8.8023,8.8133,8.8573,8.872,8.883,8.9307,8.905,8.872,8.872,8.8353,8.8023,8.8023,8.8729,0.0,8.6917,8.6598,8.6287,8.5264,8.538,8.56,8.56,8.56,8.5728,8.5926,8.5022,8.4341,8.4141,8.2295,0.0,0.0,0.0,7.6595,7.5552,7.468,0.0,0.0,0.0,0.0,0.0,7.0256,0.0,0.0,6.8222,6.8132,0.0,0.0,0.0,0.0,0.0,0.0,0.0,0.0,0.0,0.0,0.0,0.0,0.0,0.0,0.0,0.0,8.3974,8.7171,8.9371,8.8463,8.8647,9.1583,9.2721,9.3529,9.4226,9.4373,9.4777,9.5584,9.5731,9.6135,9.6942,9.764,0.0,0.0,0.0,9.8814,9.8154,9.8778,9.9108,9.9108,9.9181,9.9181,9.9108,9.9181,9.8814,9.8007,9.7933,9.7493,9.6832,9.6722,9.6282,9.5547,9.463,9.4299,9.4299,9.4299,9.3859,9.3235,9.3125,0.0,0.0,9.0996,9.0665,9.0482,8.9784,8.9491,8.9417,8.9417,8.9417,8.9454,8.9528,8.9564,8.9564,8.9674,8.9601,8.9564,8.9564,8.9491,8.9417,8.9417,8.9491,8.9528,8.9454,8.9366,8.8626,8.6544,8.6811,8.7288,8.7288,8.7215,8.7362,8.7986,8.6701,0.0,8.5673,8.3411,8.1917,8.1826,7.8889,7.6121,7.3855,7.3744,7.3628,7.3417,7.282,7.3313,7.4821,7.4327,7.4147,7.4169,7.0485,7.0361,0.0,0.0,0.0,0.0,0.0,0.0,0.0,0.0,0.0,0.0,0.0,0.0,0.0,0.0,0.0,8.1978,8.4435,8.7254,9.0921,9.1106,9.1363,9.2684,9.3565,9.4116,9.4263,9.4887,9.5621,9.6428,9.7052,9.7787,9.8594,9.8778,9.9108,9.9585,9.9292,9.9328,9.9842,9.9365,9.9108,9.9108,9.9769,0.0,9.9145,9.9769,9.9622,9.8851,9.819,9.7787,9.7603,9.6979,9.6612,9.6318,9.485,9.4299,9.4299,9.4299,9.4189,9.3969,9.3345,9.2978,9.2721,9.184,9.1143,9.0592,9.0445,8.9931,0.0,8.9417,8.9417,8.9564,9.0225,9.0372,9.0555,9.1179,9.0849,9.0372,9.0372,8.9858,8.9417,8.9417,8.9931,9.0188,8.9528,8.9412,8.9261,8.8757,8.8867,8.8977,8.8977,8.839,8.7766,8.7288,8.6371,8.5527,8.4903,8.375,8.2527,8.1303,7.9388,7.7744,7.6567,7.653,7.6479,7.647,7.5727,7.5794,7.6751,7.6667,7.6974,7.7598,7.5485,7.4494,0.0,0.0,0.0,0.0,0.0,0.0,0.0,0.0,0.0,0.0,0.0,7.5968,7.7002,0.0,8.2242,8.462,8.7082,8.9572,9.2133,9.3161,9.3822,9.4263,9.4666,9.5217,9.6025,9.6465,9.7052,9.786,9.8264,9.8668,9.9071,9.9475,9.9695,9.9695,10.0099,10.0283,10.0283,10.0283,10.0283,10.0283,10.0686,10.0686,10.0283,10.0686,10.0503,9.9695,9.9292,9.8851,9.8447,9.764,9.753,9.7787,9.6575,9.5841,9.5511,9.5511,9.5254,9.485,9.4446,9.3786,9.3015,9.2574,9.1877,9.1216,9.1216,9.0922,9.0592,9.0592,9.0592,9.0702,9.1106,9.1216,9.1289,9.1693,9.1473,9.1216,9.1216,9.0886,9.0592,9.0592,9.0922,9.1069,9.0665,9.0592,9.0335,8.9528,8.9417,8.9564,8.9968,8.9307,8.8647,8.8243,8.7472,8.6664,8.5857,8.4682,8.3508,8.2296,8.1085,7.9837,7.8589,7.8552,7.8369,7.7965,7.7561,7.7745,7.8552,7.8552,7.8772,7.9176,7.8736,7.8112,0.0,0.0,0.0,0.0,0.0,0.0,0.0,7.3231,7.4334,7.612,7.7565,7.8978,8.0358,8.3525,8.6368,8.7494,9.0193,9.2468,9.3419,9.496,9.5988,9.5988,9.5988,9.6539,9.797,9.8117,9.8484,9.9292,9.9328,9.9402,9.9548,10.0209,10.0209,9.9585,10.0796,10.12,10.0503,10.12,10.1494,10.1494,10.1494,10.1494,10.1494,10.1494,10.109,10.0503,10.0393,9.9842,9.9071,9.8411,9.8521,9.9035,9.8374,9.775,9.7163,9.6979,9.6539,9.5914,9.5621,9.4666,9.3529,9.3382,9.2868,9.2281,9.2281,9.2281,9.2281,9.2281,9.217,9.206,9.206,9.1913,9.1803,9.1803,9.1803,9.1803,9.1803,9.1803,9.1803,9.1803,9.1803,9.184,9.2024,9.1913,9.1363,9.0078,8.9895,9.0115,9.0739,9.0152,8.9638,8.9638,8.8793,8.7876,8.7068,8.5673,8.4572,8.3911,8.3104,8.2076,8.0791,8.0571,8.0167,7.9543,7.9396,7.9617,8.0241,8.0424,8.0498,8.0498,8.1305,8.1085,6.887,7.019,7.1398,7.1253,7.1864,7.3383,0.0,7.7952,7.9047,8.1424,8.379,8.5267,8.4924,8.6966,8.9061,9.0037,9.2317,9.4264,9.5107,9.6612,9.764,9.764,9.764,9.797,9.8888,9.8961,9.9292,10.0099,10.0209,10.0503,10.12,10.1274,10.1274,10.12,10.1384,10.1494,10.1384,10.1494,10.1494,10.1494,10.1494,10.1494,10.1494,10.1494,10.1494,10.1274,10.0613,9.9842,9.9108,9.8998,9.9035,9.9108,9.8998,9.8924,9.8741,9.8043,9.7713,9.7419,9.6025,9.5401,9.5107,9.441,9.4079,9.4006,9.4006,9.4006,9.4006,9.4006,9.3492,9.2941,9.2941,9.2391,9.1803,9.1803,9.1803,9.1803,9.1803,9.1803,9.1803,9.1803,9.1803,9.206,9.2831,9.2317,9.173,9.1546,9.1546,9.1546,9.1657,9.0959,9.0482,9.0482,8.9124,8.7876,8.7068,8.6187,8.5637,8.5527,8.4792,8.4242,8.4058,8.3398,8.2957,8.2884,8.215,8.1819,8.1929,8.2663,8.2994,8.303,8.3838,8.2994,7.1689,7.2614,7.3365,7.4384,7.5852,7.7545,7.929,8.0597,8.1954,8.3937,8.5297,8.6437,8.7534,8.935,9.12,9.2537,9.441,9.5804,9.6171,9.7163,9.7897,9.7897,9.7897,9.8374,9.9659,9.9805,10.0099,10.0907,10.098,10.109,10.1494,10.1494,10.1494,10.1494,10.1494,10.1494,10.1494,10.1494,10.1494,10.1494,10.1494,10.1494,10.1494,10.1494,10.1494,10.1494,10.109,10.0796,10.0503,9.9989,10.0099,10.0503,9.9989,10.0099,10.0283,9.8521,9.7897,9.775,9.6575,9.5914,9.5437,9.5107,9.4666,9.4299,9.4299,9.4299,9.4299,9.4299,9.4042,9.3786,9.3786,9.3161,9.2574,9.2574,9.2574,9.2427,9.1913,9.2207,9.2391,9.1913,9.2207,9.2684,9.3051,9.3198,9.3235,9.3235,9.2427,9.1803,9.1803,9.151,9.1106,9.0665,8.916,8.8059,8.7729,8.6958,8.6518,8.6518,8.6187,8.5783,8.5306,8.4976,8.4572,8.4132,8.3765,8.3581,8.3581,8.3948,8.4095,8.4132,8.4462,8.4058,7.3345,7.4409,7.5551,7.7099,7.9165,8.0952,8.164,8.2876,8.4262,8.5893,8.6701,8.7729,8.9711,9.14,9.3015,9.4703,9.6318,9.7273,9.7052,9.7897,9.83,9.764,9.797,9.8594,9.9548,9.9989,10.0503,10.109,10.1384,10.1494,10.1494,10.1494,10.1494,10.1494,10.1494,10.1494,10.1494,10.1494,10.1494,10.1494,10.1494,10.1494,10.1494,10.1494,10.1494,10.1494,10.1494,10.1494,10.1494,10.0907,10.098,10.1384,10.0907,10.098,10.1274,9.9292,9.8411,9.8117,9.7309,9.6502,9.5841,9.5841,9.5437,9.496,9.496,9.496,9.496,9.496,9.4813,9.463,9.463,9.4042,9.3418,9.3418,9.3418,9.3272,9.2611,9.2978,9.3235,9.2611,9.3015,9.3492,9.3712,9.4042,9.4373,9.4593,9.3418,9.2501,9.2501,9.2281,9.1767,9.0702,8.9564,8.8683,8.8243,8.7876,8.7582,8.7362,8.7325,8.7068,8.6481,8.6261,8.5747,8.4939,8.4939,8.4829,8.4609,8.4829,8.5049,8.527,8.527,8.538,7.3449,7.5728,7.8736,7.9194,8.06,8.2326,8.4073,8.5153,8.6182,8.7835,8.9344,9.0739,9.162,9.3125,9.474,9.6355,9.797,9.8741,9.797,9.9218,9.9365,9.7016,9.8117,9.8778,9.8043,9.9365,10.0283,10.0319,10.109,10.1494,10.1494,10.1494,10.1494,10.1494,10.1494,10.1494,10.1494,10.1494,10.1494,10.1494,10.1494,10.1494,10.1494,10.1494,10.1494,10.1494,10.1494,10.1494,10.1494,10.1494,10.1494,10.1494,10.1494,10.1494,10.1384,10.0503,9.9732,9.8961,9.8117,9.7346,9.6649,9.6649,9.6649,9.6612,9.6612,9.6612,9.6612,9.6612,9.6061,9.5474,9.5474,9.4887,9.4263,9.4263,9.4263,9.4263,9.4226,9.4226,9.4263,9.4226,9.4226,9.452,9.529,9.4813,9.4556,9.5364,9.4777,9.4226,9.4226,9.3529,9.2427,9.0776,9.0555,8.9895,8.8316,8.8904,8.9014,8.8206,8.8169,8.8133,8.8133,8.7399,8.6591,8.5783,8.5747,8.538,8.4609,8.538,8.6151,8.6921,8.6921,8.7362,7.7224,7.8414,7.9641,8.1401,8.2756,8.4129,8.5815,8.6811,8.7839,8.9454,8.9381,8.9601,9.1473,9.184,9.2905,9.6171,9.7603,9.8594,9.9365,9.9952,9.9402,9.6979,9.764,9.7787,9.6428,9.8741,10.0283,10.0283,10.098,10.1494,10.1494,10.1494,10.1494,10.1494,10.1494,10.1494,10.1494,10.1494,10.1494,10.1494,10.1494,10.1494,10.1494,10.1494,10.1494,10.1494,10.1494,10.1494,10.1494,10.1494,10.1494,10.1494,10.1494,10.1494,10.1494,10.12,10.0613,9.9695,9.8337,9.7346,9.6685,9.6685,9.6685,9.6685,9.6685,9.6685,9.6685,9.6685,9.6502,9.6318,9.6318,9.5694,9.5107,9.5107,9.5107,9.496,9.441,9.4703,9.496,9.441,9.474,9.518,9.5474,9.5731,9.5988,9.6282,9.5144,9.4116,9.3565,9.3272,9.2648,9.151,9.0922,9.0372,8.9858,8.9564,8.9307,8.9014,8.9014,8.9014,8.9014,8.8757,8.85,8.8206,8.8206,8.8059,8.7802,8.8059,8.8353,8.861,8.861,8.8757,7.9538,8.0305,8.084,8.3446,8.4783,8.5894,8.7509,8.85,8.9344,9.0408,8.9307,8.8757,9.0592,9.0041,9.0739,9.5144,9.6502,9.7676,9.9585,9.9879,9.9181,9.7346,9.7566,9.7383,9.6061,9.8337,9.9879,9.9879,10.0613,10.12,10.1494,10.1494,10.1494,10.1494,10.1494,10.1494,10.1494,10.1494,10.1494,10.1494,10.1494,10.1494,10.1494,10.1494,10.1494,10.1494,10.1494,10.1494,10.1494,10.1494,10.1494,10.1494,10.1494,10.1494,10.1494,10.1494,10.098,10.0172,9.9108,9.8043,9.7126,9.7126,9.6942,9.6685,9.6685,9.6685,9.6685,9.6685,9.6685,9.6685,9.6685,9.6318,9.5951,9.5951,9.5951,9.5804,9.5254,9.5547,9.5768,9.5254,9.5584,9.5951,9.5951,9.6355,9.6795,9.7089,9.5988,9.485,9.4079,9.3969,9.3529,9.2391,9.1803,9.1253,9.0665,9.0408,9.0152,8.9858,8.9858,8.9858,8.9858,8.9564,8.9417,8.9417,8.9417,8.9417,8.9417,8.9417,8.9564,8.9821,8.9564,8.9564,8.0264,8.1343,8.2616,8.525,8.6481,8.7509,8.9124,9.0041,9.0555,9.0555,8.9197,8.828,8.9087,8.7986,8.8536,9.3418,9.496,9.6392,9.8888,9.9218,9.8924,9.8043,9.8007,9.7676,9.6832,9.8154,9.9071,9.9181,9.9879,10.0613,10.1384,10.1494,10.1494,10.1494,10.1494,10.1494,10.1494,10.1494,10.1494,10.1494,10.1494,10.1494,10.1494,10.1494,10.1494,10.1494,10.1494,10.1494,10.1494,10.1494,10.1494,10.1494,10.1494,10.1494,10.1494,10.1494,10.098,10.0393,10.0393,9.9292,9.797,9.797,9.7419,9.6832,9.6759,9.6759,9.6759,9.6722,9.6685,9.6685,9.6685,9.6685,9.6685,9.6685,9.6685,9.6685,9.6685,9.6685,9.6685,9.6685,9.6685,9.6685,9.6685,9.6685,9.6979,9.7787,9.7199,9.6428,9.5658,9.5547,9.4923,9.3345,9.3125,9.2464,9.0922,9.14,9.1473,9.0776,9.0702,9.0665,9.0665,8.9931,8.9528,8.9528,8.9528,8.9528,8.9528,8.9528,8.9931,9.0629,8.9895,8.9968,8.1978,8.3645,8.5095,8.6402,8.7288,8.8316,8.9931,9.0005,8.9711,8.9711,8.7472,8.5747,8.6554,8.6371,8.7692,9.2611,9.507,9.7456,10.0503,10.0907,10.0393,9.8961,9.9328,9.9145,9.7713,9.797,9.8704,9.9916,10.0209,10.0393,10.0613,10.12,10.1494,10.1494,10.1494,10.1494,10.1494,10.1494,10.1494,10.1494,10.1494,10.1494,10.1494,10.1494,10.1494,10.1494,10.1494,10.1494,10.1494,10.1494,10.1494,10.1494,10.1494,10.1494,10.1494,10.1494,10.1384,10.12,10.12,10.0099,9.8778,9.8778,9.8668,9.8374,9.7787,9.7566,9.7456,9.6869,9.6685,9.6685,9.6685,9.6685,9.6685,9.6685,9.6685,9.6685,9.6685,9.6685,9.6685,9.6685,9.6685,9.6685,9.6685,9.6685,9.6979,9.7787,9.7199,9.6649,9.6428,9.5878,9.5107,9.4079,9.3455,9.3161,9.3345,9.2391,9.1987,9.2427,9.184,9.1473,9.1473,9.1289,9.1179,9.1179,9.1179,9.1179,9.1179,9.1179,9.1289,9.1473,9.1289,9.1657,8.4262,8.5529,8.6591,8.7766,8.839,8.8793,8.8977,8.8683,8.8059,8.6995,8.4792,8.3287,8.4058,8.4205,8.582,9.0702,9.3822,9.6759,9.9989,10.0796,10.0796,10.0209,10.0209,9.9952,9.9035,9.8924,9.9181,9.9732,9.9769,10.0099,10.0796,10.1274,10.1494,10.1494,10.1494,10.1494,10.1494,10.1494,10.1494,10.1494,10.1494,10.1494,10.1494,10.1494,10.1494,10.1494,10.1494,10.1494,10.1494,10.1494,10.1494,10.1494,10.1494,10.1494,10.1494,10.1494,10.1494,10.1494,10.1494,10.0907,10.0099,9.9732,9.9402,9.9035,9.8557,9.819,9.786,9.7787,9.7236,9.6795,9.7126,9.6942,9.6685,9.6685,9.6685,9.6685,9.6685,9.6979,9.7346,9.7676,9.7456,9.7346,9.7676,9.7163,9.7199,9.8704,9.7676,9.6979,9.7676,9.6759,9.5731,9.4923,9.441,9.4189,9.4299,9.3418,9.2941,9.3088,9.2648,9.2207,9.1803,9.1803,9.1803,9.1803,9.1803,9.1987,9.2354,9.2354,9.2537,9.2905,9.2905,9.3161,8.6444,8.7178,8.7692,8.9197,8.9491,8.9014,8.7509,8.6995,8.6187,8.3765,8.1966,8.1085,8.1893,8.2223,8.3948,8.8793,9.2244,9.5437,9.8814,9.9879,10.0613,10.1384,10.0907,10.0503,10.0503,10.0393,10.0099,9.9475,9.9328,9.9879,10.1274,10.1384,10.1494,10.1677,10.1567,10.1604,10.1788,10.1604,10.1567,10.1677,10.1567,10.1494,10.1494,10.1494,10.1494,10.1494,10.1494,10.1494,10.1494,10.1494,10.1494,10.1494,10.1494,10.1494,10.1494,10.1494,10.1494,10.1494,10.1494,10.1494,10.1384,10.0686,9.9916,9.9255,9.9145,9.8557,9.8007,9.8631,9.786,9.7016,9.7713,9.7456,9.7016,9.7016,9.6942,9.6906,9.7016,9.7566,9.8264,9.8961,9.8557,9.8264,9.8998,9.7933,9.7787,9.9952,9.8337,9.7419,9.8924,9.7713,9.6428,9.5731,9.5584,9.5254,9.4666,9.441,9.4042,9.3455,9.3308,9.2905,9.217,9.2134,9.2134,9.2134,9.2134,9.2501,9.3272,9.3272,9.3602,9.4299,9.4299,9.4336,8.6885,8.7986,8.9234,9.0188,8.9895,8.916,8.8206,8.6958,8.5306,8.292,8.1122,8.0241,8.1048,8.2296,8.4792,8.9638,9.2574,9.5658,9.9548,10.0209,10.0613,10.1384,10.1384,10.1274,10.1274,10.0686,10.0503,10.098,10.0503,10.0209,10.0503,10.109,10.1788,10.2485,10.1788,10.2081,10.3476,10.2191,10.1788,10.2485,10.1788,10.1494,10.1494,10.1494,10.1494,10.1494,10.1494,10.1494,10.1494,10.1494,10.1494,10.1494,10.1494,10.1494,10.1494,10.1494,10.1494,10.1494,10.1494,10.1494,10.1494,10.131,10.0686,9.9989,9.9292,9.8557,9.7787,9.7273,9.7383,9.7713,9.786,9.83,9.8704,9.8704,9.819,9.786,9.8557,9.8814,9.8924,9.9071,9.8998,9.8961,9.9071,9.8888,9.9071,10.0099,9.8814,9.8043,9.8998,9.7713,9.6649,9.6502,9.5914,9.5731,9.6245,9.507,9.452,9.507,9.4446,9.4006,9.3859,9.3859,9.3859,9.3859,9.3859,9.3932,9.4079,9.4079,9.4153,9.4299,9.4299,9.4666,8.8647,8.9454,9.0225,9.1033,9.0298,8.8867,8.6811,8.5086,8.3104,8.0241,7.9029,7.8772,7.9617,8.1085,8.3177,8.6334,8.9271,9.2391,9.6025,9.764,9.9035,10.0686,10.12,10.1494,10.1494,10.12,10.109,10.1494,10.109,10.0907,10.0907,10.1677,10.2081,10.2081,10.2081,10.2301,10.2595,10.1898,10.1677,10.2081,10.1677,10.1494,10.1494,10.1494,10.1494,10.1494,10.1494,10.1494,10.1494,10.1494,10.1494,10.1494,10.1494,10.1494,10.1494,10.1494,10.1494,10.1494,10.1494,10.1494,10.1494,10.1494,10.12,10.0796,9.9989,9.9145,9.8447,9.808,9.7933,9.8007,9.8411,9.8814,9.8998,9.8594,9.786,9.7713,9.9365,9.9402,9.9365,10.0209,9.9989,9.9879,10.0283,9.9659,9.9512,10.0686,9.9181,9.819,9.8998,9.808,9.7163,9.6722,9.6355,9.6282,9.6685,9.6392,9.5988,9.5547,9.5547,9.518,9.4336,9.4299,9.4299,9.4299,9.4299,9.452,9.4923,9.4923,9.5364,9.6171,9.6171,9.6612,9.0152,9.0849,9.1289,9.1913,9.0739,8.8573,8.5343,8.3214,8.1048,7.7965,7.7304,7.7598,7.8442,7.9764,8.1379,8.3361,8.6077,8.9197,9.2868,9.529,9.7603,9.9989,10.098,10.1494,10.1494,10.1494,10.1494,10.1494,10.1494,10.1567,10.1677,10.2485,10.2705,10.2008,10.2485,10.2485,10.1971,10.1677,10.1604,10.1788,10.1788,10.1677,10.1494,10.1677,10.1677,10.1494,10.1494,10.1494,10.1494,10.1494,10.1494,10.1494,10.1494,10.1494,10.1494,10.1494,10.1494,10.1494,10.1494,10.1494,10.1494,10.1494,10.1384,10.109,10.0283,9.9475,9.8814,9.8631,9.8264,9.8043,9.8668,9.8961,9.8961,9.83,9.7676,9.7787,9.9842,9.9805,9.9769,10.12,10.098,10.0796,10.1384,10.0503,9.9989,10.1274,9.9732,9.8631,9.9292,9.8668,9.7897,9.7273,9.7052,9.6942,9.6942,9.753,9.7273,9.5878,9.6502,9.6318,9.485,9.496,9.4997,9.4813,9.5144,9.5547,9.6025,9.6208,9.6942,9.8154,9.8154,9.8484,9.0152,9.173,9.2905,9.2978,9.1179,8.8573,8.5343,8.281,8.0388,7.7855,7.7304,7.7598,7.8442,7.9323,8.0901,8.3985,8.5967,8.8793,9.3529,9.5621,9.7603,9.9989,10.098,10.1494,10.1494,10.1494,10.1494,10.1494,10.1494,10.1788,10.2595,10.3403,10.3806,10.3696,10.2999,10.2999,10.3696,10.2191,10.1898,10.2595,10.2595,10.2191,10.1494,10.2301,10.2191,10.1494,10.1494,10.1494,10.1494,10.1494,10.1494,10.1494,10.1494,10.1494,10.1494,10.1494,10.1494,10.1494,10.1494,10.1494,10.1494,10.1494,10.098,10.0283,9.9475,9.8668,9.786,9.7126,9.7383,9.7897,9.797,9.8557,9.9071,9.9035,9.8924,9.9145,10.0099,10.0209,10.0393,10.1274,10.1384,10.1384,10.1494,10.1384,10.1274,10.1494,10.0686,10.0099,10.0209,9.9475,9.8961,9.8888,9.8227,9.7787,9.7787,9.786,9.753,9.6649,9.7346,9.7383,9.6502,9.7163,9.7236,9.6502,9.7933,9.8337,9.7676,9.8411,9.8851,9.8998,9.8998,9.9035,9.0629,9.2207,9.3088,9.3088,9.162,8.916,8.5453,8.3104,8.0901,7.7928,7.7304,7.7414,7.7781,7.8075,7.8736,8.0021,8.1195,8.3471,8.7839,9.0262,9.3198,9.7603,9.9255,10.0393,10.1384,10.1494,10.1494,10.1494,10.1898,10.2412,10.2705,10.2999,10.2999,10.2485,10.2595,10.2595,10.2485,10.1788,10.1677,10.2008,10.2008,10.1788,10.1494,10.2301,10.2301,10.1494,10.2008,10.1898,10.1494,10.1494,10.1494,10.1494,10.1494,10.1494,10.1494,10.1494,10.1494,10.1494,10.1494,10.1494,10.1494,10.1494,10.1274,10.0907,10.0099,9.9585,9.9181,9.8374,9.8704,9.9328,9.9328,9.9585,9.9805,9.9805,9.9475,9.9328,10.0099,10.0283,10.0393,10.0686,10.12,10.1494,10.1494,10.1494,10.1494,10.1494,10.0796,10.0283,10.0283,9.9622,9.9292,9.9769,9.9108,9.8631,9.8631,9.9071,9.8778,9.7493,9.8631,9.8557,9.6759,9.7933,9.8227,9.7419,9.8521,9.8961,9.8631,9.8961,9.9365,9.9805,9.9805,10.0099,9.0886,9.2611,9.3455,9.3455,9.1657,8.8977,8.5416,8.281,8.0424,7.7855,7.7304,7.7304,7.7304,7.7304,7.7414,7.7671,7.8809,8.0901,8.4462,8.7031,9.0225,9.4703,9.6502,9.8043,9.9879,10.0907,10.1494,10.1494,10.2191,10.2595,10.2412,10.2595,10.2412,10.1898,10.2412,10.2301,10.1494,10.1494,10.1604,10.1898,10.1898,10.1898,10.1898,10.2412,10.2301,10.1494,10.2081,10.2008,10.1494,10.1494,10.1494,10.1494,10.1494,10.1494,10.1494,10.1494,10.1494,10.1494,10.1494,10.1494,10.1494,10.1494,10.1494,10.1384,10.0796,10.0503,10.0099,9.9328,9.9512,9.9952,9.9952,9.9952,9.9989,10.0209,9.9695,9.9402,10.0393,10.0503,10.0393,10.0613,10.109,10.1494,10.1494,10.1494,10.1384,10.12,10.0907,10.0503,9.9989,9.9659,9.9585,9.9916,9.9659,9.9475,9.9475,9.9989,9.9695,9.8337,9.9548,9.9328,9.7126,9.8594,9.8961,9.7897,9.9145,9.9695,9.9475,9.9695,10.0099,10.0686,10.0686,10.098,9.0776,9.3051,9.4299,9.4299,9.1216,8.7582,8.5159,8.1525,7.8369,7.7488,7.7304,7.7304,7.7304,7.7304,7.7598,7.8442,8.0608,8.2994,8.5453,8.7876,9.0005,9.1657,9.2648,9.4116,9.6502,9.9622,10.1494,10.1494,10.2191,10.2412,10.1567,10.2301,10.2705,10.2705,10.2705,10.2301,10.1494,10.1494,10.1898,10.2705,10.2705,10.2705,10.2705,10.2705,10.2301,10.1494,10.1494,10.1494,10.1494,10.1494,10.1494,10.1494,10.1494,10.1494,10.1494,10.1494,10.1494,10.1494,10.1494,10.1494,10.1494,10.1494,10.1494,10.1494,10.1494,10.0907,10.0099,9.9328,9.9108,9.9108,9.9108,9.9108,9.9328,10.0099,9.9695,9.9548,10.109,10.0907,10.0503,10.1274,10.1494,10.1494,10.1494,10.1494,10.12,10.0393,10.098,10.0907,9.9328,9.9805,9.9989,9.9218,9.9805,10.0283,10.0283,10.0283,9.9952,9.9145,9.9842,9.9548,9.7933,9.9438,9.9512,9.7933,10.0283,10.109,10.0283,10.109,10.1494,10.1494,10.1494,10.1494,8.6261,8.8096,8.9197,8.861,8.7105,8.5123,8.27,8.0718,7.9029,7.7598,7.7304,7.7304,7.7304,7.7304,7.7965,7.991,8.0901,8.2223,8.4646,8.7068,8.9197,9.0812,9.4666,9.7713,9.9035,10.0576,10.1058,10.0188,10.1195,10.098,9.8913,10.07,10.1898,10.1898,10.1898,10.1788,10.1494,10.1494,10.1604,10.1898,10.1898,10.1898,10.1898,10.2412,10.2301,10.1494,10.2081,10.2008,10.1494,10.1494,10.1494,10.1494,10.1494,10.1494,10.1494,10.1494,10.1494,10.1494,10.1494,10.1494,10.1494,10.1494,10.1494,10.1494,10.1494,10.1274,10.109,10.0796,10.0686,10.0613,10.0099,10.0319,10.0686,10.0393,10.0503,10.0686,10.0686,10.0907,10.098,10.0686,10.109,10.1494,10.1494,10.1494,10.1384,10.12,10.131,10.1274,10.0796,9.9989,9.9585,9.9879,9.9659,9.9695,10.0283,10.0796,10.0796,9.9989,10.0686,10.0393,9.8778,10.0283,10.0613,9.9548,10.0796,10.1384,10.109,10.1384,10.1494,10.1494,10.1494,10.1494,8.3911,8.5563,8.6444,8.593,8.4719,8.3214,8.1415,7.9874,7.8552,7.7524,7.7304,7.7304,7.7304,7.7304,7.7818,7.936,8.0645,8.1966,8.3471,8.604,8.8463,9.0372,9.4556,9.763,9.8582,9.9969,10.0287,9.9153,10.0129,9.9933,9.8144,9.9984,10.0907,10.0613,10.12,10.1494,10.1494,10.1494,10.1677,10.1898,10.1604,10.1677,10.1971,10.2191,10.2008,10.1494,10.2008,10.1971,0.0,10.1494,10.1494,10.1494,10.1494,10.1494,10.1494,10.1494,10.1494,10.1494,10.1494,10.1494,10.1494,10.1494,10.1494,10.1494,10.1494,10.1494,10.1494,10.1494,10.1494,10.1384,10.0907,10.109,10.1384,10.0907,10.109,10.1384,10.0907,10.109,10.1384,10.087,10.0907,10.109,10.1384,10.12,10.098,10.098,10.1274,10.1274,10.0686,9.9732,9.9181,9.9365,9.8961,9.8851,9.9328,10.0686,10.1274,10.0796,10.12,10.0907,9.9622,10.0796,10.098,9.9879,10.0907,10.1384,10.098,10.1384,10.1494,10.1494,10.1494,10.1494,0.0,8.4682,8.527,8.5196,8.3508,8.1672,8.0901,7.8956,0.0,7.7304,7.7304,7.7304,7.7304,7.7304,7.7378,7.7561,8.0167,8.2186,8.2194,8.4982,8.7952,9.0629,9.3088,9.498,9.6025,9.8126,9.9172,9.82,9.8902,9.9041,9.8591,9.9411,9.9566,9.8716,10.0298,10.1185,10.1384,10.1494,10.1898,10.2595,10.1898,10.1898,10.2595,10.1788,10.1494,10.1494,10.1494,10.1494,10.1494,10.1494,10.1494,10.1494,10.1494,10.1494,10.1494,10.1494,10.1494,10.1494,10.1494,10.1494,10.1494,10.1494,10.1494,10.1494,10.1494,10.1494,10.1494,10.1494,10.1494,10.1494,10.1494,10.1494,10.1494,10.1494,10.1494,10.1494,10.1494,10.1494,10.1494,10.1494,10.0907,10.0613,10.1384,10.0907,10.0393,10.0393,10.098,10.098,9.9475,9.9181,9.8851,9.8117,9.8007,9.8007,9.8043,10.0099,10.1384,10.1384,10.1494,10.12,10.0393,10.109,10.0796,9.9292,10.0686,10.109,10.0393,10.109,10.1494,10.1494,10.1494,10.1494,7.8772,0.0,8.0131,7.947,7.8883,7.8405,0.0,7.7745,7.7304,7.7304,7.7304,7.7304,7.7304,7.7304,7.7928,7.9837,8.1305,8.2172,8.1887,8.4643,8.8574,9.3747,9.5951,9.7415,9.8233,9.9049,9.8774,9.6981,9.6993,9.5992,9.3309,9.5277,9.589,9.4743,9.6601,9.8595,10.0613,10.12,10.1604,10.1788,10.1604,10.1604,10.1788,10.1604,10.1494,10.1494,10.1494,10.1494,10.1494,10.1494,10.1494,10.1494,10.1494,10.1494,10.1494,10.1494,10.1494,10.1494,10.1494,10.1494,10.1494,10.1494,10.1494,10.1494,10.1494,10.1494,10.1494,10.1494,10.1494,10.1494,10.1494,10.1494,10.1494,10.1494,10.1494,10.1494,10.1494,10.1494,10.1494,10.1494,10.131,10.1274,10.1494,10.131,10.12,10.12,10.1384,10.1384,10.098,9.9879,9.9255,9.9695,9.9181,9.9071,9.9659,10.0283,10.0576,10.0576,10.12,10.1384,10.12,10.1384,10.1274,10.0907,10.1274,10.1384,10.12,10.1384,10.1494,10.1494,10.1494,10.1494,7.7304,7.7965,7.8479,7.8002,7.7892,7.7892,7.7892,7.7598,7.7304,7.7304,7.7304,7.7304,7.7304,7.7304,7.762,7.8479,7.9907,8.1808,8.4202,8.5822,8.9095,9.5321,9.6104,9.6458,9.7254,9.7252,9.6409,9.4584,9.4413,9.3691,9.2165,9.3706,9.4525,9.3978,9.6162,9.7637,9.8519,9.9874,10.0603,10.0603,10.1177,10.1494,10.1494,10.1494,10.1494,10.1494,10.1494,10.1494,10.1494,10.1494,10.1677,10.2081,10.2081,10.2081,10.2081,10.2081,10.1788,10.1494,10.1494,10.1494,10.1494,10.1494,10.1494,10.1494,10.1494,10.1494,10.1494,10.1494,10.1494,10.1494,10.1494,10.1494,10.1494,10.1494,10.1494,10.1494,10.1494,10.1494,10.1604,10.2008,10.1494,10.12,10.1898,10.1384,10.109,10.1384,10.1494,10.1494,10.1494,10.0393,9.9805,10.0283,9.9255,9.8888,9.9695,9.9769,10.0099,10.0796,10.1274,10.1494,10.1494,10.1494,10.1494,10.1494,10.109,10.109,10.1494,10.1494,10.1494,10.1494,10.1494,10.1494,7.7488,7.8222,7.8883,7.8516,7.8516,7.8552,7.8442,7.7855,7.7304,7.7304,7.7304,7.7304,7.7304,7.7291,7.7112,7.6705,7.8494,8.1953,8.7378,8.7728,8.9585,9.5668,9.5214,9.4681,9.5127,9.4737,9.3794,9.2408,9.199,9.2095,9.255,9.3246,9.3924,9.4639,9.6742,9.7402,9.6428,9.8702,9.9801,9.9801,10.1012,10.1494,10.1494,10.1604,10.1677,10.1677,10.1677,10.1677,10.1677,10.1567,10.1898,10.2522,10.2522,10.2522,10.2522,10.2522,10.2081,10.1494,10.1494,10.1494,10.1494,10.1494,10.1494,10.1494,10.1494,10.1494,10.1494,10.1494,10.1494,10.1494,10.1494,10.1494,10.1494,10.1494,10.1494,10.1494,10.1494,10.1604,10.1788,10.2412,10.1494,10.109,10.2301,10.1384,10.0686,10.1384,10.1494,10.1494,10.1494,10.0796,10.0319,10.0503,9.9145,9.8594,9.9402,9.9475,9.9989,10.1384,10.1494,10.1494,10.1494,10.1494,10.1494,10.1494,10.0796,10.0796,10.1494,10.1494,10.1494,10.1494,10.1494,10.1494,7.8222,7.9507,8.0131,7.8038,7.8075,7.8405,7.7671,7.7414,7.7304,7.7304,7.7304,7.7304,7.7304,7.7109,7.7679,7.9808,8.1734,8.4445,8.9059,8.9371,9.0695,9.4602,9.5982,9.6219,9.5294,9.4737,9.4037,9.3171,9.1542,9.0748,9.1228,9.14,9.2285,9.4172,9.5166,9.5887,9.6428,9.9578,10.1177,10.1177,10.1376,10.1494,10.1494,10.2191,10.2522,10.2522,10.2522,10.2522,10.2485,10.1788,10.1567,10.1677,10.1677,10.1677,10.1677,10.1677,10.1604,10.1494,10.1494,10.1494,10.1494,10.1494,10.1494,10.1494,10.1494,10.1494,10.1494,10.1494,10.1494,10.1494,10.1494,10.1494,10.1494,10.1494,10.1494,10.1494,10.1494,10.2008,10.2375,10.1788,10.2008,10.2191,10.1788,10.1494,10.1384,10.1494,10.1494,10.1494,10.1494,10.0796,10.0576,10.12,10.0503,10.0283,10.109,10.109,10.12,10.1494,10.1494,10.1494,10.1494,10.1494,10.1494,10.1494,10.1384,10.1384,10.1494,10.1494,10.1494,10.1494,10.1494,10.1494,7.6497,7.7781,7.8846,7.8185,7.9286,8.0204,7.8956,7.8332,7.7892,7.7414,7.7304,7.7451,7.7928,7.8967,8.0503,8.2677,8.2892,8.4308,8.8234,8.8383,8.9765,9.4295,9.4277,9.4167,9.4535,9.3415,9.2527,9.2219,9.0639,9.0385,9.2095,9.2235,9.3366,9.5734,9.6915,9.7801,9.8519,10.049,10.1058,10.036,10.1213,10.1494,10.1494,10.1898,10.2081,10.2081,10.2081,10.2081,10.2008,10.1677,10.1788,10.2118,10.2118,10.2118,10.2081,10.1677,10.1494,10.1494,10.1494,10.1494,10.1494,10.1494,10.1494,10.1494,10.1494,10.1494,10.1494,10.1494,10.1494,10.1494,10.1494,10.1494,10.1494,10.1494,10.1494,10.1494,10.1494,10.1788,10.2081,10.2081,10.2081,10.2081,10.2118,10.1788,10.1494,10.1494,10.1494,10.1494,10.1494,10.12,10.109,10.1494,10.0796,10.0613,10.1384,10.109,10.098,10.1494,10.1494,10.1494,10.1494,10.1494,10.1494,10.1494,10.1494,10.1494,10.1494,10.1494,10.1494,10.1494,10.1494,10.1494,7.5432,7.6533,7.7781,7.8442,8.0131,8.1452,8.0791,8.0021,7.9323,7.8846,7.8589,7.8589,7.9066,8.1452,8.366,8.4562,8.469,8.5677,8.8654,8.8637,8.9807,9.3891,9.2954,9.236,9.33,9.2138,9.1372,9.1541,9.0629,9.1172,9.359,9.4038,9.54,9.7789,9.9071,10.0009,10.0613,10.12,10.1012,9.9977,10.0975,10.1494,10.1494,10.1677,10.1788,10.1788,10.1788,10.1788,10.1788,10.1567,10.1898,10.2412,10.2412,10.2412,10.2301,10.1677,10.1494,10.1494,10.1494,10.1494,10.1494,10.1494,10.1494,10.1494,10.1494,10.1494,10.1494,10.1494,10.1494,10.1494,10.1494,10.1494,10.1494,10.1494,10.1494,10.1494,10.1494,10.1604,10.1898,10.2301,10.2081,10.1898,10.2301,10.1898,10.1494,10.1494,10.1494,10.1494,10.1494,10.1494,10.1494,10.1494,10.0907,10.0796,10.1384,10.0907,10.0796,10.1494,10.1494,10.1494,10.1494,10.1494,10.1494,10.1494,10.1677,10.1788,10.1788,10.1971,10.1971,10.1788,10.1751,10.1677,7.6937,7.7818,7.8516,7.8589,7.9286,8.0534,8.2663,8.2517,8.2113,8.2847,8.237,8.1636,8.0938,8.4022,8.6247,8.5002,8.8255,9.1559,9.3057,9.2814,9.2565,9.2955,9.3448,9.3234,9.1636,9.1352,9.1575,9.2286,9.2791,9.3624,9.5003,9.6271,9.7861,9.9976,10.0239,10.0606,10.1384,10.1494,10.1531,10.1413,10.1531,10.1494,10.1494,10.2301,10.2595,10.2595,10.2595,10.2595,10.2595,10.1788,10.1494,10.1604,10.1604,10.1604,10.1567,10.1494,10.1494,10.1494,10.1494,10.1494,10.1494,10.1494,10.1494,10.1494,10.1494,10.1494,10.1494,10.1494,10.1494,10.1494,10.1494,10.1494,10.1494,10.1494,10.1494,10.1494,10.1494,10.2081,10.2412,10.1677,10.2118,10.2412,10.1677,10.1494,10.1494,10.1494,10.1494,10.1494,10.1494,10.1494,10.1494,10.1494,10.1384,10.1384,10.1494,10.1384,10.1384,10.1494,10.1494,10.1494,10.1494,10.1494,10.1494,10.1494,10.2191,10.2595,10.2595,10.3403,10.3329,10.2632,10.2603,10.2199,7.4992,7.5689,7.668,7.8222,7.9176,8.0277,8.2223,8.281,8.3177,8.3985,8.3911,8.3911,8.4609,8.6101,8.7606,8.8613,9.0802,9.2377,9.2092,9.1888,9.1766,9.1766,9.1681,9.184,9.2413,9.2482,9.2791,9.3546,9.4182,9.5313,9.7079,9.7695,9.8917,10.1017,10.098,10.12,10.1494,10.1494,10.1494,10.1494,10.1494,10.1494,10.1494,10.1788,10.1971,10.1971,10.1971,10.1971,10.1898,10.1604,10.1494,10.1494,10.1494,10.1494,10.1494,10.1494,10.1494,10.1494,10.1494,10.1494,10.1494,10.1494,10.1494,10.1494,10.1494,10.1494,10.1494,10.1494,10.1494,10.1494,10.1494,10.1898,10.2191,10.2191,10.2191,10.2191,10.2191,10.2081,10.1898,10.1567,10.2118,10.2412,10.1604,10.1898,10.2081,10.1567,10.1494,10.1494,10.1494,10.1494,10.1494,10.1494,10.1494,10.1494,10.1494,10.1494,10.1494,10.1494,10.1494,10.1494,10.1494,10.2008,10.2191,10.2191,10.2999,10.3403,10.3403,10.3815,10.366,10.3403,10.2897,10.2536,7.4074,7.4661,7.5689,7.7378,7.8993,8.0681,8.2517,8.3985,8.5306,8.6591,8.6261,8.6004,8.6848,8.7815,8.8993,9.074,9.2432,9.3363,9.2896,9.2418,9.2259,9.2259,9.2059,9.2548,9.3659,9.4077,9.453,9.5262,9.6126,9.7237,9.8578,9.9093,10.002,10.1494,10.1494,10.1494,10.1494,10.1494,10.1494,10.1494,10.1494,10.1494,10.1494,10.1494,10.1494,10.1494,10.1494,10.1494,10.1494,10.1494,10.1494,10.1494,10.1494,10.1494,10.1494,10.1494,10.1494,10.1494,10.1494,10.1494,10.1494,10.1494,10.1494,10.1494,10.1494,10.1494,10.1494,10.1494,10.1494,10.1494,10.1494,10.1898,10.2301,10.2301,10.2301,10.2301,10.2301,10.1898,10.1494,10.1494,10.1898,10.2118,10.1604,10.1971,10.2081,10.1567,10.1494,10.1494,10.1494,10.1494,10.1494,10.1494,10.1494,10.1494,10.1494,10.1494,10.1494,10.1494,10.1677,10.1898,10.1898,10.2412,10.2815,10.3109,10.388,10.4284,10.4284,10.4623,10.4467,10.432,10.3513,10.2933,7.4918,7.5469,7.6093,7.613,7.8589,8.1672,8.4095,8.6481,8.8904,9.1326,8.9895,8.7986,8.7215,8.9014,9.0629,9.0629,9.2933,9.5265,9.6531,9.5586,9.4806,9.4806,9.5491,9.5809,9.5223,9.5906,9.6747,9.7428,9.8785,9.9497,9.9497,10.0808,10.1494,10.1494,10.1494,10.1494,10.1494,10.1494,10.1494,10.1494,10.1494,10.1494,10.1494,10.1494,10.1494,10.1494,10.1494,10.1494,10.1494,10.1494,10.1494,10.1494,10.1494,10.1494,10.1494,10.1494,10.1494,10.1494,10.1494,10.1494,10.1494,10.1494,10.1494,10.1494,10.1494,10.1494,10.1494,10.1494,10.1494,10.1494,10.1494,10.1494,10.1494,10.1494,10.1494,10.1494,10.1494,10.1494,10.1494,10.1494,10.1494,10.1494,10.1494,10.1494,10.1494,10.1494,10.1494,10.1494,10.1494,10.1494,10.1494,10.1494,10.1494,10.1494,10.1494,10.1494,10.1494,10.1494,10.2301,10.2705,10.2705,10.2705,10.3109,10.388,10.4724,10.5128,10.5128,10.6009,10.6046,10.507,10.4289,10.354,7.4221,7.5065,7.6387,7.7561,8.0277,8.3471,8.6444,8.8133,8.9895,9.2941,9.2097,9.0702,9.0445,9.1473,9.2354,9.2354,9.4512,9.5947,9.5467,9.5012,9.4639,9.4331,9.4488,9.5071,9.5967,9.7087,9.7837,9.8052,9.9861,10.0673,10.0088,10.1002,10.1494,10.1494,10.1494,10.1494,10.1494,10.1494,10.1494,10.1494,10.1494,10.1494,10.1494,10.1494,10.1494,10.1494,10.1494,10.1494,10.1494,10.1494,10.1494,10.1494,10.1494,10.1494,10.1494,10.1494,10.1494,10.1494,10.1494,10.1494,10.1494,10.1494,10.1494,10.1494,10.1494,10.1494,10.1494,10.1494,10.1494,10.1494,10.1494,10.1494,10.1604,10.2191,10.2301,10.2301,10.2301,10.1898,10.1494,10.1494,10.1971,10.2191,10.1604,10.2008,10.2191,10.1604,10.1494,10.1494,10.1494,10.1494,10.1494,10.1494,10.1494,10.1494,10.1494,10.1494,10.1494,10.1494,10.2301,10.2705,10.2705,10.3806,10.4504,10.4724,10.5605,10.6009,10.6009,10.6302,10.6302,10.6046,10.463,10.3797,7.5175,7.657,7.8369,7.969,8.2443,8.5857,8.9748,9.0996,9.2097,9.4703,9.3969,9.2831,9.2794,9.3235,9.3675,9.4006,9.5547,9.6526,9.6068,9.5767,9.5591,9.559,9.5862,9.6545,9.7803,9.873,9.9256,9.9547,10.0546,10.098,10.0796,10.12,10.1494,10.1494,10.1494,10.1494,10.1494,10.1494,10.1494,10.1494,10.1494,10.1494,10.1494,10.1494,10.1494,10.1494,10.1494,10.1494,10.1494,10.1494,10.1494,10.1494,10.1494,10.1494,10.1494,10.1494,10.1494,10.1494,10.1494,10.1494,10.1494,10.1494,10.1494,10.1494,10.1494,10.1494,10.1494,10.1494,10.1494,10.1494,10.1494,10.1494,10.1604,10.2081,10.2191,10.2191,10.2191,10.1788,10.1494,10.1494,10.1898,10.2081,10.1567,10.1898,10.2081,10.1567,10.1494,10.1494,10.1494,10.1494,10.1494,10.1494,10.1494,10.1494,10.1494,10.1494,10.1494,10.1494,10.2301,10.2815,10.3182,10.443,10.5311,10.5605,10.6119,10.6376,10.6376,10.6376,10.6229,10.5851,10.4472,10.3724,7.7011,7.914,8.1342,8.2296,8.5049,8.8757,9.3345,9.4446,9.496,9.6502,9.5658,9.463,9.4703,9.474,9.496,9.5694,9.6428,9.7163,9.7897,9.7383,9.7236,9.8007,9.8778,9.9548,10.0319,10.0393,10.0686,10.1384,10.0796,10.0686,10.1494,10.1494,10.1494,10.1494,10.1494,10.1494,10.1494,10.1494,10.1494,10.1494,10.1494,10.1494,10.1494,10.1494,10.1494,10.1494,10.1494,10.1494,10.1494,10.1494,10.1494,10.1494,10.1494,10.1494,10.1494,10.1494,10.1494,10.1494,10.1494,10.1494,10.1494,10.1494,10.1494,10.1494,10.1494,10.1494,10.1494,10.1494,10.1494,10.1494,10.1494,10.1494,10.1494,10.1604,10.1567,10.1494,10.1494,10.1494,10.1494,10.1494,10.1494,10.1494,10.1494,10.1494,10.1494,10.1494,10.1494,10.1494,10.1494,10.1494,10.1494,10.1494,10.1494,10.1494,10.1494,10.1494,10.1494,10.1494,10.2301,10.2999,10.3806,10.4614,10.5495,10.6376,10.6376,10.6376,10.6376,10.6302,10.5851,10.507,10.4179,10.343,7.6313,7.9103,8.2443,8.4499,8.8426,9.2391,9.4703,9.5731,9.6465,9.7419,9.7346,9.7309,9.797,9.808,9.8117,9.83,9.8484,9.8631,9.8814,9.8704,9.8888,9.9695,9.9952,10.0393,10.12,10.12,10.1274,10.1494,10.131,10.1274,10.1494,10.1494,10.1494,10.1494,10.1494,10.1494,10.1494,10.1494,10.1494,10.1494,10.1494,10.1494,10.1494,10.1494,10.1494,10.1494,10.1494,10.1494,10.1494,10.1494,10.1494,10.1494,10.1494,10.1494,10.1494,10.1494,10.1494,10.1494,10.1494,10.1494,10.1494,10.1494,10.1494,10.1494,10.1494,10.1494,10.1494,10.1494,10.1494,10.1494,10.1494,10.1494,10.1677,10.2301,10.1971,10.1494,10.1494,10.1494,10.1494,10.1494,10.1494,10.1494,10.1494,10.1494,10.1494,10.1494,10.1494,10.1494,10.1494,10.1494,10.1494,10.1494,10.1494,10.1494,10.1494,10.1494,10.1494,10.1494,10.2301,10.2815,10.2999,10.432,10.5495,10.6376,10.6376,10.6376,10.6376,10.5704,10.5338,10.507,10.3623,10.2897,7.7561,8.0534,8.4315,8.828,9.1803,9.4593,9.5804,9.6392,9.7052,9.8227,9.8484,9.8594,9.9035,9.9108,9.9255,9.9622,9.9365,9.9255,9.9622,9.9365,9.9126,9.9328,9.9317,9.9438,9.9604,9.9262,9.9455,10.0482,9.9615,9.9491,10.0482,9.9889,9.9587,9.9587,10.0188,10.0445,10.0445,10.1213,10.1494,10.1494,10.1494,10.1494,10.1494,10.1494,10.1494,10.1494,10.1494,10.1494,10.1494,10.1494,10.1494,10.1494,10.1494,10.1494,10.1494,10.1494,10.1494,10.1494,10.1494,10.1494,10.1494,10.1494,10.1494,10.1494,10.1494,10.1494,10.1494,10.1494,10.1494,10.1494,10.1494,10.1788,10.2191,10.2595,10.2081,10.1604,10.2008,10.1788,10.1494,10.1494,10.1494,10.1494,10.1494,10.1494,10.1494,10.1494,10.1494,10.1494,10.1494,10.1494,10.1494,10.1494,10.1494,10.1494,10.1494,10.1494,10.1494,10.1494,10.1898,10.2301,10.2705,10.3513,10.4504,10.5789,10.6192,10.6229,10.5778,10.5338,10.4714,10.3917,10.308,10.2536,7.8736,8.2333,8.6701,9.1987,9.463,9.6061,9.6575,9.6906,9.7493,9.8851,9.9108,9.9181,9.9475,9.9512,9.9732,10.0393,9.9952,9.9769,10.0393,9.9916,9.9257,9.8576,9.8523,9.8196,9.7562,9.6932,9.7216,9.9062,9.7516,9.7313,9.9062,9.8085,9.7499,9.7499,9.8785,9.9497,9.9497,10.0772,10.1494,10.1494,10.1494,10.1384,10.1274,10.1384,10.1494,10.1494,10.1494,10.1494,10.1494,10.1494,10.1494,10.1494,10.1494,10.1494,10.1494,10.1494,10.1494,10.1494,10.1494,10.134,10.1213,10.1213,10.1213,10.1213,10.1213,10.1258,10.1494,10.1494,10.1494,10.1494,10.1494,10.2008,10.2522,10.2705,10.1881,10.1433,10.2239,10.1726,10.1213,10.1213,10.134,10.1494,10.1494,10.1494,10.1494,10.1494,10.1494,10.1494,10.1494,10.1494,10.1494,10.1494,10.1494,10.1494,10.1494,10.1494,10.1494,10.1494,10.1494,10.1788,10.2485,10.2595,10.3329,10.4724,10.5532,10.5594,10.4887,10.4813,10.3981,10.272,10.261,10.2089,7.7194,8.3104,8.9638,9.3235,9.5878,9.7419,9.6832,9.7787,9.8851,9.9071,9.9108,9.9548,10.0907,10.12,10.12,10.1274,10.12,10.12,10.1274,10.12,10.0683,9.9532,9.9353,9.8898,9.7598,9.7428,9.7491,9.7696,9.7527,9.7491,9.7696,9.7598,9.7499,9.7499,9.8785,9.9497,9.9497,10.0772,10.1494,10.1494,10.1494,10.109,10.0503,10.12,10.1494,10.1494,10.1494,10.1494,10.1494,10.1494,10.1494,10.1494,10.1494,10.1494,10.1494,10.1494,10.1494,10.1494,10.1494,10.0651,9.9801,9.9801,9.9801,9.9801,9.9801,10.0603,10.1494,10.1494,10.1494,10.1494,10.1494,10.1567,10.1788,10.2522,10.1186,10.0018,10.0814,10.0344,9.9801,9.9801,10.0688,10.1494,10.1494,10.1494,10.1494,10.1494,10.1494,10.1494,10.1494,10.1494,10.1494,10.1494,10.1494,10.1494,10.1494,10.1494,10.1494,10.1494,10.1494,10.1494,10.1677,10.2301,10.2815,10.3036,10.3797,10.4154,10.4106,10.34,10.2944,10.272,10.2015,10.1567,7.9543,8.4646,8.9638,9.3382,9.5437,9.6685,9.7236,9.7933,9.8668,9.9585,9.9769,10.0099,10.1274,10.1494,10.1494,10.1494,10.1494,10.1258,10.0482,10.0396,9.9587,9.7499,9.7299,9.6725,9.5453,9.5343,9.5635,9.6345,9.5743,9.5635,9.631,9.5743,9.5343,9.5343,9.7335,9.8408,9.8408,10.0518,10.1274,10.0796,10.0796,10.0393,9.9659,10.0503,10.109,10.1494,10.1494,10.1494,10.1494,10.1494,10.1494,10.1494,10.1494,10.1494,10.1494,10.1494,10.1494,10.1494,10.1494,10.0567,9.9497,9.9497,9.9497,9.9497,9.9497,10.036,10.1494,10.1494,10.1494,10.1494,10.1494,10.1341,10.1124,10.1524,10.0309,9.8966,9.8632,9.846,9.8597,9.9371,10.0603,10.1494,10.1494,10.1494,10.1494,10.1494,10.1494,10.1494,10.1494,10.1494,10.1494,10.1494,10.1494,10.1677,10.2081,10.1788,10.1898,10.2779,10.2412,10.2191,10.2191,10.2522,10.2522,10.2008,10.3284,10.3714,10.3253,10.2876,10.2495,10.2015,10.1677,10.1494,8.0571,8.4389,8.7655,9.173,9.3969,9.5511,9.6685,9.7603,9.8557,9.9769,10.0209,10.0503,10.1384,10.1494,10.1494,10.1494,10.1177,10.0651,9.9587,9.9189,9.8121,9.5743,9.5527,9.5013,9.3655,9.3571,9.3971,9.4971,9.4168,9.3971,9.4936,9.4053,9.3571,9.3571,9.6135,9.7499,9.7499,10.0224,10.109,10.0283,10.0283,9.9879,9.9145,9.9732,10.0393,10.12,10.1384,10.1494,10.1494,10.1494,10.1494,10.1494,10.1494,10.1494,10.1494,10.1494,10.1494,10.1531,10.1095,10.0064,9.8913,9.8597,9.8691,9.9006,9.9006,10.0224,10.1494,10.1494,10.1332,10.0975,10.0975,10.0412,9.9904,9.9904,9.8878,9.7672,9.6719,9.7043,9.783,9.8785,10.0324,10.1494,10.1494,10.1494,10.1567,10.1788,10.1788,10.1788,10.1788,10.1971,10.2008,10.1788,10.1971,10.2375,10.2999,10.2485,10.2595,10.3806,10.3293,10.2999,10.2999,10.2815,10.2412,10.1831,10.2815,10.2981,10.2375,10.2375,10.2138,10.1494,10.1494,10.1494,7.7708,8.0645,8.3471,8.7509,9.1473,9.4373,9.4446,9.6832,9.9071,9.9145,9.9769,10.0503,10.1384,10.1494,10.1494,10.1494,10.036,9.9587,9.9497,9.8408,9.7133,9.5635,9.5527,9.5013,9.3655,9.3571,9.3571,9.3689,9.3689,9.3571,9.3689,9.3689,9.3571,9.3571,9.6135,9.7499,9.7499,10.0224,10.109,10.0283,10.0283,9.9879,9.9108,9.9145,9.9622,10.0393,10.12,10.1494,10.1494,10.1494,10.1494,10.1494,10.1494,10.1494,10.1494,10.1494,10.1494,10.1258,9.9941,9.8691,9.7399,9.61,9.6622,9.7598,9.7598,9.9407,10.1494,10.1494,10.0603,9.9587,9.9587,9.8633,9.7668,9.7668,9.6657,9.567,9.5561,9.6657,9.7499,9.7598,9.9676,10.1494,10.1494,10.1494,10.1788,10.2522,10.2595,10.2595,10.2595,10.3293,10.3513,10.2705,10.3293,10.3806,10.3806,10.3806,10.3806,10.388,10.388,10.3806,10.3806,10.3109,10.2669,10.261,10.2015,10.1604,10.1604,10.1604,10.1494,10.1494,10.1494,10.1494,7.6827,7.9176,8.1489,8.5013,8.8536,9.1583,9.3161,9.5621,9.8007,9.9548,10.0099,10.0503,10.1384,10.1494,10.1177,10.0433,10.0199,9.9488,9.727,9.6939,9.6298,9.4545,9.4249,9.4053,9.3689,9.3571,9.3571,9.3571,9.3571,9.3571,9.3571,9.3571,9.3571,9.3571,9.5343,9.6997,9.8785,10.0603,10.0399,9.8348,9.9155,9.846,9.6375,9.8241,9.9255,9.9622,10.0907,10.1494,10.1494,10.1494,10.1494,10.1494,10.1494,10.1494,10.1494,10.1494,10.1494,10.1295,9.9977,9.8597,9.7399,9.6895,9.7098,9.7696,9.8503,10.0137,10.1258,10.0518,10.0163,9.9929,9.8551,9.7587,9.6691,9.5262,9.4669,9.4693,9.6076,9.6973,9.7696,9.8597,10.031,10.1494,10.1494,10.1898,10.2191,10.1971,10.2815,10.3293,10.2815,10.3403,10.3806,10.3513,10.3696,10.41,10.4614,10.421,10.4394,10.5385,10.5018,10.4687,10.4651,10.4357,10.3815,10.272,10.2346,10.2015,10.1494,10.1494,10.1494,10.1494,10.1494,10.1494,7.4955,7.69,7.8993,8.2517,8.5196,8.7986,9.1803,9.4116,9.6318,9.9292,10.0099,10.0423,10.0783,10.0772,10.0445,9.9676,9.9157,9.8101,9.5777,9.5572,9.5138,9.3723,9.3571,9.3571,9.3571,9.3571,9.347,9.3199,9.3436,9.347,9.3199,9.3436,9.3772,9.4283,9.5013,9.6482,9.839,9.9367,9.8715,9.6545,9.7196,9.6593,9.5239,9.7159,9.846,9.9181,10.0503,10.1274,10.1494,10.1494,10.1494,10.1494,10.1494,10.1494,10.1494,10.1494,10.1177,10.0567,9.928,9.8217,9.7435,9.7032,9.7399,9.8313,9.9189,10.0064,10.0724,10.0074,9.9573,9.9029,9.7877,9.6997,9.6075,9.4654,9.4719,9.5595,9.7419,9.788,9.8354,10.0037,10.1405,10.2301,10.2301,10.2705,10.2999,10.2705,10.3586,10.41,10.3623,10.421,10.4614,10.432,10.4577,10.4981,10.5495,10.5018,10.5201,10.6302,10.5899,10.5495,10.5458,10.5018,10.4247,10.3109,10.2603,10.2015,10.1494,10.1494,10.1494,10.1494,10.1494,10.1494,0.0,0.0,0.0,7.98,8.1452,8.3728,9.0041,9.2207,9.4006,9.808,9.9548,9.9997,9.9584,9.9497,9.9407,9.9407,9.7234,9.5561,9.5418,9.4397,9.3605,9.3571,9.3571,9.3571,9.3571,9.3571,9.3267,9.2522,9.3165,9.3267,9.2489,9.3165,9.4134,9.5418,9.5418,9.5716,9.6366,9.633,9.6038,9.5162,9.4454,9.4759,9.5961,9.6033,9.7137,9.9181,9.9989,10.0796,10.1494,10.1494,10.1494,10.1494,10.1494,10.1494,10.1494,10.1531,10.0567,9.928,9.7927,9.7399,9.7199,9.5922,9.7299,9.9407,9.9497,9.9497,9.9587,10.0289,9.8738,9.6947,9.7564,9.6851,9.5804,9.5804,9.6932,9.8254,9.9634,9.9405,9.9448,10.1643,10.2972,10.388,10.388,10.388,10.421,10.5018,10.5128,10.5128,10.5128,10.5899,10.6082,10.5201,10.5899,10.6376,10.6376,10.6376,10.6376,10.6376,10.6376,10.6376,10.6376,10.4813,10.3923,10.3923,10.2293,10.1494,10.1494,10.1494,10.1494,10.1494,10.1494,10.1494,7.2055,0.0,0.0,0.0,0.0,0.0,8.3324,8.5527,8.8426,9.3675,9.4634,9.5685,9.9349,9.8239,9.693,9.7927,9.7113,9.5779,9.4351,9.4247,9.4214,9.3639,9.3571,9.3571,9.3571,9.3571,9.3503,9.3267,9.347,9.347,9.3267,9.2928,9.3196,9.4053,9.4496,9.4805,9.4983,9.597,9.53,9.3132,9.4348,9.4787,9.4666,9.6761,9.8481,9.9989,10.0796,10.1274,10.1494,10.1494,10.1494,10.1494,10.1494,10.1494,10.1413,10.0396,9.9801,9.9189,9.6895,9.5994,9.6135,9.6725,9.6793,9.6997,9.8878,9.9215,9.8753,9.7953,9.8015,9.81,9.737,9.6503,9.5804,9.5804,9.6932,9.8393,10.0444,10.1382,10.2183,10.3168,10.3557,10.388,10.388,10.4394,10.4614,10.4284,10.5311,10.5789,10.5201,10.5899,10.6302,10.6082,10.6302,10.6376,10.6376,10.6376,10.6376,10.6376,10.6376,10.6376,10.6376,10.5338,10.4494,10.3934,10.2941,10.2089,10.1494,10.1494,10.1494,10.1494,10.1494,10.1494,7.1762,7.2826,7.3927,7.4955,0.0,0.0,8.2517,8.4058,8.6407,9.2794,9.3837,9.4713,9.8308,9.7402,9.6352,9.6869,9.7004,9.6264,9.3957,9.3977,9.4079,9.3639,9.3571,9.3571,9.3571,9.3571,9.3436,9.3131,9.3098,9.2962,9.2658,9.2218,9.2319,9.3064,9.3441,9.3614,9.3614,9.4383,9.3794,9.1829,9.3032,9.3623,9.3811,9.6376,9.8217,9.9557,10.0929,10.1494,10.1494,10.1494,10.1494,10.1494,10.1494,10.1494,10.1258,9.9977,9.9098,9.8408,9.6205,9.5492,9.5635,9.6415,9.6519,9.6657,9.8609,9.8547,9.785,9.7687,9.801,9.8308,9.757,9.7022,9.6805,9.7422,9.8671,10.0166,10.2039,10.3481,10.4575,10.4934,10.4908,10.4908,10.4908,10.5311,10.5495,10.4981,10.5789,10.6192,10.5715,10.6082,10.6376,10.6376,10.6376,10.6376,10.6376,10.6376,10.6376,10.6376,10.6376,10.6376,10.6376,10.5594,10.4724,10.3948,10.3051,10.2272,10.1494,10.1494,10.1494,10.1494,10.1494,10.1494,7.1578,7.2679,0.0,7.6497,7.6093,0.0,8.4168,8.4829,8.5857,9.2648,9.4004,9.439,9.5978,9.6126,9.6006,9.5628,9.6401,9.6342,9.4134,9.3971,9.3889,9.3689,9.3757,9.3908,9.3706,9.3774,9.3503,9.2725,9.259,9.2252,9.1575,9.1474,9.1778,9.2522,9.2455,9.2421,9.2421,9.2353,9.1913,9.1169,9.1271,9.1997,9.3309,9.5488,9.7278,9.8523,10.0563,10.1494,10.1494,10.1494,10.1494,10.1494,10.1494,10.1376,10.1095,9.9801,9.8408,9.7133,9.5708,9.5309,9.5309,9.5418,9.624,9.7274,9.8187,9.7569,9.6857,9.8376,9.8445,9.8003,9.8003,9.8003,9.8303,9.9792,10.1178,10.2655,10.3976,10.5449,10.6376,10.6376,10.6376,10.6376,10.6376,10.6376,10.6376,10.6376,10.6376,10.6376,10.6376,10.6376,10.6376,10.6376,10.6376,10.6376,10.6376,10.6376,10.6376,10.6376,10.6376,10.6376,10.6376,10.5594,10.4724,10.3904,10.3014,10.2199,10.1494,10.1494,10.1494,10.1494,10.1494,10.1494,7.323,7.3927,7.4808,7.5249,7.613,0.0,7.8002,7.9029,8.0718,8.4095,8.4463,8.5511,9.008,9.0216,9.0036,9.1004,9.3079,9.4719,9.5101,9.6029,9.5957,9.3889,9.5138,9.5708,9.4603,9.5026,9.506,9.4315,9.3706,9.33,9.3131,9.2556,9.2556,9.3334,9.2759,9.2421,9.2421,9.1812,9.1135,9.0425,9.1034,9.1997,9.3415,9.6051,9.7968,9.937,10.0783,10.1494,10.1494,10.1494,10.1494,10.1494,10.1494,10.0772,9.9712,9.8408,9.7032,9.5743,9.4477,9.3971,9.4168,9.5124,9.4936,9.4727,9.6497,9.6519,9.6317,9.7813,9.8113,9.8003,9.8003,9.8003,9.8303,9.9792,10.1178,10.2619,10.3976,10.5449,10.6376,10.6376,10.6376,10.6376,10.6376,10.6376,10.6376,10.6376,10.6376,10.6376,10.6376,10.6376,10.6376,10.6376,10.6376,10.6376,10.6376,10.6376,10.6376,10.6376,10.6376,10.6376,10.6376,10.5594,10.4703,10.3897,10.2522,10.1677,10.1494,10.1494,10.1494,10.1494,10.1494,10.1494,7.4404,7.4882,7.5616,7.6019,7.6423,0.0,0.0,7.8883,7.9984,8.281,8.3212,8.4026,8.7515,8.7769,8.8238,9.0534,9.2672,9.4319,9.5046,9.5945,9.5882,9.4281,9.5331,9.5633,9.4231,9.5054,9.5068,9.3605,9.3233,9.2827,9.2455,9.2083,9.2218,9.2996,9.2624,9.2624,9.2996,9.2252,9.188,9.188,9.188,9.2475,9.3572,9.6272,9.7927,9.8597,10.0567,10.1494,10.1494,10.1494,10.1095,10.0482,10.0482,10.0101,9.928,9.7234,9.6135,9.5309,9.4087,9.3571,9.3757,9.4807,9.4631,9.4434,9.6276,9.681,9.7056,9.78,9.8003,9.8003,9.8003,9.8546,9.9362,10.0815,10.2172,10.3615,10.4981,10.5874,10.6376,10.6376,10.6376,10.6376,10.6376,10.6376,10.6376,10.6376,10.6376,10.6376,10.6376,10.6376,10.6376,10.6376,10.6376,10.6376,10.6376,10.6376,10.6376,10.6376,10.6376,10.6376,10.6376,10.6046,10.5154,10.388,10.2713,10.1905,10.1494,10.1494,10.1494,10.1494,10.1494,10.1494,7.6313,7.679,7.7561,7.7745,7.7635,7.8002,0.0,0.0,0.0,8.2737,8.3214,8.3654,8.5123,8.5527,8.6518,8.9344,9.1546,9.3005,9.3218,9.3994,9.4493,9.458,9.5418,9.5569,9.4443,9.491,9.4634,9.3087,9.2334,9.1894,9.1727,9.1521,9.1778,9.2387,9.2556,9.2928,9.3571,9.2793,9.2725,9.3334,9.2725,9.2842,9.3848,9.638,9.7598,9.8024,10.0445,10.1494,10.1494,10.1494,10.0688,9.9497,9.9497,9.9189,9.8503,9.6345,9.5343,9.5013,9.3971,9.3571,9.3706,9.4451,9.489,9.5364,9.6514,9.7428,9.8003,9.8003,9.8003,9.8003,9.8003,9.8839,10.0066,10.1752,10.3059,10.4427,10.6047,10.6376,10.6376,10.6376,10.6376,10.6376,10.6376,10.6376,10.6376,10.6376,10.6376,10.6376,10.6376,10.6376,10.6376,10.6376,10.6376,10.6376,10.6376,10.6376,10.6376,10.6376,10.6376,10.6376,10.6376,10.6229,10.5348,10.3897,10.3088,10.2272,10.1494,10.1494,10.1494,10.1494,10.1494,10.1494,8.0534,8.1415,8.2076,8.0021,8.1048,8.1746,7.8479,0.0,7.947,7.8369,0.0,7.8442,7.9396,0.0,0.0,8.2076,8.538,8.7888,8.8122,8.9558,9.139,9.3686,9.6305,9.7658,9.7063,9.5507,9.4691,9.513,9.2191,9.1193,9.2847,9.2532,9.2319,9.2421,9.3098,9.3503,9.3571,9.2793,9.2455,9.2556,9.2455,9.3043,9.4341,9.6512,9.8121,9.9407,10.0929,10.1494,10.1494,10.1494,10.0688,9.9497,9.9497,9.8085,9.5887,9.5635,9.4747,9.3772,9.3689,9.3571,9.3706,9.4451,9.5567,9.665,9.6819,9.7428,9.8003,9.8003,9.8003,9.8003,9.8003,9.8126,9.8958,10.1575,10.2276,10.3195,10.5838,10.6376,10.6376,10.6376,10.6376,10.6376,10.6376,10.6376,10.6376,10.6376,10.6376,10.6376,10.6376,10.6376,10.6376,10.6376,10.6376,10.6376,10.6376,10.6376,10.6376,10.6376,10.6376,10.6376,10.6376,10.5704,10.4777,10.3886,10.3072,10.2272,10.1494,10.1494,10.1494,10.1494,10.1494,10.1494,8.1929,8.2553,8.2957,8.0975,8.1269,8.1305,7.8662,7.8222,7.8148,7.7451,0.0,0.0,0.0,0.0,0.0,0.0,8.3214,8.5065,8.57,8.7558,8.9625,9.1551,9.2747,9.3668,9.432,9.3802,9.3506,9.3856,9.2928,9.2374,9.2476,9.3147,9.3201,9.2421,9.3165,9.3368,9.2928,9.259,9.2421,9.2421,9.2421,9.3327,9.5042,9.6754,9.8217,9.9587,10.0892,10.1494,10.1457,10.0724,9.9587,9.8313,9.7499,9.6484,9.5453,9.5149,9.4734,9.4282,9.4721,9.4857,9.4992,9.5736,9.6683,9.7529,9.7529,9.7766,9.8003,9.8003,9.8003,9.8003,9.8003,9.9279,10.0704,10.1858,10.342,10.4962,10.6133,10.6376,10.6376,10.6376,10.6376,10.6376,10.6376,10.6376,10.6376,10.6376,10.6376,10.6376,10.6376,10.6376,10.6376,10.6376,10.6376,10.6376,10.6376,10.6376,10.6376,10.6376,10.6376,10.6376,10.6376,10.6046,10.518,10.3923,10.3631,10.2794,10.1494,10.1494,10.1494,10.1494,10.1494,10.1494,8.4132,8.4609,8.4792,8.2296,8.1672,8.1085,7.8772,7.8295,7.8259,7.8038,7.8516,0.0,0.0,0.0,7.9176,8.0755,0.0,8.2957,8.3544,8.4939,8.6794,8.9064,9.0156,9.1297,9.252,9.2461,9.2595,9.32,9.292,9.2691,9.2735,9.3556,9.3601,9.2623,9.3263,9.33,9.2759,9.2725,9.2725,9.2725,9.2725,9.3895,9.6135,9.7032,9.8408,10.0101,10.1095,10.1494,10.1376,10.0137,9.8691,9.7435,9.6238,9.562,9.5203,9.4772,9.4823,9.5093,9.5601,9.5939,9.6176,9.6717,9.7394,9.8003,9.8003,9.8003,9.8003,9.8003,9.8003,9.8126,9.8425,10.01,10.1752,10.2619,10.4261,10.5924,10.6291,10.6376,10.6376,10.6376,10.6376,10.6376,10.6376,10.6376,10.6376,10.6376,10.6376,10.6376,10.6376,10.6376,10.6376,10.6376,10.6376,10.6376,10.6376,10.6376,10.6376,10.6376,10.6376,10.6376,10.6376,10.6376,10.5594,10.3923,10.3889,10.3051,10.1494,10.1494,10.1494,10.1494,10.1494,10.1494,8.8426,8.916,8.9234,8.4499,8.3324,8.2296,7.8295,7.9176,8.0681,7.9874,8.1599,8.2994,8.2186,8.2039,0.0,0.0,8.1048,0.0,0.0,8.0498,8.1856,8.6526,9.0593,9.3148,9.3398,9.216,9.2232,9.4453,9.1479,9.1051,9.4525,9.3735,9.3203,9.3203,9.3498,9.3571,9.3537,9.3537,9.3537,9.3537,9.3537,9.4936,9.7399,9.7499,9.8913,10.1457,10.1494,10.1494,10.1376,10.0137,9.8691,9.747,9.6865,9.588,9.4654,9.4687,9.5161,9.577,9.5804,9.6244,9.6853,9.6886,9.7394,9.8003,9.8003,9.8003,9.8003,9.8003,9.8003,9.8337,9.9676,10.01,10.085,10.3589,10.4297,10.467,10.6084,10.6376,10.6376,10.6376,10.6376,10.6376,10.6376,10.6376,10.6376,10.6376,10.6376,10.6376,10.6376,10.6376,10.6376,10.6376,10.6376,10.6376,10.6376,10.6376,10.6376,10.6376,10.6376,10.6376,10.6376,10.6376,10.5594,10.3923,10.3889,10.3051,10.1494,10.1494,10.1494,10.1494,10.1494,10.1494,9.0078,9.0555,9.0629,8.7399,8.538,8.3434,8.0424,8.0424,8.0938,8.0645,8.2113,8.3324,8.303,8.2553,8.1929,0.0,0.0,8.1232,0.0,7.9176,8.0388,8.4168,8.6775,8.8505,8.9165,9.0662,9.172,9.2012,9.1921,9.2211,9.3182,9.3819,9.3881,9.324,9.3773,9.369,9.2827,9.3334,9.3334,9.2827,9.4203,9.5815,9.7499,9.8408,9.9801,10.1494,10.1494,10.1494,10.1258,9.9098,9.7927,9.7335,9.5358,9.4685,9.4823,9.5804,9.6311,9.6582,9.7089,9.7428,9.7631,9.7631,9.78,9.8003,9.8003,9.8003,9.8003,9.8003,9.8003,9.8303,9.9792,10.085,10.1998,10.3916,10.5017,10.5838,10.6291,10.6376,10.6376,10.6376,10.6376,10.6376,10.6376,10.6376,10.6376,10.6376,10.6376,10.6376,10.6376,10.6376,10.6376,10.6376,10.6376,10.6376,10.6376,10.6376,10.6376,10.6376,10.6376,10.6376,10.6376,10.5778,10.4997,10.3923,10.3366,10.261,10.1494,10.1494,10.1494,10.1494,10.1494,10.1494,9.2134,9.2501,9.2537,9.0078,8.8096,8.604,8.3324,8.3361,8.3911,8.3618,8.4609,8.5637,8.593,8.4609,8.3214,0.0,0.0,8.1342,0.0,7.8589,7.969,8.2627,8.4389,8.6151,8.8096,8.9124,9.0041,9.0959,9.1253,9.1728,9.2598,9.3964,9.4553,9.4186,9.4735,9.4701,9.4179,9.4696,9.4696,9.4214,9.5572,9.6895,9.8217,9.9098,10.0151,10.1494,10.1494,10.1494,10.1295,9.8597,9.7499,9.7234,9.4864,9.4282,9.4823,9.577,9.6447,9.6954,9.7428,9.7766,9.8003,9.8003,9.8003,9.8003,9.8003,9.8003,9.8003,9.8003,9.8003,9.8425,10.0439,10.1539,10.2721,10.4614,10.5714,10.6376,10.6376,10.6376,10.6376,10.6376,10.6376,10.6376,10.6376,10.6376,10.6376,10.6376,10.6376,10.6376,10.6376,10.6376,10.6376,10.6376,10.6376,10.6376,10.6376,10.6376,10.6376,10.6376,10.6376,10.6376,10.6376,10.5851,10.5191,10.432,10.3448,10.272,10.1905,10.1567,10.1494,10.1494,10.1494,10.1494]},{"header":{"parameterUnit":"m.s-1","parameterCategory":1,"la1":30.6,"la2":29.2853,"lo1":-89.7004,"lo2":-87.6739,"dy":0.0162,"dx":0.0183,"nx":112,"ny":82,"refTime":"2026-05-02T12:00:00:Z","depth":0,"parameterNumber":3,"parameterNumberName":"V-component_of_WINDS"},"data":[0.0,0.0,0.0,0.0,0.0,0.0,0.0,0.0,0.0,0.0,0.0,0.0,0.0,0.0,0.0,0.0,0.0,0.0,0.0,0.0,0.0,0.0,0.0,0.0,0.0,0.0,0.0,0.0,0.0,0.0,0.0,0.0,0.0,0.0,0.0,0.0,0.0,0.0,0.0,0.0,0.0,0.0,0.0,0.0,0.0,0.0,0.0,0.0,0.0,0.0,0.0,0.0,0.0,0.0,0.0,0.0,0.0,0.0,0.0,0.0,0.0,0.0,0.0,0.0,0.0,0.0,0.0,0.0,0.0,0.0,0.0,0.0,0.0,0.0,0.0,0.0,0.0,0.0,0.0,0.0,0.0,0.0,0.0,0.0,0.0,0.0,0.0,0.0,0.0,0.0,1.2435,1.24,1.303,1.3376,1.322,1.2915,1.2474,1.187,0.0,0.0,0.0,0.0,0.0,0.0,0.0,0.0,0.0,0.0,0.0,0.0,0.0,0.0,0.0,0.0,0.0,0.0,0.0,0.0,0.0,0.0,0.0,0.0,0.0,0.0,0.0,0.0,0.0,0.0,0.0,0.0,0.0,0.0,0.0,0.0,0.0,0.0,0.0,0.0,0.0,0.0,0.0,0.0,0.0,0.0,0.0,0.0,0.0,0.0,0.0,0.0,0.0,0.0,0.0,0.0,0.0,0.0,0.0,0.0,0.0,0.0,0.0,0.0,0.0,0.0,0.0,0.0,0.0,0.0,0.0,0.0,0.0,0.0,0.0,0.0,0.0,0.0,0.0,0.0,0.0,0.0,0.0,0.0,0.0,0.0,0.0,0.0,0.0,0.0,0.0,0.0,0.0,0.0,0.0,0.0,0.0,0.0,0.0,0.0,0.0,0.0,0.0,0.0,1.204,1.2942,1.337,1.3532,1.3376,1.2976,1.2474,1.187,0.0,0.0,0.0,0.0,0.0,0.0,0.0,0.0,0.0,0.0,0.0,0.0,0.0,0.0,0.0,0.0,0.0,0.0,0.0,0.0,0.0,0.0,0.0,0.0,0.0,0.0,0.0,0.0,0.0,0.0,0.0,0.0,0.0,0.0,0.0,0.0,0.0,0.0,0.0,0.0,0.0,0.0,0.0,0.0,0.0,0.0,0.0,0.0,0.0,0.0,0.0,0.0,0.0,0.0,0.0,0.0,0.0,0.0,0.0,0.0,0.0,0.0,0.0,0.0,0.0,0.0,0.0,0.0,0.0,0.0,0.0,0.0,0.0,0.0,0.0,0.0,0.0,0.0,0.0,0.0,0.0,0.0,0.0,0.0,0.0,0.0,0.0,0.0,0.0,0.0,0.0,0.0,0.0,0.0,0.0,0.0,0.0,0.0,0.0,0.0,0.0,0.0,0.0,1.206,1.2467,1.3431,1.3593,1.36,1.3532,1.3037,1.2508,1.1986,1.1599,0.0,0.0,0.0,0.0,0.0,0.0,0.0,0.0,0.0,0.0,0.0,0.0,0.0,0.0,0.0,0.0,0.0,0.0,0.0,0.0,0.0,0.0,0.0,0.0,0.0,0.0,0.0,0.0,0.0,0.0,0.0,0.0,0.0,0.0,0.0,0.0,0.0,0.0,0.0,0.0,0.0,0.0,0.0,0.0,0.0,0.0,0.0,0.0,0.0,0.0,0.0,0.0,0.0,0.0,0.0,0.0,0.0,0.0,0.0,0.0,0.0,0.0,0.0,0.0,0.0,0.0,0.0,0.0,0.0,0.0,0.0,0.0,0.0,0.0,0.0,0.0,0.0,0.0,0.0,0.0,0.0,0.0,0.0,0.0,0.0,0.0,0.0,0.0,0.0,0.0,0.0,0.0,0.0,0.0,0.0,0.0,0.0,0.0,0.0,0.0,0.0,0.0,1.2712,1.3057,1.3817,1.3763,1.3682,1.3682,1.3064,1.2501,1.2088,1.1606,0.0,0.0,0.0,0.0,0.0,0.0,0.0,0.0,0.0,0.0,0.0,0.0,0.0,0.0,0.0,0.0,0.0,0.0,0.0,0.0,0.0,0.0,0.0,0.0,0.0,0.0,0.0,0.0,0.0,0.0,0.0,0.0,0.0,0.0,0.0,0.0,0.0,0.0,0.0,0.0,0.0,0.0,0.0,0.0,0.0,0.0,0.0,0.0,0.0,0.0,0.0,0.0,0.0,0.0,0.0,0.0,0.0,0.0,0.0,0.0,0.0,0.0,0.0,0.0,0.0,0.0,0.0,0.0,0.0,0.0,0.0,0.0,0.0,0.0,0.0,0.0,0.0,0.0,0.0,0.0,0.0,0.0,0.0,0.0,0.0,0.0,0.0,0.0,0.0,0.0,0.0,0.0,0.0,0.0,0.0,0.0,0.0,0.0,0.0,0.0,0.0,0.0,1.3044,1.3682,1.4021,1.3919,1.3824,1.3824,1.3024,1.2386,1.2081,1.1504,0.0,0.0,0.0,0.0,0.0,0.0,0.0,0.0,0.0,0.0,0.0,0.0,0.0,0.0,0.0,0.0,0.0,0.0,0.0,0.0,0.0,0.0,0.0,0.0,0.0,0.0,0.0,0.0,0.0,0.0,0.0,0.0,0.0,0.0,0.0,0.0,0.0,0.0,0.0,0.0,0.0,0.0,0.0,0.0,0.0,0.0,0.0,0.0,0.0,0.0,0.0,0.0,0.0,0.0,0.0,0.0,0.0,0.0,0.0,0.0,0.0,0.0,0.0,0.0,0.0,0.0,0.0,0.0,0.0,0.0,0.0,0.0,0.0,0.0,0.0,0.0,0.0,0.0,0.0,0.0,0.0,0.0,0.0,0.0,0.0,0.0,0.0,0.0,0.0,0.0,0.0,0.0,0.0,0.0,0.0,0.0,0.0,0.0,0.0,0.0,0.0,0.0,1.2963,1.3566,1.415,1.4075,1.3946,1.3851,1.3275,1.2678,1.2101,0.0,0.0,0.0,0.0,0.0,0.0,0.0,0.0,0.0,0.0,0.0,0.0,0.0,0.0,0.0,0.0,0.0,0.0,0.0,0.0,0.0,0.0,0.0,0.0,0.0,0.0,0.0,0.0,0.0,0.0,0.0,0.0,0.0,0.0,0.0,0.0,0.0,0.0,0.0,0.0,0.0,0.0,0.0,0.0,0.0,0.0,0.0,0.0,0.0,0.0,0.0,0.0,0.0,0.0,0.0,0.0,0.0,0.0,0.0,0.0,0.0,0.0,0.0,0.0,0.0,0.0,0.0,0.0,0.0,0.0,0.0,0.0,0.0,0.0,0.0,0.0,0.0,0.0,0.0,0.0,0.0,0.0,0.0,0.0,0.0,0.0,0.0,0.0,0.0,0.0,0.0,0.0,0.0,0.0,0.0,0.0,0.0,0.0,0.0,0.0,0.0,0.0,1.2427,1.3017,1.3634,1.4299,1.4231,1.4102,1.3994,1.3444,1.2807,1.2108,0.0,0.0,0.0,0.0,0.0,0.0,0.0,0.0,0.0,0.0,0.0,0.0,0.0,0.0,0.0,0.0,0.0,0.0,0.0,0.0,0.0,0.0,0.0,0.0,0.0,0.0,0.0,0.0,0.0,0.0,0.0,0.0,0.0,0.0,0.0,0.0,0.0,0.0,0.0,0.0,0.0,0.0,0.0,0.0,0.0,0.0,0.0,0.0,0.0,0.0,0.0,0.0,0.0,0.0,0.0,0.0,0.0,0.0,0.0,0.0,0.0,0.0,0.0,0.0,0.0,0.0,0.0,0.0,0.0,0.0,0.0,0.0,0.0,0.0,0.0,0.0,0.0,0.0,0.0,0.0,0.0,0.0,0.0,0.0,0.0,0.0,0.0,0.0,0.0,0.0,0.0,0.0,0.0,0.0,0.0,0.0,0.0,0.0,0.0,0.0,0.0,0.0,1.2467,1.3288,1.4021,1.4468,1.4387,1.4306,1.4299,1.3485,1.2712,0.0,0.0,0.0,0.0,0.0,0.0,0.0,0.0,0.0,0.0,0.0,0.0,0.0,0.0,0.0,0.0,0.0,0.0,0.0,0.0,0.0,0.0,0.0,0.0,0.0,0.0,0.0,0.0,0.0,0.0,0.0,0.0,0.0,0.0,0.0,0.0,0.0,0.0,0.0,0.0,0.0,0.0,0.0,0.0,0.0,0.0,0.0,0.0,0.0,0.0,0.0,0.0,0.0,0.0,0.0,0.0,0.0,0.0,0.0,0.0,0.0,0.0,0.0,0.0,0.0,0.0,0.0,0.0,0.0,0.0,0.0,0.0,0.0,0.0,0.0,0.0,0.0,0.0,0.0,0.0,0.0,0.0,0.0,0.0,0.0,0.0,0.0,0.0,0.0,0.0,0.0,0.0,0.0,0.0,0.0,0.0,0.0,0.0,0.0,0.0,0.0,0.0,0.0,1.2623,1.3627,1.4407,1.4645,1.4631,1.4523,1.4319,1.377,1.3037,1.2121,0.0,0.0,0.0,0.0,0.0,0.0,0.0,0.0,0.0,0.0,0.0,0.0,0.0,0.0,0.0,0.0,0.0,0.0,0.0,0.0,0.0,0.0,0.0,0.0,0.0,0.0,0.0,0.0,0.0,0.0,0.0,0.0,0.0,0.0,0.0,0.0,0.0,0.0,0.0,0.0,0.0,0.0,0.0,0.0,0.0,0.0,0.0,0.0,0.0,0.0,0.0,0.0,0.0,0.0,0.0,0.0,0.0,0.0,0.0,0.0,0.0,0.0,0.0,0.0,0.0,0.0,0.0,0.0,0.0,0.0,0.0,0.0,0.0,0.0,0.0,0.0,0.0,0.0,0.0,0.0,0.0,0.0,0.0,0.0,0.0,0.0,0.0,0.0,0.0,0.0,0.0,0.0,0.0,0.0,0.0,0.0,0.0,0.0,0.0,0.0,0.0,0.0,1.2691,1.3722,1.4529,1.4801,1.4835,1.476,1.4584,1.4102,1.3356,1.2305,0.0,0.0,0.0,0.0,0.0,0.0,0.0,0.0,0.0,0.0,0.0,0.0,0.0,0.0,0.0,0.0,0.0,0.0,0.0,0.0,0.0,0.0,0.0,0.0,0.0,0.0,0.0,0.0,0.0,0.0,0.0,0.0,0.0,0.0,0.0,0.0,0.0,0.0,0.0,0.0,0.0,0.0,0.0,0.0,0.0,0.0,0.0,0.0,0.0,0.0,0.0,0.0,0.0,0.0,0.0,0.0,0.0,0.0,0.0,0.0,0.0,0.0,0.0,0.0,0.0,0.0,0.0,0.0,0.0,0.0,0.0,0.0,0.0,0.0,0.0,0.0,0.0,0.0,0.0,0.0,0.0,0.0,0.0,0.0,0.0,0.0,0.0,0.0,0.0,0.0,0.0,0.0,0.0,0.0,0.0,0.0,0.0,0.0,0.0,0.0,0.0,0.0,1.2712,1.3695,1.4523,1.4943,1.4991,1.4984,1.497,1.4434,1.3648,1.261,0.0,0.0,0.0,0.0,0.0,0.0,0.0,0.0,0.0,0.0,0.0,0.0,0.0,0.0,0.0,0.0,0.0,0.0,0.0,0.0,0.0,0.0,0.0,0.0,0.0,0.0,0.0,0.0,0.0,0.0,0.0,0.0,0.0,0.0,0.0,0.0,0.0,0.0,0.0,0.0,0.0,0.0,0.0,0.0,0.0,0.0,0.0,0.0,0.0,0.0,0.0,0.0,0.0,0.0,0.0,0.0,0.0,0.0,0.0,0.0,1.6278,1.4206,0.0,0.0,0.0,0.0,0.0,0.0,0.0,0.0,0.0,0.0,0.0,0.0,0.0,0.0,0.0,0.0,0.0,0.0,0.0,0.0,0.0,0.0,0.0,0.0,0.0,0.0,0.0,0.0,0.0,0.0,0.0,0.0,0.0,0.0,0.0,0.0,0.0,0.0,0.0,0.0,1.2874,1.4034,1.4909,1.5113,1.514,1.5092,1.4977,1.4529,1.3851,1.2922,1.2182,0.0,0.0,0.0,0.0,0.0,0.0,0.0,0.0,0.0,0.0,0.0,0.0,0.0,0.0,0.0,0.0,0.0,0.0,0.0,0.0,0.0,0.0,0.0,0.0,0.0,0.0,0.0,0.0,0.0,0.0,0.0,0.0,0.0,0.0,0.0,0.0,0.0,0.0,0.0,0.0,0.0,0.0,0.0,0.0,0.0,0.0,0.0,0.0,0.0,0.0,0.0,0.0,0.0,0.0,0.0,0.0,0.0,0.0,0.0,1.9632,1.7356,0.0,0.0,0.0,0.0,0.0,0.0,0.0,0.0,0.0,0.0,0.0,0.0,0.0,0.0,0.0,0.0,0.0,0.0,0.0,0.0,0.0,0.0,0.0,0.0,0.0,0.0,0.0,0.0,0.0,0.0,0.0,0.0,0.0,0.0,0.0,0.0,0.0,0.0,0.0,0.0,1.3017,1.4116,1.4943,1.516,1.5181,1.5153,1.5079,1.4726,1.419,1.3431,1.2678,0.0,0.0,0.0,0.0,0.0,0.0,0.0,0.0,0.0,0.0,0.0,0.0,0.0,0.0,0.0,0.0,0.0,0.0,0.0,0.0,0.0,0.0,0.0,0.0,0.0,0.0,0.0,0.0,0.0,0.0,0.0,0.0,0.0,0.0,0.0,0.0,0.0,0.0,0.0,0.0,0.0,0.0,0.0,0.0,0.0,0.0,0.0,0.0,0.0,0.0,0.0,0.0,0.0,2.4527,2.5628,2.7362,2.5903,2.6335,2.7901,2.3454,2.1096,2.0547,1.9992,0.0,0.0,0.0,0.0,0.0,0.0,0.0,0.0,0.0,0.0,0.0,0.0,0.0,0.0,0.0,0.0,0.0,0.0,0.0,0.0,0.0,0.0,1.6921,1.6729,1.8981,1.9881,1.5034,0.0,0.0,0.0,0.0,0.0,0.0,0.0,0.0,0.0,0.0,0.0,1.3193,1.4122,1.4855,1.5153,1.5181,1.5181,1.5181,1.4909,1.4502,1.3953,1.3247,1.2481,0.0,0.0,0.0,0.0,0.0,0.0,0.0,0.0,0.0,0.0,0.0,0.0,0.0,0.0,0.0,0.0,0.0,0.0,0.0,0.0,0.0,0.0,0.0,0.0,0.0,0.0,0.0,0.0,0.0,0.0,0.0,0.0,1.6806,1.8652,0.0,0.0,0.0,0.0,0.0,0.0,0.0,0.0,0.0,0.0,0.0,0.0,0.0,2.1524,2.3545,2.4526,2.6093,2.8287,2.8828,2.9296,2.9513,2.9185,2.9535,2.998,2.8942,0.0,2.3892,2.401,0.0,0.0,0.0,0.0,0.0,0.0,0.0,0.0,0.0,0.0,0.0,0.0,0.0,0.0,0.0,0.0,0.0,0.0,0.0,0.0,0.0,0.0,1.832,1.7955,2.0044,2.1926,2.0865,1.8128,1.5171,1.2684,1.2189,1.2054,0.0,0.0,0.0,0.0,0.0,0.0,1.3492,1.4258,1.4855,1.5153,1.5181,1.5181,1.5181,1.4909,1.4597,1.4258,1.3654,1.3085,1.2576,1.1877,0.0,0.0,0.0,0.0,0.0,0.0,0.0,0.0,0.0,0.0,0.0,0.0,0.0,0.0,0.0,0.0,0.0,0.0,0.0,0.0,0.0,0.0,0.0,0.0,0.0,0.0,0.0,0.0,0.0,1.6277,1.8902,2.066,1.9347,1.8414,0.0,0.0,0.0,0.0,0.0,0.0,0.0,0.0,0.0,1.9958,2.3642,2.5835,2.5949,2.7938,2.9391,3.0274,3.0702,3.0982,3.1142,3.1142,3.1303,3.1583,3.145,3.0478,2.8604,2.7465,2.3897,1.9154,0.0,0.0,0.0,0.0,1.3173,1.337,1.3498,1.4572,1.5917,1.6673,0.0,0.0,0.0,0.0,0.0,0.0,0.0,1.7332,1.8023,2.049,2.2841,2.2955,2.5207,2.6616,2.5082,2.2298,1.9428,1.7349,1.5739,1.4672,1.3751,1.3751,0.0,0.0,0.0,1.3295,1.381,1.4462,1.495,1.516,1.5181,1.5181,1.5181,1.4991,1.478,1.4563,1.4061,1.3614,1.3247,1.2596,1.202,0.0,0.0,0.0,0.0,0.0,0.0,0.0,0.0,0.0,0.0,0.0,0.0,0.0,0.0,0.0,0.0,0.0,0.0,0.0,0.0,0.0,0.0,0.0,0.0,0.0,0.0,0.0,0.0,1.8154,2.0697,2.2461,2.1771,2.1434,0.0,0.0,0.0,0.0,0.0,0.0,2.1305,2.381,2.4753,2.3829,2.7925,2.9534,2.8322,3.0525,3.1557,3.157,3.1784,3.2011,3.2211,3.2211,3.2372,3.2652,3.2572,3.2465,3.2171,2.9378,2.6073,2.2578,2.0577,1.7782,1.4827,1.4098,1.4089,1.4285,1.5333,1.6892,1.8613,1.9637,2.2129,2.4232,2.1671,0.0,0.0,0.0,0.0,2.1181,2.2037,2.4207,2.6354,2.6938,2.8976,3.0439,2.826,2.5765,2.3094,2.0527,1.8041,1.5999,1.5031,1.5056,0.0,1.2783,1.3535,1.4689,1.5213,1.5557,1.5939,1.609,1.5549,1.5181,1.5181,1.5018,1.4862,1.4746,1.4353,1.4014,1.3756,1.3241,1.2698,1.2128,0.0,0.0,0.0,0.0,0.0,0.0,0.0,0.0,0.0,0.0,0.0,0.0,0.0,0.0,0.0,0.0,0.0,0.0,0.0,0.0,0.0,0.0,0.0,0.0,0.0,0.0,0.0,0.0,0.0,2.3515,2.4448,0.0,0.0,0.0,0.0,2.0805,2.164,2.235,2.2799,2.5275,2.708,2.7428,3.0226,3.1704,3.1819,3.2318,3.2478,3.2478,3.2492,3.2505,3.2519,3.2519,3.2679,3.2946,3.2666,3.2692,3.2642,2.8882,2.7156,2.6258,2.0655,1.8499,1.8317,1.5802,1.5086,1.5709,1.8347,1.9278,2.0038,2.5076,2.7467,2.7879,2.5359,2.4151,0.0,0.0,2.1807,2.2153,2.2847,2.5029,2.7295,2.7156,2.9267,3.1129,3.0637,2.8469,2.5045,1.977,1.6495,1.4434,1.381,0.0,1.372,1.3553,1.57,1.7433,1.8178,1.8283,1.8484,1.866,1.6658,1.5181,1.5181,1.4916,1.4746,1.474,1.4455,1.4217,1.4055,1.3749,1.337,1.2915,1.2176,0.0,0.0,0.0,0.0,0.0,0.0,0.0,0.0,0.0,0.0,0.0,0.0,0.0,0.0,0.0,0.0,0.0,0.0,0.0,0.0,0.0,0.0,0.0,0.0,0.0,0.0,0.0,0.0,2.4409,2.5366,0.0,2.6697,2.5287,2.5008,2.6425,2.7429,2.821,2.8582,2.9886,3.0754,3.114,3.2432,3.3146,3.3253,3.3547,3.3681,3.3681,3.3681,3.3681,3.3681,3.3681,3.3641,3.3561,3.3454,3.3347,3.3001,2.9799,2.8173,2.7499,2.4911,2.3323,2.1952,2.1008,2.0891,2.1402,2.2221,2.3516,2.518,2.8384,2.9286,2.9189,2.8256,2.7766,2.7605,2.7097,2.7244,2.7497,2.8125,2.9005,2.9768,2.996,3.0857,3.1476,3.1383,2.9206,2.6642,2.4681,2.2971,2.1696,2.0976,2.1068,2.0637,1.8845,1.9713,2.0519,2.0781,2.1029,2.0446,1.9048,1.9427,1.8643,1.5424,1.6301,1.6303,1.4597,1.5809,1.6522,1.6459,1.7759,1.753,1.5512,1.4859,1.3511,0.0,0.0,0.0,0.0,0.0,0.0,0.0,0.0,0.0,0.0,0.0,0.0,0.0,0.0,0.0,0.0,0.0,0.0,0.0,0.0,0.0,0.0,0.0,0.0,0.0,2.1768,2.5401,2.5477,2.7023,2.8398,2.9216,2.8501,2.8665,3.0354,3.1183,3.1891,3.2385,3.2786,3.3133,3.3427,3.3828,3.4028,3.4028,3.4229,3.4322,3.4322,3.4322,3.4322,3.4322,3.4322,3.4215,3.4028,3.4028,3.3908,3.3492,3.1554,3.0454,2.9615,2.7326,2.6072,2.5453,2.4556,2.438,2.4813,2.5437,2.7364,2.9611,3.0516,3.0662,3.0434,3.0047,3.006,3.0234,3.0327,3.0501,3.0768,3.1249,3.137,3.1423,3.1623,3.1664,3.1664,3.1664,3.0152,2.8839,2.874,2.6005,2.3976,2.4323,2.3754,2.2935,2.2029,2.2956,2.372,2.37,2.3935,2.3519,2.184,2.2337,2.1325,1.807,1.8085,1.7665,1.583,1.6912,1.7603,1.7662,1.8956,1.8755,1.6828,1.6137,1.4761,1.2663,0.0,0.0,0.0,0.0,0.0,0.0,0.0,0.0,0.0,0.0,0.0,0.0,0.0,0.0,0.0,0.0,0.0,0.0,0.0,0.0,0.0,0.0,0.0,1.8524,2.2738,2.633,2.6926,2.9576,3.1156,3.0875,3.1116,3.153,3.2104,3.2425,3.2986,3.3855,3.3908,3.4042,3.4336,3.4349,3.4349,3.4362,3.4349,3.4349,3.4349,3.4362,3.4362,3.4349,3.4362,3.4349,3.4336,3.4336,3.4322,3.4295,3.4015,3.3721,3.296,2.7337,2.6551,2.859,2.6211,2.5276,2.568,2.8106,3.074,3.2826,3.1971,3.169,3.1583,3.1009,3.0822,3.0875,3.1156,3.1236,3.1303,3.161,3.1677,3.169,3.169,3.169,3.1677,3.1677,3.1677,3.1583,3.1289,2.5094,2.0521,2.293,2.1395,2.0394,2.279,2.5352,0.0,2.6813,2.7038,2.718,2.718,2.4703,2.3065,2.3055,2.0268,1.8466,1.8467,1.7801,1.7307,1.7476,1.7306,1.7182,1.682,1.5897,1.5397,1.518,0.0,0.0,0.0,0.0,0.0,0.0,0.0,0.0,0.0,0.0,0.0,0.0,0.0,0.0,0.0,0.0,0.0,0.0,0.0,0.0,0.0,2.1066,2.3938,2.385,2.7059,2.9611,3.0259,3.1429,3.2144,3.2064,3.2519,3.2879,3.304,3.3534,3.3935,3.4189,3.4402,3.4656,3.495,3.495,3.5057,3.5271,3.5057,3.495,3.4963,3.5164,3.5151,3.4963,3.5177,3.5044,3.4643,3.4643,3.4523,3.4309,3.4229,3.4148,3.3784,3.1539,3.1234,3.1655,3.1125,3.074,3.0951,3.156,3.2235,3.2625,3.2385,3.2158,3.1957,3.1784,3.1597,3.145,3.153,3.1543,3.161,3.1904,3.1984,3.2038,3.2251,3.2144,3.1984,3.1984,3.1824,3.1637,3.1557,2.8536,2.6467,2.8322,2.8026,2.7804,2.8482,2.9295,2.9715,2.9728,2.9793,2.9002,2.6931,2.7781,2.683,2.2799,2.3104,2.2744,2.055,2.1542,2.2191,2.2256,2.3642,2.3517,2.1785,1.9366,1.8128,0.0,0.0,0.0,0.0,0.0,0.0,0.0,0.0,0.0,0.0,0.0,0.0,0.0,0.0,0.0,0.0,0.0,0.0,0.0,0.0,0.0,0.0,2.2966,2.5542,2.8332,3.0121,3.1463,3.2305,3.2826,3.316,3.328,3.3587,3.3841,3.3961,3.4309,3.4563,3.4683,3.4963,3.5151,3.5191,3.5431,3.5578,3.5631,3.5578,3.5565,3.5565,3.5738,3.5725,3.5565,3.5738,3.5565,3.5124,3.5124,3.4963,3.4683,3.4683,3.4616,3.4442,0.0,0.0,0.0,0.0,3.3467,3.336,3.336,3.316,3.2893,3.2759,3.2612,3.2452,3.2318,3.2171,3.2038,3.2038,3.2038,3.2078,3.2238,3.2291,3.2332,3.2505,3.2412,3.2291,3.2291,3.2158,3.2038,3.2038,3.0986,0.0,3.1421,3.0453,2.9922,3.0823,3.1076,3.1156,3.1156,3.1156,3.0569,2.9168,3.0108,2.9453,2.6328,2.5948,0.0,0.0,0.0,2.415,2.3821,2.4988,0.0,0.0,0.0,0.0,0.0,2.1647,0.0,0.0,1.9723,1.8895,0.0,0.0,0.0,0.0,0.0,0.0,0.0,0.0,0.0,0.0,0.0,0.0,0.0,0.0,0.0,0.0,2.5273,2.6443,3.1868,3.2198,3.2265,3.3334,3.3748,3.4042,3.4295,3.4349,3.4496,3.479,3.4843,3.499,3.5284,3.5538,0.0,0.0,0.0,3.5965,3.5725,3.5952,3.6072,3.6072,3.6099,3.6099,3.6072,3.6099,3.5965,3.5672,3.5645,3.5485,3.5244,3.5204,3.5044,3.4776,3.4442,3.4322,3.4322,3.4322,3.4162,3.3935,3.3895,0.0,0.0,3.312,3.3,3.2933,3.2679,3.2572,3.2545,3.2545,3.2545,3.2559,3.2585,3.2599,3.2599,3.2639,3.2612,3.2599,3.2599,3.2572,3.2545,3.2545,3.2572,3.2585,3.2559,3.0336,2.9224,3.1072,3.1597,3.177,3.177,3.1744,3.1797,3.2024,3.1557,0.0,3.1183,2.8314,2.6616,2.639,2.5443,2.4733,2.3997,2.3961,2.3038,2.0879,2.2611,2.3644,2.4311,2.6138,2.6987,2.6812,2.2224,2.0342,0.0,0.0,0.0,0.0,0.0,0.0,0.0,0.0,0.0,0.0,0.0,0.0,0.0,0.0,0.0,2.6044,2.8457,3.0471,3.2868,3.316,3.3253,3.3734,3.4055,3.4255,3.4309,3.4536,3.4803,3.5097,3.5324,3.5591,3.5885,3.5952,3.6072,3.6246,3.6139,3.6153,3.634,3.6166,3.6072,3.6072,3.6313,0.0,3.6086,3.6313,3.6259,3.5979,3.5738,3.5591,3.5525,3.5297,3.5164,3.5057,3.4523,3.4322,3.4322,3.4322,3.4282,3.4202,3.3975,3.3841,3.3748,3.3427,3.3173,3.2973,3.2919,3.2732,0.0,3.2545,3.2545,3.2599,3.2839,3.2893,3.2959,3.3187,3.3066,3.2893,3.2893,3.2706,3.2545,3.2545,3.2732,3.2826,3.2585,3.2102,3.1828,3.2305,3.2345,3.2385,3.2385,3.2171,3.1944,3.177,3.1436,3.1129,3.0902,3.0069,2.9427,2.8791,2.8113,2.7722,2.7302,2.7289,2.7083,2.6518,2.6631,2.7026,2.7367,2.7715,2.8016,2.8243,2.6731,2.6015,0.0,0.0,0.0,0.0,0.0,0.0,0.0,0.0,0.0,0.0,0.0,1.8063,2.0813,0.0,2.3971,2.8519,2.9772,3.1061,3.3306,3.3908,3.4148,3.4309,3.4456,3.4656,3.495,3.511,3.5324,3.5618,3.5765,3.5912,3.6059,3.6206,3.6286,3.6286,3.6433,3.65,3.65,3.65,3.65,3.65,3.6647,3.6647,3.65,3.6647,3.658,3.6286,3.6139,3.5979,3.5832,3.5538,3.5498,3.5591,3.5151,3.4883,3.4763,3.4763,3.467,3.4523,3.4376,3.4135,3.3855,3.3694,3.344,3.32,3.32,3.3093,3.2973,3.2973,3.2973,3.3013,3.316,3.32,3.3227,3.3374,3.3293,3.32,3.32,3.308,3.2973,3.2973,3.3093,3.3146,3.3,3.2973,3.2879,3.2585,3.2545,3.2599,3.2746,3.2505,3.2265,3.2118,3.1837,3.1543,3.1249,3.0822,3.0394,2.9953,2.9513,2.9058,2.8604,2.8591,2.8524,2.8377,2.823,2.8297,2.8591,2.8591,2.8671,2.8818,2.8657,2.843,0.0,0.0,0.0,0.0,0.0,0.0,0.0,1.7581,1.7503,1.8099,2.006,2.246,2.5337,2.5138,2.5994,3.1198,3.1056,3.1164,3.3771,3.4563,3.4937,3.4937,3.4937,3.5137,3.5658,3.5712,3.5845,3.6139,3.6153,3.6179,3.6233,3.6473,3.6473,3.6246,3.6687,3.6834,3.658,3.6834,3.6941,3.6941,3.6941,3.6941,3.6941,3.6941,3.6794,3.658,3.654,3.634,3.6059,3.5819,3.5859,3.6046,3.5805,3.5578,3.5364,3.5297,3.5137,3.491,3.4803,3.4456,3.4042,3.3988,3.3801,3.3587,3.3587,3.3587,3.3587,3.3587,3.3547,3.3507,3.3507,3.3454,3.3414,3.3414,3.3414,3.3414,3.3414,3.3414,3.3414,3.3414,3.3414,3.3427,3.3494,3.3454,3.3253,3.2786,3.2719,3.2799,3.3026,3.2812,3.2625,3.2625,3.2318,3.1984,3.169,3.1183,3.0782,3.0541,3.0247,2.9873,2.9406,2.9325,2.9179,2.8951,2.8898,2.8978,2.9205,2.9272,2.9299,2.9299,2.9593,2.9513,1.4168,1.2692,1.3878,1.8096,1.7585,1.728,0.0,2.2352,2.1181,2.1818,2.2647,2.4048,2.6573,2.7629,2.9153,3.2326,3.3373,3.4077,3.4616,3.5164,3.5538,3.5538,3.5538,3.5658,3.5992,3.6019,3.6139,3.6433,3.6473,3.658,3.6834,3.6861,3.6861,3.6834,3.6901,3.6941,3.6901,3.6941,3.6941,3.6941,3.6941,3.6941,3.6941,3.6941,3.6941,3.6861,3.662,3.634,3.6072,3.6032,3.6046,3.6072,3.6032,3.6006,3.5939,3.5685,3.5565,3.5458,3.495,3.4723,3.4616,3.4362,3.4242,3.4215,3.4215,3.4215,3.4215,3.4215,3.4028,3.3828,3.3828,3.3627,3.3414,3.3414,3.3414,3.3414,3.3414,3.3414,3.3414,3.3414,3.3414,3.3507,3.3788,3.3601,3.3387,3.332,3.332,3.332,3.336,3.3106,3.2933,3.2933,3.2438,3.1984,3.169,3.137,3.1169,3.1129,3.0862,3.0662,3.0595,3.0354,3.0194,3.0167,2.99,2.978,2.982,3.0087,3.0207,3.0221,3.0515,3.0207,1.5565,1.4773,1.5762,1.941,1.997,2.0597,2.4431,2.4833,2.4665,2.5262,2.6689,2.8503,3.014,3.0984,3.1849,3.3452,3.4362,3.487,3.5004,3.5364,3.5631,3.5631,3.5631,3.5805,3.6273,3.6326,3.6433,3.6727,3.6754,3.6794,3.6941,3.6941,3.6941,3.6941,3.6941,3.6941,3.6941,3.6941,3.6941,3.6941,3.6941,3.6941,3.6941,3.6941,3.6941,3.6941,3.6794,3.6687,3.658,3.6393,3.6433,3.658,3.6393,3.6433,3.65,3.5859,3.5631,3.5578,3.5151,3.491,3.4736,3.4616,3.4456,3.4322,3.4322,3.4322,3.4322,3.4322,3.4229,3.4135,3.4135,3.3908,3.3694,3.3694,3.3694,3.3641,3.3454,3.3561,3.3627,3.3454,3.3561,3.3734,3.3868,3.3921,3.3935,3.3935,3.3641,3.3414,3.3414,3.3307,3.316,3.3,3.2452,3.2051,3.1931,3.165,3.149,3.149,3.137,3.1223,3.1049,3.0929,3.0782,3.0621,3.0488,3.0421,3.0421,3.0555,3.0608,3.0621,3.0742,3.0595,1.7271,1.7008,1.779,2.12,2.2514,2.3787,2.633,2.7328,2.7989,2.8531,3.0277,3.1931,3.2652,3.3267,3.3855,3.4469,3.5057,3.5404,3.5324,3.5631,3.5778,3.5538,3.5658,3.5885,3.6233,3.6393,3.658,3.6794,3.6901,3.6941,3.6941,3.6941,3.6941,3.6941,3.6941,3.6941,3.6941,3.6941,3.6941,3.6941,3.6941,3.6941,3.6941,3.6941,3.6941,3.6941,3.6941,3.6941,3.6941,3.6727,3.6754,3.6901,3.6727,3.6754,3.6861,3.6139,3.5819,3.5712,3.5418,3.5124,3.4883,3.4883,3.4736,3.4563,3.4563,3.4563,3.4563,3.4563,3.4509,3.4442,3.4442,3.4229,3.4002,3.4002,3.4002,3.3948,3.3708,3.3841,3.3935,3.3708,3.3855,3.4028,3.4108,3.4229,3.4349,3.4429,3.4002,3.3668,3.3668,3.3587,3.34,3.3013,3.2599,3.2278,3.2118,3.1984,3.1877,3.1797,3.1784,3.169,3.1476,3.1396,3.1209,3.0915,3.0915,3.0875,3.0795,3.0875,3.0955,3.1036,3.1036,3.1076,1.8654,1.8881,1.9084,2.4212,2.5607,2.6749,2.9978,3.0783,3.1155,3.1753,3.2519,3.3026,3.3347,3.3895,3.4482,3.507,3.5658,3.5939,3.5658,3.6112,3.6166,3.5311,3.5712,3.5952,3.5685,3.6166,3.65,3.6513,3.6794,3.6941,3.6941,3.6941,3.6941,3.6941,3.6941,3.6941,3.6941,3.6941,3.6941,3.6941,3.6941,3.6941,3.6941,3.6941,3.6941,3.6941,3.6941,3.6941,3.6941,3.6941,3.6941,3.6941,3.6941,3.6941,3.6901,3.658,3.6299,3.6019,3.5712,3.5431,3.5177,3.5177,3.5177,3.5164,3.5164,3.5164,3.5164,3.5164,3.4963,3.475,3.475,3.4536,3.4309,3.4309,3.4309,3.4309,3.4295,3.4295,3.4309,3.4295,3.4295,3.4402,3.4683,3.4509,3.4416,3.471,3.4496,3.4295,3.4295,3.4042,3.3641,3.304,3.2959,3.2719,3.2144,3.2358,3.2398,3.2104,3.2091,3.2078,3.2078,3.181,3.1517,3.1223,3.1209,3.1076,3.0795,3.1076,3.1356,3.1637,3.1637,3.1797,1.8184,2.0828,2.3402,2.5666,2.769,2.9585,3.1022,3.1597,3.1971,3.2559,3.2532,3.2612,3.3293,3.3427,3.3814,3.5004,3.5525,3.5885,3.6166,3.638,3.6179,3.5297,3.5538,3.5591,3.5097,3.5939,3.65,3.65,3.6754,3.6941,3.6941,3.6941,3.6941,3.6941,3.6941,3.6941,3.6941,3.6941,3.6941,3.6941,3.6941,3.6941,3.6941,3.6941,3.6941,3.6941,3.6941,3.6941,3.6941,3.6941,3.6941,3.6941,3.6941,3.6941,3.6941,3.6834,3.662,3.6286,3.5792,3.5431,3.5191,3.5191,3.5191,3.5191,3.5191,3.5191,3.5191,3.5191,3.5124,3.5057,3.5057,3.483,3.4616,3.4616,3.4616,3.4563,3.4362,3.4469,3.4563,3.4362,3.4482,3.4643,3.475,3.4843,3.4937,3.5044,3.4629,3.4255,3.4055,3.3948,3.3721,3.3307,3.3093,3.2893,3.2706,3.2599,3.2505,3.2398,3.2398,3.2398,3.2398,3.2305,3.2211,3.2104,3.2104,3.2051,3.1957,3.2051,3.2158,3.2251,3.2251,3.2305,2.0385,2.3217,2.6266,2.7718,2.9608,3.1263,3.1851,3.2211,3.2519,3.2906,3.2505,3.2305,3.2973,3.2772,3.3026,3.4629,3.5124,3.5551,3.6246,3.6353,3.6099,3.5431,3.5511,3.5444,3.4963,3.5792,3.6353,3.6353,3.662,3.6834,3.6941,3.6941,3.6941,3.6941,3.6941,3.6941,3.6941,3.6941,3.6941,3.6941,3.6941,3.6941,3.6941,3.6941,3.6941,3.6941,3.6941,3.6941,3.6941,3.6941,3.6941,3.6941,3.6941,3.6941,3.6941,3.6941,3.6754,3.646,3.6072,3.5685,3.5351,3.5351,3.5284,3.5191,3.5191,3.5191,3.5191,3.5191,3.5191,3.5191,3.5191,3.5057,3.4923,3.4923,3.4923,3.487,3.467,3.4776,3.4857,3.467,3.479,3.4923,3.4923,3.507,3.5231,3.5338,3.4937,3.4523,3.4242,3.4202,3.4042,3.3627,3.3414,3.3213,3.3,3.2906,3.2812,3.2706,3.2706,3.2706,3.2706,3.2599,3.2545,3.2545,3.2545,3.2545,3.2545,3.2545,3.2599,3.2692,3.2599,3.2599,2.5115,2.6234,2.7243,3.0398,3.1476,3.1851,3.2438,3.2772,3.2959,3.2959,3.2465,3.2131,3.2425,3.2024,3.2225,3.4002,3.4563,3.5084,3.5992,3.6112,3.6006,3.5685,3.5672,3.5551,3.5244,3.5725,3.6059,3.6099,3.6353,3.662,3.6901,3.6941,3.6941,3.6941,3.6941,3.6941,3.6941,3.6941,3.6941,3.6941,3.6941,3.6941,3.6941,3.6941,3.6941,3.6941,3.6941,3.6941,3.6941,3.6941,3.6941,3.6941,3.6941,3.6941,3.6941,3.6941,3.6754,3.654,3.654,3.6139,3.5658,3.5658,3.5458,3.5244,3.5217,3.5217,3.5217,3.5204,3.5191,3.5191,3.5191,3.5191,3.5191,3.5191,3.5191,3.5191,3.5191,3.5191,3.5191,3.5191,3.5191,3.5191,3.5191,3.5191,3.5297,3.5591,3.5378,3.5097,3.4817,3.4776,3.4549,3.3975,3.3895,3.3654,3.3093,3.3267,3.3293,3.304,3.3013,3.3,3.3,3.2732,3.2585,3.2585,3.2585,3.2585,3.2585,3.2585,3.2732,3.2986,3.2719,3.2746,2.6044,2.7987,3.0134,3.1235,3.177,3.2144,3.2732,3.2759,3.2652,3.2652,3.1837,3.1209,3.1503,3.1436,3.1917,3.3708,3.4603,3.5471,3.658,3.6727,3.654,3.6019,3.6153,3.6086,3.5565,3.5658,3.5925,3.6366,3.6473,3.654,3.662,3.6834,3.6941,3.6941,3.6941,3.6941,3.6941,3.6941,3.6941,3.6941,3.6941,3.6941,3.6941,3.6941,3.6941,3.6941,3.6941,3.6941,3.6941,3.6941,3.6941,3.6941,3.6941,3.6941,3.6941,3.6941,3.6901,3.6834,3.6834,3.6433,3.5952,3.5952,3.5912,3.5805,3.5591,3.5511,3.5471,3.5257,3.5191,3.5191,3.5191,3.5191,3.5191,3.5191,3.5191,3.5191,3.5191,3.5191,3.5191,3.5191,3.5191,3.5191,3.5191,3.5191,3.5297,3.5591,3.5378,3.5177,3.5097,3.4897,3.4616,3.4242,3.4015,3.3908,3.3975,3.3627,3.348,3.3641,3.3427,3.3293,3.3293,3.3227,3.3187,3.3187,3.3187,3.3187,3.3187,3.3187,3.3227,3.3293,3.3227,3.336,2.8603,3.0078,3.1517,3.1944,3.2171,3.2318,3.2385,3.2278,3.2051,3.1664,3.0862,3.0314,3.0595,3.0648,3.1236,3.3013,3.4148,3.5217,3.6393,3.6687,3.6687,3.6473,3.6473,3.638,3.6046,3.6006,3.6099,3.6299,3.6313,3.6433,3.6687,3.6861,3.6941,3.6941,3.6941,3.6941,3.6941,3.6941,3.6941,3.6941,3.6941,3.6941,3.6941,3.6941,3.6941,3.6941,3.6941,3.6941,3.6941,3.6941,3.6941,3.6941,3.6941,3.6941,3.6941,3.6941,3.6941,3.6941,3.6941,3.6727,3.6433,3.6299,3.6179,3.6046,3.5872,3.5738,3.5618,3.5591,3.5391,3.5231,3.5351,3.5284,3.5191,3.5191,3.5191,3.5191,3.5191,3.5297,3.5431,3.5551,3.5471,3.5431,3.5551,3.5364,3.5378,3.5925,3.5551,3.5297,3.5551,3.5217,3.4843,3.4549,3.4362,3.4282,3.4322,3.4002,3.3828,3.3881,3.3721,3.3561,3.3414,3.3414,3.3414,3.3414,3.3414,3.348,3.3614,3.3614,3.3681,3.3814,3.3814,3.3908,3.1463,3.173,3.1917,3.2465,3.2572,3.2398,3.1851,3.1664,3.137,3.0488,2.9833,2.9513,2.9806,2.9927,3.0555,3.2318,3.3574,3.4736,3.5965,3.6353,3.662,3.6901,3.6727,3.658,3.658,3.654,3.6433,3.6206,3.6153,3.6353,3.6861,3.6901,3.6941,3.7008,3.6967,3.6981,3.7048,3.6981,3.6967,3.7008,3.6967,3.6941,3.6941,3.6941,3.6941,3.6941,3.6941,3.6941,3.6941,3.6941,3.6941,3.6941,3.6941,3.6941,3.6941,3.6941,3.6941,3.6941,3.6941,3.6941,3.6901,3.6647,3.6366,3.6126,3.6086,3.5872,3.5672,3.5899,3.5618,3.5311,3.5565,3.5471,3.5311,3.5311,3.5284,3.5271,3.5311,3.5511,3.5765,3.6019,3.5872,3.5765,3.6032,3.5645,3.5591,3.638,3.5792,3.5458,3.6006,3.5565,3.5097,3.4843,3.479,3.467,3.4456,3.4362,3.4229,3.4015,3.3961,3.3814,3.3547,3.3534,3.3534,3.3534,3.3534,3.3668,3.3948,3.3948,3.4068,3.4322,3.4322,3.4336,3.1623,3.2024,3.2478,3.2826,3.2719,3.2452,3.2104,3.165,3.1049,3.0181,2.9526,2.9205,2.9499,2.9953,3.0862,3.2625,3.3694,3.4817,3.6233,3.6473,3.662,3.6901,3.6901,3.6861,3.6861,3.6647,3.658,3.6754,3.658,3.6473,3.658,3.6794,3.7048,3.7301,3.7048,3.7155,3.7662,3.7195,3.7048,3.7301,3.7048,3.6941,3.6941,3.6941,3.6941,3.6941,3.6941,3.6941,3.6941,3.6941,3.6941,3.6941,3.6941,3.6941,3.6941,3.6941,3.6941,3.6941,3.6941,3.6941,3.6941,3.6874,3.6647,3.6393,3.6139,3.5872,3.5591,3.5404,3.5444,3.5565,3.5618,3.5778,3.5925,3.5925,3.5738,3.5618,3.5872,3.5965,3.6006,3.6059,3.6032,3.6019,3.6059,3.5992,3.6059,3.6433,3.5965,3.5685,3.6032,3.5565,3.5177,3.5124,3.491,3.4843,3.503,3.4603,3.4402,3.4603,3.4376,3.4215,3.4162,3.4162,3.4162,3.4162,3.4162,3.4189,3.4242,3.4242,3.4269,3.4322,3.4322,3.4456,3.2265,3.2559,3.2839,3.3133,3.2866,3.2345,3.1597,3.0969,3.0247,2.9205,2.8764,2.8671,2.8978,2.9513,3.0274,3.1423,3.2492,3.3627,3.495,3.5538,3.6046,3.6647,3.6834,3.6941,3.6941,3.6834,3.6794,3.6941,3.6794,3.6727,3.6727,3.7008,3.7155,3.7155,3.7155,3.7235,3.7342,3.7088,3.7008,3.7155,3.7008,3.6941,3.6941,3.6941,3.6941,3.6941,3.6941,3.6941,3.6941,3.6941,3.6941,3.6941,3.6941,3.6941,3.6941,3.6941,3.6941,3.6941,3.6941,3.6941,3.6941,3.6941,3.6834,3.6687,3.6393,3.6086,3.5832,3.5698,3.5645,3.5672,3.5819,3.5965,3.6032,3.5885,3.5618,3.5565,3.6166,3.6179,3.6166,3.6473,3.6393,3.6353,3.65,3.6273,3.6219,3.6647,3.6099,3.5738,3.6032,3.5698,3.5364,3.5204,3.507,3.5044,3.5191,3.5084,3.4937,3.4776,3.4776,3.4643,3.4336,3.4322,3.4322,3.4322,3.4322,3.4402,3.4549,3.4549,3.471,3.5004,3.5004,3.5164,3.2812,3.3066,3.3227,3.3454,3.3026,3.2238,3.1062,3.0287,2.9499,2.8377,2.8136,2.8243,2.8551,2.9032,2.9619,3.0341,3.133,3.2465,3.3801,3.4683,3.5525,3.6393,3.6754,3.6941,3.6941,3.6941,3.6941,3.6941,3.6941,3.6967,3.7008,3.7301,3.7382,3.7128,3.7301,3.7301,3.7114,3.7008,3.6981,3.7048,3.7048,3.7008,3.6941,3.7008,3.7008,3.6941,3.6941,3.6941,3.6941,3.6941,3.6941,3.6941,3.6941,3.6941,3.6941,3.6941,3.6941,3.6941,3.6941,3.6941,3.6941,3.6941,3.6901,3.6794,3.65,3.6206,3.5965,3.5899,3.5765,3.5685,3.5912,3.6019,3.6019,3.5778,3.5551,3.5591,3.634,3.6326,3.6313,3.6834,3.6754,3.6687,3.6901,3.658,3.6393,3.6861,3.6299,3.5899,3.6139,3.5912,3.5631,3.5404,3.5324,3.5284,3.5284,3.5498,3.5404,3.4897,3.5124,3.5057,3.4523,3.4563,3.4576,3.4509,3.4629,3.4776,3.495,3.5017,3.5284,3.5725,3.5725,3.5845,3.2812,3.3387,3.3814,3.3841,3.3187,3.2238,3.1062,3.014,2.9259,2.8337,2.8136,2.8243,2.8551,2.8871,2.9446,3.0568,3.1289,3.2318,3.4042,3.4803,3.5525,3.6393,3.6754,3.6941,3.6941,3.6941,3.6941,3.6941,3.6941,3.7048,3.7342,3.7635,3.7782,3.7742,3.7489,3.7489,3.7742,3.7195,3.7088,3.7342,3.7342,3.7195,3.6941,3.7235,3.7195,3.6941,3.6941,3.6941,3.6941,3.6941,3.6941,3.6941,3.6941,3.6941,3.6941,3.6941,3.6941,3.6941,3.6941,3.6941,3.6941,3.6941,3.6754,3.65,3.6206,3.5912,3.5618,3.5351,3.5444,3.5631,3.5658,3.5872,3.6059,3.6046,3.6006,3.6086,3.6433,3.6473,3.654,3.6861,3.6901,3.6901,3.6941,3.6901,3.6861,3.6941,3.6647,3.6433,3.6473,3.6206,3.6019,3.5992,3.5752,3.5591,3.5591,3.5618,3.5498,3.5177,3.5431,3.5444,3.5124,3.5364,3.5391,3.5124,3.5645,3.5792,3.5551,3.5819,3.5979,3.6032,3.6032,3.6046,3.2986,3.3561,3.3881,3.3881,3.3347,3.2452,3.1102,3.0247,2.9446,2.8364,2.8136,2.8177,2.831,2.8417,2.8657,2.9125,2.9553,3.0381,3.1971,3.2853,3.3921,3.5525,3.6126,3.654,3.6901,3.6941,3.6941,3.6941,3.7088,3.7275,3.7382,3.7489,3.7489,3.7301,3.7342,3.7342,3.7301,3.7048,3.7008,3.7128,3.7128,3.7048,3.6941,3.7235,3.7235,3.6941,3.7128,3.7088,3.6941,3.6941,3.6941,3.6941,3.6941,3.6941,3.6941,3.6941,3.6941,3.6941,3.6941,3.6941,3.6941,3.6941,3.6861,3.6727,3.6433,3.6246,3.6099,3.5805,3.5925,3.6153,3.6153,3.6246,3.6326,3.6326,3.6206,3.6153,3.6433,3.65,3.654,3.6647,3.6834,3.6941,3.6941,3.6941,3.6941,3.6941,3.6687,3.65,3.65,3.6259,3.6139,3.6313,3.6072,3.5899,3.5899,3.6059,3.5952,3.5485,3.5899,3.5872,3.5217,3.5645,3.5752,3.5458,3.5859,3.6019,3.5899,3.6019,3.6166,3.6326,3.6326,3.6433,3.308,3.3708,3.4015,3.4015,3.336,3.2385,3.1089,3.014,2.9272,2.8337,2.8136,2.8136,2.8136,2.8136,2.8177,2.827,2.8684,2.9446,3.0742,3.1677,3.2839,3.4469,3.5124,3.5685,3.6353,3.6727,3.6941,3.6941,3.7195,3.7342,3.7275,3.7342,3.7275,3.7088,3.7275,3.7235,3.6941,3.6941,3.6981,3.7088,3.7088,3.7088,3.7088,3.7275,3.7235,3.6941,3.7155,3.7128,3.6941,3.6941,3.6941,3.6941,3.6941,3.6941,3.6941,3.6941,3.6941,3.6941,3.6941,3.6941,3.6941,3.6941,3.6941,3.6901,3.6687,3.658,3.6433,3.6153,3.6219,3.638,3.638,3.638,3.6393,3.6473,3.6286,3.6179,3.654,3.658,3.654,3.662,3.6794,3.6941,3.6941,3.6941,3.6901,3.6834,3.6727,3.658,3.6393,3.6273,3.6246,3.6366,3.6273,3.6206,3.6206,3.6393,3.6286,3.5792,3.6233,3.6153,3.5351,3.5885,3.6019,3.5631,3.6086,3.6286,3.6206,3.6286,3.6433,3.6647,3.6647,3.6754,3.304,3.3868,3.4322,3.4322,3.32,3.1877,3.0996,2.9673,2.8524,2.8203,2.8136,2.8136,2.8136,2.8136,2.8243,2.8551,2.9339,3.0207,3.1102,3.1984,3.2759,3.336,3.3721,3.4255,3.5124,3.6259,3.6941,3.6941,3.7195,3.7275,3.6967,3.7235,3.7382,3.7382,3.7382,3.7235,3.6941,3.6941,3.7088,3.7382,3.7382,3.7382,3.7382,3.7382,3.7235,3.6941,3.6941,3.6941,3.6941,3.6941,3.6941,3.6941,3.6941,3.6941,3.6941,3.6941,3.6941,3.6941,3.6941,3.6941,3.6941,3.6941,3.6941,3.6941,3.6941,3.6727,3.6433,3.6153,3.6072,3.6072,3.6072,3.6072,3.6153,3.6433,3.6286,3.6233,3.6794,3.6727,3.658,3.6861,3.6941,3.6941,3.6941,3.6941,3.6834,3.654,3.6754,3.6727,3.6153,3.6326,3.6393,3.6112,3.6326,3.65,3.65,3.65,3.638,3.6086,3.634,3.6233,3.5645,3.6193,3.6219,3.5645,3.65,3.6794,3.65,3.6794,3.6941,3.6941,3.6941,3.6941,3.1396,3.2064,3.2465,3.2251,3.1704,3.0982,3.01,2.9379,2.8764,2.8243,2.8136,2.8136,2.8136,2.8136,2.8377,2.9085,2.9446,2.9927,3.0808,3.169,3.2465,3.3053,3.4456,3.5565,3.6046,3.6607,3.7784,3.9718,3.8087,3.8762,4.2497,3.916,3.7088,3.7088,3.7088,3.7048,3.6941,3.6941,3.6981,3.7088,3.7088,3.7088,3.7088,3.7275,3.7235,3.6941,3.7155,3.7128,3.6941,3.6941,3.6941,3.6941,3.6941,3.6941,3.6941,3.6941,3.6941,3.6941,3.6941,3.6941,3.6941,3.6941,3.6941,3.6941,3.6941,3.6861,3.6794,3.6687,3.6647,3.662,3.6433,3.6513,3.6647,3.654,3.658,3.6647,3.6647,3.6727,3.6754,3.6647,3.6794,3.6941,3.6941,3.6941,3.6901,3.6834,3.6874,3.6861,3.6687,3.6393,3.6246,3.6353,3.6273,3.6286,3.65,3.6687,3.6687,3.6393,3.6647,3.654,3.5952,3.65,3.662,3.6233,3.6687,3.6901,3.6794,3.6901,3.6941,3.6941,3.6941,3.6941,3.0541,3.1142,3.1463,3.1276,3.0835,3.0287,2.9633,2.9072,2.8591,2.8217,2.8136,2.8136,2.8136,2.8136,2.8323,2.8885,2.9352,2.9833,3.0381,3.1316,3.2198,3.2893,3.4416,3.6018,3.7596,3.8124,3.9252,4.0818,3.9442,3.9617,4.1912,3.8631,3.6727,3.662,3.6834,3.6941,3.6941,3.6941,3.7008,3.7088,3.6981,3.7008,3.7114,3.7195,3.7128,3.6941,3.7128,3.7114,0.0,3.6941,3.6941,3.6941,3.6941,3.6941,3.6941,3.6941,3.6941,3.6941,3.6941,3.6941,3.6941,3.6941,3.6941,3.6941,3.6941,3.6941,3.6941,3.6941,3.6941,3.6901,3.6727,3.6794,3.6901,3.6727,3.6794,3.6901,3.6727,3.6794,3.6901,3.6714,3.6727,3.6794,3.6901,3.6834,3.6754,3.6754,3.6861,3.6861,3.6647,3.6299,3.6099,3.6166,3.6019,3.5979,3.6153,3.6647,3.6861,3.6687,3.6834,3.6727,3.6259,3.6687,3.6754,3.6353,3.6727,3.6901,3.6754,3.6901,3.6941,3.6941,3.6941,3.6941,0.0,3.0822,3.1036,3.1009,3.0394,2.9726,2.9446,2.8738,0.0,2.8136,2.8136,2.8136,2.8136,2.8136,2.8163,2.823,2.9179,2.9913,3.0119,3.1141,3.223,3.2986,3.3881,3.5748,3.9285,4.0645,4.1079,4.1179,4.122,4.0267,3.7353,3.7168,3.6979,3.6908,3.7251,3.7329,3.6901,3.6941,3.7088,3.7342,3.7088,3.7088,3.7342,3.7048,3.6941,3.6941,3.6941,3.6941,3.6941,3.6941,3.6941,3.6941,3.6941,3.6941,3.6941,3.6941,3.6941,3.6941,3.6941,3.6941,3.6941,3.6941,3.6941,3.6941,3.6941,3.6941,3.6941,3.6941,3.6941,3.6941,3.6941,3.6941,3.6941,3.6941,3.6941,3.6941,3.6941,3.6941,3.6941,3.6941,3.6727,3.662,3.6901,3.6727,3.654,3.654,3.6754,3.6754,3.6206,3.6099,3.5979,3.5712,3.5672,3.5672,3.5685,3.6433,3.6901,3.6901,3.6941,3.6834,3.654,3.6794,3.6687,3.6139,3.6647,3.6794,3.654,3.6794,3.6941,3.6941,3.6941,3.6941,2.8671,0.0,2.9165,2.8925,2.8711,2.8537,0.0,2.8297,2.8136,2.8136,2.8136,2.8136,2.8136,2.8136,2.8364,2.9058,2.9593,3.0519,3.267,3.3984,3.4667,3.4353,3.4923,3.5697,3.6972,3.9516,4.1927,4.3687,4.3947,4.5273,4.8574,4.4682,4.3447,4.5444,4.3769,4.0839,3.662,3.6834,3.6981,3.7048,3.6981,3.6981,3.7048,3.6981,3.6941,3.6941,3.6941,3.6941,3.6941,3.6941,3.6941,3.6941,3.6941,3.6941,3.6941,3.6941,3.6941,3.6941,3.6941,3.6941,3.6941,3.6941,3.6941,3.6941,3.6941,3.6941,3.6941,3.6941,3.6941,3.6941,3.6941,3.6941,3.6941,3.6941,3.6941,3.6941,3.6941,3.6941,3.6941,3.6941,3.6874,3.6861,3.6941,3.6874,3.6834,3.6834,3.6901,3.6901,3.6754,3.6353,3.6126,3.6286,3.6099,3.6059,3.6273,3.65,3.6607,3.6607,3.6834,3.6901,3.6834,3.6901,3.6861,3.6727,3.6861,3.6901,3.6834,3.6901,3.6941,3.6941,3.6941,3.6941,2.8136,2.8377,2.8564,2.839,2.835,2.835,2.835,2.8243,2.8136,2.8136,2.8136,2.8136,2.8136,2.8136,2.8636,3.0125,3.0874,3.2019,3.4448,3.665,3.7132,3.5166,3.7614,3.9462,3.9788,4.2792,4.5213,4.6132,4.6303,4.6968,4.8234,4.5704,4.4078,4.4323,4.3318,4.2201,4.0305,3.9342,3.887,3.887,3.7577,3.6941,3.6941,3.6941,3.6941,3.6941,3.6941,3.6941,3.6941,3.6941,3.7008,3.7155,3.7155,3.7155,3.7155,3.7155,3.7048,3.6941,3.6941,3.6941,3.6941,3.6941,3.6941,3.6941,3.6941,3.6941,3.6941,3.6941,3.6941,3.6941,3.6941,3.6941,3.6941,3.6941,3.6941,3.6941,3.6941,3.6941,3.6981,3.7128,3.6941,3.6834,3.7088,3.6901,3.6794,3.6901,3.6941,3.6941,3.6941,3.654,3.6326,3.65,3.6126,3.5992,3.6286,3.6313,3.6433,3.6687,3.6861,3.6941,3.6941,3.6941,3.6941,3.6941,3.6794,3.6794,3.6941,3.6941,3.6941,3.6941,3.6941,3.6941,2.8203,2.847,2.8711,2.8577,2.8577,2.8591,2.8551,2.8337,2.8136,2.8136,2.8136,2.8136,2.8136,2.8514,2.9215,3.0796,3.2714,3.4366,3.597,3.883,3.9652,3.6246,4.0416,4.3648,4.4358,4.7234,4.8826,4.8105,4.8398,4.7178,4.4144,4.4227,4.3051,4.0172,4.0816,4.2351,4.4709,4.1897,4.0576,4.0576,3.8018,3.6941,3.6941,3.6981,3.7008,3.7008,3.7008,3.7008,3.7008,3.6967,3.7088,3.7315,3.7315,3.7315,3.7315,3.7315,3.7155,3.6941,3.6941,3.6941,3.6941,3.6941,3.6941,3.6941,3.6941,3.6941,3.6941,3.6941,3.6941,3.6941,3.6941,3.6941,3.6941,3.6941,3.6941,3.6941,3.6941,3.6981,3.7048,3.7275,3.6941,3.6794,3.7235,3.6901,3.6647,3.6901,3.6941,3.6941,3.6941,3.6687,3.6513,3.658,3.6086,3.5885,3.6179,3.6206,3.6393,3.6901,3.6941,3.6941,3.6941,3.6941,3.6941,3.6941,3.6687,3.6687,3.6941,3.6941,3.6941,3.6941,3.6941,3.6941,2.847,2.8938,2.9165,2.8404,2.8417,2.8537,2.827,2.8177,2.8136,2.8136,2.8136,2.8136,2.8136,2.9986,3.0991,3.0038,3.4484,3.804,3.7117,3.9557,4.0617,3.8944,4.0003,4.1837,4.4184,4.7234,4.8952,4.8502,5.0222,5.0044,4.6986,4.6822,4.5761,4.3165,4.3621,4.4204,4.4709,3.998,3.7577,3.7577,3.7149,3.6941,3.6941,3.7195,3.7315,3.7315,3.7315,3.7315,3.7301,3.7048,3.6967,3.7008,3.7008,3.7008,3.7008,3.7008,3.6981,3.6941,3.6941,3.6941,3.6941,3.6941,3.6941,3.6941,3.6941,3.6941,3.6941,3.6941,3.6941,3.6941,3.6941,3.6941,3.6941,3.6941,3.6941,3.6941,3.6941,3.7128,3.7261,3.7048,3.7128,3.7195,3.7048,3.6941,3.6901,3.6941,3.6941,3.6941,3.6941,3.6687,3.6607,3.6834,3.658,3.65,3.6794,3.6794,3.6834,3.6941,3.6941,3.6941,3.6941,3.6941,3.6941,3.6941,3.6901,3.6901,3.6941,3.6941,3.6941,3.6941,3.6941,3.6941,2.7843,2.831,2.8698,2.8457,2.8858,2.9192,2.8738,2.8511,2.835,2.8177,2.8136,2.819,2.8364,2.9721,3.1711,3.4457,3.9982,4.3189,4.185,4.4307,4.4511,3.9783,4.3962,4.6183,4.4334,4.837,5.1025,5.0855,5.1281,5.0618,4.8198,4.8015,4.6043,4.1875,4.2392,4.2019,4.0305,3.8072,3.7784,3.928,3.7591,3.6941,3.6941,3.7088,3.7155,3.7155,3.7155,3.7155,3.7128,3.7008,3.7048,3.7168,3.7168,3.7168,3.7155,3.7008,3.6941,3.6941,3.6941,3.6941,3.6941,3.6941,3.6941,3.6941,3.6941,3.6941,3.6941,3.6941,3.6941,3.6941,3.6941,3.6941,3.6941,3.6941,3.6941,3.6941,3.6941,3.7048,3.7155,3.7155,3.7155,3.7155,3.7168,3.7048,3.6941,3.6941,3.6941,3.6941,3.6941,3.6834,3.6794,3.6941,3.6687,3.662,3.6901,3.6794,3.6754,3.6941,3.6941,3.6941,3.6941,3.6941,3.6941,3.6941,3.6941,3.6941,3.6941,3.6941,3.6941,3.6941,3.6941,3.6941,2.7455,2.7856,2.831,2.8551,2.9165,2.9646,2.9406,2.9125,2.8871,2.8698,2.8604,2.8604,2.8778,2.9646,3.2324,3.8537,4.3385,4.5795,4.4201,4.6634,4.6502,4.0825,4.6345,4.9368,4.6264,5.0027,5.2754,5.2851,5.1537,4.976,4.7687,4.6886,4.4233,3.9509,3.9776,3.8891,3.662,3.6834,3.8018,4.014,3.8004,3.6941,3.6941,3.7008,3.7048,3.7048,3.7048,3.7048,3.7048,3.6967,3.7088,3.7275,3.7275,3.7275,3.7235,3.7008,3.6941,3.6941,3.6941,3.6941,3.6941,3.6941,3.6941,3.6941,3.6941,3.6941,3.6941,3.6941,3.6941,3.6941,3.6941,3.6941,3.6941,3.6941,3.6941,3.6941,3.6941,3.6981,3.7088,3.7235,3.7155,3.7088,3.7235,3.7088,3.6941,3.6941,3.6941,3.6941,3.6941,3.6941,3.6941,3.6941,3.6727,3.6687,3.6901,3.6727,3.6687,3.6941,3.6941,3.6941,3.6941,3.6941,3.6941,3.6941,3.7008,3.7048,3.7048,3.7114,3.7114,3.7048,3.7034,3.7008,2.8003,2.8323,2.8577,2.8604,2.8858,2.9312,3.0087,3.0034,2.9887,3.0154,2.998,2.9713,2.9459,3.0581,3.3323,3.8514,4.1624,4.2209,3.95,4.181,4.3657,4.3099,4.4073,4.6485,5.1582,5.2476,5.2871,5.3281,5.0381,4.7447,4.4806,4.211,3.9538,3.6883,3.6732,3.6866,3.6901,3.6941,3.6954,3.7162,3.6954,3.6941,3.6941,3.7235,3.7342,3.7342,3.7342,3.7342,3.7342,3.7048,3.6941,3.6981,3.6981,3.6981,3.6967,3.6941,3.6941,3.6941,3.6941,3.6941,3.6941,3.6941,3.6941,3.6941,3.6941,3.6941,3.6941,3.6941,3.6941,3.6941,3.6941,3.6941,3.6941,3.6941,3.6941,3.6941,3.6941,3.7155,3.7275,3.7008,3.7168,3.7275,3.7008,3.6941,3.6941,3.6941,3.6941,3.6941,3.6941,3.6941,3.6941,3.6941,3.6901,3.6901,3.6941,3.6901,3.6901,3.6941,3.6941,3.6941,3.6941,3.6941,3.6941,3.6941,3.7195,3.7342,3.7342,3.7635,3.7609,3.7355,3.7091,3.6945,2.7295,2.7549,2.7909,2.847,2.8818,2.9219,2.9927,3.014,3.0274,3.0568,3.0541,3.0541,3.0795,3.3051,3.5618,3.8071,4.1142,4.3322,4.3925,4.5065,4.5753,4.5753,4.7726,4.9347,5.0176,5.0213,5.0381,5.0791,4.773,4.4698,4.2211,4.0967,3.9214,3.6767,3.6754,3.6834,3.6941,3.6941,3.6941,3.6941,3.6941,3.6941,3.6941,3.7048,3.7114,3.7114,3.7114,3.7114,3.7088,3.6981,3.6941,3.6941,3.6941,3.6941,3.6941,3.6941,3.6941,3.6941,3.6941,3.6941,3.6941,3.6941,3.6941,3.6941,3.6941,3.6941,3.6941,3.6941,3.6941,3.6941,3.6941,3.7088,3.7195,3.7195,3.7195,3.7195,3.7195,3.7155,3.7088,3.6967,3.7168,3.7275,3.6981,3.7088,3.7155,3.6967,3.6941,3.6941,3.6941,3.6941,3.6941,3.6941,3.6941,3.6941,3.6941,3.6941,3.6941,3.6941,3.6941,3.6941,3.6941,3.7128,3.7195,3.7195,3.7489,3.7635,3.7635,3.7529,3.7729,3.7635,3.7197,3.6814,2.6961,2.7175,2.7549,2.8163,2.8751,2.9366,3.0034,3.0568,3.1049,3.1517,3.1396,3.1303,3.161,3.3709,3.573,3.6202,3.9473,4.2302,4.3318,4.4329,4.4749,4.4749,4.6906,4.7921,4.7465,4.7418,4.7647,4.8016,4.508,4.2532,4.1084,4.0036,3.8645,3.6941,3.6941,3.6941,3.6941,3.6941,3.6941,3.6941,3.6941,3.6941,3.6941,3.6941,3.6941,3.6941,3.6941,3.6941,3.6941,3.6941,3.6941,3.6941,3.6941,3.6941,3.6941,3.6941,3.6941,3.6941,3.6941,3.6941,3.6941,3.6941,3.6941,3.6941,3.6941,3.6941,3.6941,3.6941,3.6941,3.6941,3.6941,3.7088,3.7235,3.7235,3.7235,3.7235,3.7235,3.7088,3.6941,3.6941,3.7088,3.7168,3.6981,3.7114,3.7155,3.6967,3.6941,3.6941,3.6941,3.6941,3.6941,3.6941,3.6941,3.6941,3.6941,3.6941,3.6941,3.6941,3.7008,3.7088,3.7088,3.7275,3.7422,3.7529,3.7809,3.7956,3.7956,3.7821,3.8023,3.7969,3.7676,3.7211,2.7268,2.7468,2.7696,2.7709,2.8604,2.9726,3.0608,3.1476,3.2358,3.324,3.2719,3.2024,3.1744,3.2398,3.2986,3.2986,3.6607,3.8248,3.5612,3.7652,3.927,3.927,3.9554,4.0915,4.4151,4.4721,4.4857,4.5431,4.2697,4.1213,4.1213,3.8445,3.6941,3.6941,3.6941,3.6941,3.6941,3.6941,3.6941,3.6941,3.6941,3.6941,3.6941,3.6941,3.6941,3.6941,3.6941,3.6941,3.6941,3.6941,3.6941,3.6941,3.6941,3.6941,3.6941,3.6941,3.6941,3.6941,3.6941,3.6941,3.6941,3.6941,3.6941,3.6941,3.6941,3.6941,3.6941,3.6941,3.6941,3.6941,3.6941,3.6941,3.6941,3.6941,3.6941,3.6941,3.6941,3.6941,3.6941,3.6941,3.6941,3.6941,3.6941,3.6941,3.6941,3.6941,3.6941,3.6941,3.6941,3.6941,3.6941,3.6941,3.6941,3.6941,3.6941,3.6941,3.6941,3.6941,3.7235,3.7382,3.7382,3.7382,3.7529,3.7809,3.8116,3.8263,3.8263,3.8584,3.8597,3.8762,3.8733,3.7942,2.7014,2.7321,2.7802,2.823,2.9219,3.0381,3.1463,3.2078,3.2719,3.3828,3.3521,3.3013,3.2919,3.3293,3.3614,3.3614,3.5102,3.6831,3.7846,3.8871,4.0172,4.2246,4.2564,4.3076,4.4496,4.2972,4.2034,4.2126,3.9588,3.8142,3.792,3.7262,3.6941,3.6941,3.6941,3.6941,3.6941,3.6941,3.6941,3.6941,3.6941,3.6941,3.6941,3.6941,3.6941,3.6941,3.6941,3.6941,3.6941,3.6941,3.6941,3.6941,3.6941,3.6941,3.6941,3.6941,3.6941,3.6941,3.6941,3.6941,3.6941,3.6941,3.6941,3.6941,3.6941,3.6941,3.6941,3.6941,3.6941,3.6941,3.6941,3.6941,3.6981,3.7195,3.7235,3.7235,3.7235,3.7088,3.6941,3.6941,3.7114,3.7195,3.6981,3.7128,3.7195,3.6981,3.6941,3.6941,3.6941,3.6941,3.6941,3.6941,3.6941,3.6941,3.6941,3.6941,3.6941,3.6941,3.7235,3.7382,3.7382,3.7782,3.8036,3.8116,3.8437,3.8584,3.8584,3.8691,3.8691,3.8597,3.86,3.8036,2.7362,2.7869,2.8524,2.9005,3.0007,3.1249,3.2666,3.312,3.3521,3.4469,3.4202,3.3788,3.3774,3.3935,3.4095,3.4215,3.4776,3.585,3.76,3.7724,3.8379,4.033,4.0691,4.0981,4.1515,3.989,3.9098,3.9213,3.7592,3.6754,3.6687,3.6834,3.6941,3.6941,3.6941,3.6941,3.6941,3.6941,3.6941,3.6941,3.6941,3.6941,3.6941,3.6941,3.6941,3.6941,3.6941,3.6941,3.6941,3.6941,3.6941,3.6941,3.6941,3.6941,3.6941,3.6941,3.6941,3.6941,3.6941,3.6941,3.6941,3.6941,3.6941,3.6941,3.6941,3.6941,3.6941,3.6941,3.6941,3.6941,3.6941,3.6941,3.6981,3.7155,3.7195,3.7195,3.7195,3.7048,3.6941,3.6941,3.7088,3.7155,3.6967,3.7088,3.7155,3.6967,3.6941,3.6941,3.6941,3.6941,3.6941,3.6941,3.6941,3.6941,3.6941,3.6941,3.6941,3.6941,3.7235,3.7422,3.7555,3.801,3.833,3.8437,3.8624,3.8718,3.8718,3.8718,3.8664,3.8788,3.8801,3.8009,2.803,2.8804,2.9606,2.9953,3.0955,3.2305,3.3975,3.4376,3.4563,3.5124,3.4817,3.4442,3.4469,3.4482,3.4563,3.483,3.5097,3.5364,3.5631,3.5444,3.5391,3.5672,3.5952,3.6233,3.6513,3.654,3.6647,3.6901,3.6687,3.6647,3.6941,3.6941,3.6941,3.6941,3.6941,3.6941,3.6941,3.6941,3.6941,3.6941,3.6941,3.6941,3.6941,3.6941,3.6941,3.6941,3.6941,3.6941,3.6941,3.6941,3.6941,3.6941,3.6941,3.6941,3.6941,3.6941,3.6941,3.6941,3.6941,3.6941,3.6941,3.6941,3.6941,3.6941,3.6941,3.6941,3.6941,3.6941,3.6941,3.6941,3.6941,3.6941,3.6941,3.6981,3.6967,3.6941,3.6941,3.6941,3.6941,3.6941,3.6941,3.6941,3.6941,3.6941,3.6941,3.6941,3.6941,3.6941,3.6941,3.6941,3.6941,3.6941,3.6941,3.6941,3.6941,3.6941,3.6941,3.6941,3.7235,3.7489,3.7782,3.8076,3.8397,3.8718,3.8718,3.8718,3.8718,3.8691,3.8788,3.8762,3.8692,3.7901,2.7776,2.8791,3.0007,3.0755,3.2185,3.3627,3.4469,3.4843,3.511,3.5458,3.5431,3.5418,3.5658,3.5698,3.5712,3.5778,3.5845,3.5899,3.5965,3.5925,3.5992,3.6286,3.638,3.654,3.6834,3.6834,3.6861,3.6941,3.6874,3.6861,3.6941,3.6941,3.6941,3.6941,3.6941,3.6941,3.6941,3.6941,3.6941,3.6941,3.6941,3.6941,3.6941,3.6941,3.6941,3.6941,3.6941,3.6941,3.6941,3.6941,3.6941,3.6941,3.6941,3.6941,3.6941,3.6941,3.6941,3.6941,3.6941,3.6941,3.6941,3.6941,3.6941,3.6941,3.6941,3.6941,3.6941,3.6941,3.6941,3.6941,3.6941,3.6941,3.7008,3.7235,3.7114,3.6941,3.6941,3.6941,3.6941,3.6941,3.6941,3.6941,3.6941,3.6941,3.6941,3.6941,3.6941,3.6941,3.6941,3.6941,3.6941,3.6941,3.6941,3.6941,3.6941,3.6941,3.6941,3.6941,3.7235,3.7422,3.7489,3.7969,3.8397,3.8718,3.8718,3.8718,3.8718,3.8735,3.86,3.8762,3.7716,3.7197,2.823,2.9312,3.0688,3.2131,3.3414,3.4429,3.487,3.5084,3.5324,3.5752,3.5845,3.5885,3.6046,3.6072,3.6126,3.6259,3.6166,3.6126,3.6259,3.6166,3.6815,3.8377,3.8622,3.917,4.0749,4.0862,4.0182,3.9075,3.9994,4.0197,3.9075,4.0358,4.0996,4.0996,3.9718,3.9061,3.9061,3.7591,3.6941,3.6941,3.6941,3.6941,3.6941,3.6941,3.6941,3.6941,3.6941,3.6941,3.6941,3.6941,3.6941,3.6941,3.6941,3.6941,3.6941,3.6941,3.6941,3.6941,3.6941,3.6941,3.6941,3.6941,3.6941,3.6941,3.6941,3.6941,3.6941,3.6941,3.6941,3.6941,3.6941,3.7048,3.7195,3.7342,3.7155,3.6981,3.7128,3.7048,3.6941,3.6941,3.6941,3.6941,3.6941,3.6941,3.6941,3.6941,3.6941,3.6941,3.6941,3.6941,3.6941,3.6941,3.6941,3.6941,3.6941,3.6941,3.6941,3.6941,3.7088,3.7235,3.7382,3.7676,3.8036,3.8504,3.8651,3.8664,3.8761,3.86,3.8372,3.7823,3.7264,3.6814,2.8657,2.9967,3.1557,3.348,3.4442,3.4963,3.5151,3.5271,3.5485,3.5979,3.6072,3.6099,3.6206,3.6219,3.6299,3.654,3.638,3.6313,3.654,3.6366,3.7358,4.058,4.081,4.2188,4.5235,4.52,4.4304,4.2049,4.3928,4.4092,4.2049,4.4184,4.5464,4.5464,4.2697,4.1213,4.1213,3.8431,3.6941,3.6941,3.6941,3.6901,3.6861,3.6901,3.6941,3.6941,3.6941,3.6941,3.6941,3.6941,3.6941,3.6941,3.6941,3.6941,3.6941,3.6941,3.6941,3.6941,3.6941,3.7135,3.7591,3.7591,3.7591,3.7591,3.7591,3.7356,3.6941,3.6941,3.6941,3.6941,3.6941,3.7128,3.7315,3.7382,3.7586,3.7672,3.7971,3.7781,3.7591,3.7591,3.7135,3.6941,3.6941,3.6941,3.6941,3.6941,3.6941,3.6941,3.6941,3.6941,3.6941,3.6941,3.6941,3.6941,3.6941,3.6941,3.6941,3.6941,3.6941,3.7048,3.7301,3.7342,3.7609,3.8116,3.841,3.8694,3.8695,3.8668,3.8103,3.688,3.6841,3.6905,2.8096,3.0247,3.2625,3.3935,3.4897,3.5458,3.5244,3.5591,3.5979,3.6059,3.6072,3.6233,3.6727,3.6834,3.6834,3.6861,3.6834,3.6834,3.6861,3.6834,3.7894,4.0719,4.1153,4.2235,4.5252,4.5431,4.5202,4.5039,4.5219,4.5202,4.5039,4.5252,4.5464,4.5464,4.2697,4.1213,4.1213,3.8431,3.6941,3.6941,3.6941,3.6794,3.658,3.6834,3.6941,3.6941,3.6941,3.6941,3.6941,3.6941,3.6941,3.6941,3.6941,3.6941,3.6941,3.6941,3.6941,3.6941,3.6941,3.8636,4.0576,4.0576,4.0576,4.0576,4.0576,3.887,3.6941,3.6941,3.6941,3.6941,3.6941,3.6967,3.7048,3.7315,3.9095,4.0664,4.0988,4.0796,4.0576,4.0576,3.865,3.6941,3.6941,3.6941,3.6941,3.6941,3.6941,3.6941,3.6941,3.6941,3.6941,3.6941,3.6941,3.6941,3.6941,3.6941,3.6941,3.6941,3.6941,3.6941,3.7008,3.7235,3.7422,3.7502,3.8036,3.8424,3.8665,3.866,3.7978,3.688,3.6879,3.6967,2.8951,3.0808,3.2625,3.3988,3.4736,3.5191,3.5391,3.5645,3.5912,3.6246,3.6313,3.6433,3.6861,3.6941,3.6941,3.6941,3.6941,3.7356,3.9075,3.9294,4.0996,4.5464,4.5889,4.7176,4.9954,5.0163,4.952,4.8036,4.9311,4.952,4.8018,4.9311,5.0163,5.0163,4.5906,4.3557,4.3557,3.9089,3.6861,3.6687,3.6687,3.654,3.6273,3.658,3.6794,3.6941,3.6941,3.6941,3.6941,3.6941,3.6941,3.6941,3.6941,3.6941,3.6941,3.6941,3.6941,3.6941,3.6941,3.8856,4.1213,4.1213,4.1213,4.1213,4.1213,3.928,3.6941,3.6941,3.6941,3.6941,3.6941,3.8142,3.9579,3.9736,4.1806,4.4321,4.5993,4.4871,4.3127,4.1415,3.887,3.6941,3.6941,3.6941,3.6941,3.6941,3.6941,3.6941,3.6941,3.6941,3.6941,3.6941,3.6941,3.7008,3.7155,3.7048,3.7088,3.7408,3.7275,3.7195,3.7195,3.7315,3.7315,3.7128,3.7848,3.8262,3.8605,3.872,3.8067,3.6879,3.7008,3.6941,2.9325,3.0715,3.1904,3.3387,3.4202,3.4763,3.5191,3.5525,3.5872,3.6313,3.6473,3.658,3.6901,3.6941,3.6941,3.6941,3.7577,3.8636,4.0996,4.1848,4.42,4.9311,4.9728,5.0786,5.38,5.4023,5.3166,5.103,5.2737,5.3166,5.1011,5.2942,5.4023,5.4023,4.8456,4.5464,4.5464,3.9732,3.6794,3.65,3.65,3.6353,3.6086,3.6299,3.654,3.6834,3.6901,3.6941,3.6941,3.6941,3.6941,3.6941,3.6941,3.6941,3.6941,3.6941,3.6941,3.6954,3.7798,3.9922,4.2497,4.3127,4.2912,4.2281,4.2281,3.9732,3.6941,3.6941,3.7383,3.8004,3.8004,4.0315,4.2664,4.2664,4.4801,4.7374,4.9547,4.7593,4.4842,4.2697,3.9266,3.6941,3.6941,3.6941,3.6967,3.7048,3.7048,3.7048,3.7048,3.7114,3.7128,3.7048,3.7114,3.7261,3.7489,3.7301,3.7342,3.7782,3.7595,3.7489,3.7489,3.7422,3.7275,3.6812,3.7422,3.7992,3.8276,3.8276,3.7681,3.6941,3.6941,3.6941,2.8283,2.9352,3.0381,3.1851,3.3293,3.4349,3.4376,3.5244,3.6059,3.6086,3.6313,3.658,3.6901,3.6941,3.6941,3.6941,3.928,4.0996,4.1213,4.3557,4.633,4.952,4.9728,5.0786,5.38,5.4023,5.4023,5.3819,5.3819,5.4023,5.3819,5.3819,5.4023,5.4023,4.8456,4.5464,4.5464,3.9732,3.6794,3.65,3.65,3.6353,3.6072,3.6086,3.6259,3.654,3.6834,3.6941,3.6941,3.6941,3.6941,3.6941,3.6941,3.6941,3.6941,3.6941,3.6941,3.7356,4.0125,4.2912,4.5677,4.8438,4.7387,4.5252,4.5252,4.143,3.6941,3.6941,3.887,4.0996,4.0996,4.3143,4.5284,4.5284,4.7404,4.9537,4.9746,4.7404,4.5464,4.5252,4.0779,3.6941,3.6941,3.6941,3.7048,3.7315,3.7342,3.7342,3.7342,3.7595,3.7676,3.7382,3.7595,3.7782,3.7782,3.7782,3.7782,3.7809,3.7809,3.7782,3.7782,3.7529,3.7368,3.6841,3.6879,3.6981,3.6981,3.6981,3.6941,3.6941,3.6941,3.6941,2.7963,2.8818,2.9659,3.0942,3.2225,3.3334,3.3908,3.4803,3.5672,3.6233,3.6433,3.658,3.6901,3.6941,3.7577,3.9309,4.0738,4.2743,4.6135,4.7805,4.9597,5.2138,5.2512,5.2942,5.3819,5.4023,5.4023,5.4023,5.4023,5.4023,5.4023,5.4023,5.4023,5.4023,5.0163,4.6525,4.2697,3.887,3.7538,3.874,3.7073,3.6813,3.8206,3.6731,3.6126,3.6259,3.6727,3.6941,3.6941,3.6941,3.6941,3.6941,3.6941,3.6941,3.6941,3.6941,3.6941,3.737,4.014,4.3127,4.5677,4.6737,4.6313,4.5039,4.3342,3.9951,3.7356,3.9089,4.0723,4.1904,4.362,4.6286,4.9001,5.0651,5.1669,5.195,5.028,4.7559,4.5039,4.3127,3.9513,3.6941,3.6941,3.7088,3.7195,3.7114,3.7422,3.7595,3.7422,3.7635,3.7782,3.7676,3.7742,3.7889,3.8076,3.7929,3.7996,3.8357,3.8223,3.8103,3.809,3.7983,3.7529,3.688,3.6998,3.6879,3.6941,3.6941,3.6941,3.6941,3.6941,3.6941,2.7281,2.7989,2.8751,3.0034,3.1009,3.2024,3.3414,3.4255,3.5057,3.6139,3.6433,3.6799,3.8183,3.8431,3.9061,4.0779,4.3115,4.5745,4.9329,5.0817,5.2195,5.3839,5.4023,5.4023,5.4023,5.4023,5.3965,5.3808,5.3945,5.3965,5.3808,5.3945,5.3595,5.2531,5.0786,4.7318,4.2526,4.0399,4.0134,4.1479,3.9516,3.9026,3.9449,3.8027,3.6813,3.6099,3.658,3.6861,3.6941,3.6941,3.6941,3.6941,3.6941,3.6941,3.6941,3.6941,3.7577,3.8856,4.1632,4.3986,4.5694,4.6542,4.5677,4.3772,4.1848,3.9922,3.8664,4.0941,4.3038,4.513,4.6948,4.9689,5.2436,5.4099,5.3589,5.2174,4.9637,4.7212,4.4822,4.1949,3.918,3.7235,3.7235,3.7382,3.7489,3.7382,3.7702,3.7889,3.7716,3.7929,3.8076,3.7969,3.8063,3.821,3.8397,3.8223,3.829,3.8691,3.8544,3.8397,3.8384,3.8223,3.7943,3.7529,3.7091,3.6879,3.6941,3.6941,3.6941,3.6941,3.6941,3.6941,0.0,0.0,0.0,2.9045,2.9646,3.0474,3.2772,3.3561,3.4215,3.5698,3.6233,3.7387,4.0487,4.1213,4.143,4.143,4.6118,4.9746,4.9936,5.2325,5.4043,5.4023,5.4023,5.4023,5.4023,5.4023,5.3848,5.3418,5.3789,5.3848,5.3398,5.3789,5.2718,4.9936,4.9936,4.8245,4.4936,4.492,4.4529,4.4375,4.4045,4.2437,3.9748,3.9778,3.8508,3.6099,3.6393,3.6687,3.6941,3.6941,3.6941,3.6941,3.6941,3.6941,3.6941,3.6954,3.8856,4.1632,4.4628,4.5677,4.6102,4.8875,4.5889,4.143,4.1213,4.1213,4.1505,4.2055,4.6042,5.0468,5.1059,5.3134,5.5312,5.5312,5.2904,5.0063,4.7257,4.609,4.5059,4.2362,3.9785,3.7809,3.7809,3.7809,3.7929,3.8223,3.8263,3.8263,3.8263,3.8544,3.8611,3.829,3.8544,3.8718,3.8718,3.8718,3.8718,3.8718,3.8718,3.8718,3.8718,3.8668,3.8597,3.8597,3.7485,3.6941,3.6941,3.6941,3.6941,3.6941,3.6941,3.6941,2.6226,0.0,0.0,0.0,0.0,0.0,3.0327,3.1129,3.2185,3.4095,3.6327,3.7933,3.7888,4.2971,4.6754,4.4628,4.7628,5.0927,5.2569,5.3866,5.4394,5.4062,5.4023,5.4023,5.4023,5.4023,5.3984,5.3848,5.3965,5.3965,5.3848,5.3652,5.3266,5.2942,5.0509,4.8828,4.7876,4.5775,4.5456,4.6688,4.5002,4.3698,4.2644,4.1072,3.9041,3.6393,3.6687,3.6861,3.6941,3.6941,3.6941,3.6941,3.6941,3.6941,3.7162,3.9294,4.0576,4.1848,4.6737,4.8648,4.8456,4.7176,4.6948,4.6525,4.2481,4.2883,4.5265,4.7511,4.9672,5.1886,5.3973,5.4877,5.5312,5.5312,5.2904,5.0134,4.7372,4.5138,4.2587,3.9602,3.8461,3.7809,3.7809,3.7996,3.8076,3.7956,3.833,3.8504,3.829,3.8544,3.8691,3.8611,3.8691,3.8718,3.8718,3.8718,3.8718,3.8718,3.8718,3.8718,3.8718,3.86,3.8291,3.7316,3.696,3.6905,3.6941,3.6941,3.6941,3.6941,3.6941,3.6941,2.6119,2.6507,2.6907,2.7281,0.0,0.0,3.0034,3.0595,3.145,3.3774,3.5786,3.7309,3.7983,4.2351,4.57,4.5428,4.705,4.9579,5.3429,5.4258,5.4316,5.4062,5.4023,5.4023,5.4023,5.4023,5.3945,5.3769,5.375,5.3672,5.3496,5.3242,5.3301,5.373,5.1795,5.0828,5.0828,4.9133,4.8826,4.9859,4.8429,4.719,4.5755,4.3414,4.0934,3.8216,3.7235,3.6941,3.6941,3.6941,3.6941,3.6941,3.6941,3.6941,3.7356,4.014,4.2065,4.3557,4.8228,4.971,4.952,4.7808,4.7598,4.7404,4.4162,4.5431,4.8254,5.0312,5.2388,5.4213,5.5766,5.6015,5.5609,5.428,5.1639,4.8854,4.5965,4.3128,4.0405,3.8452,3.8183,3.8183,3.8183,3.833,3.8397,3.821,3.8504,3.8651,3.8477,3.8611,3.8718,3.8718,3.8718,3.8718,3.8718,3.8718,3.8718,3.8718,3.8718,3.8718,3.8718,3.8694,3.8116,3.681,3.6999,3.6972,3.6941,3.6941,3.6941,3.6941,3.6941,3.6941,2.6052,2.6453,0.0,2.7843,2.7696,0.0,3.0635,3.0875,3.1249,3.3721,3.4447,3.5761,3.8778,4.0063,4.1248,4.3832,4.4953,4.7249,5.2718,5.3166,5.339,5.3819,5.3858,5.3673,5.4101,5.4141,5.3984,5.3535,5.3457,5.3262,5.2871,5.2812,5.2988,5.3418,5.3379,5.3359,5.3359,5.332,5.3066,5.2637,5.2695,5.1257,4.8574,4.6058,4.3311,4.081,3.81,3.6941,3.6941,3.6941,3.6941,3.6941,3.6941,3.7149,3.7798,4.0576,4.3557,4.633,4.9293,5.0144,5.0144,4.9936,4.8246,4.6398,4.657,4.8646,5.1229,5.2032,5.4288,5.6582,5.6582,5.6582,5.5901,5.2781,4.9896,4.6782,4.3868,4.0742,3.8718,3.8718,3.8718,3.8718,3.8718,3.8718,3.8718,3.8718,3.8718,3.8718,3.8718,3.8718,3.8718,3.8718,3.8718,3.8718,3.8718,3.8718,3.8718,3.8718,3.8718,3.8718,3.8718,3.8694,3.8116,3.705,3.6986,3.6945,3.6941,3.6941,3.6941,3.6941,3.6941,3.6941,2.6653,2.6907,2.7228,2.7388,2.7709,0.0,2.839,2.8764,2.9379,3.0608,3.2846,3.4549,3.4128,3.8295,4.1032,3.9334,4.2173,4.5942,5.0035,4.8665,4.8893,5.339,5.2195,5.1965,5.4344,5.4863,5.4883,5.4453,5.4101,5.3867,5.3769,5.3437,5.3437,5.3887,5.3555,5.3359,5.3359,5.3008,5.2617,5.2207,5.2558,5.1257,4.837,4.6329,4.3874,4.0907,3.8183,3.6941,3.6941,3.6941,3.6941,3.6941,3.6941,3.8431,4.0793,4.3557,4.6542,4.9311,5.21,5.3166,5.2737,5.0578,5.1011,5.1969,5.0233,5.1862,5.4493,5.534,5.6076,5.6582,5.6582,5.6582,5.5901,5.2781,4.9896,4.6766,4.3868,4.0742,3.8718,3.8718,3.8718,3.8718,3.8718,3.8718,3.8718,3.8718,3.8718,3.8718,3.8718,3.8718,3.8718,3.8718,3.8718,3.8718,3.8718,3.8718,3.8718,3.8718,3.8718,3.8718,3.8718,3.8694,3.8627,3.833,3.7315,3.7008,3.6941,3.6941,3.6941,3.6941,3.6941,3.6941,2.7081,2.7255,2.7522,2.7669,2.7816,0.0,0.0,2.8711,2.9112,3.014,3.1526,3.2676,3.2286,3.4794,3.6549,3.5662,3.7677,4.0523,4.4069,4.6278,4.9382,5.3886,5.176,5.1117,5.413,5.3233,5.2968,5.4043,5.3828,5.3594,5.3379,5.3164,5.3242,5.3691,5.3476,5.3476,5.3691,5.3262,5.3047,5.3047,5.3047,5.232,5.107,4.7215,4.4628,4.3127,3.8856,3.6941,3.6941,3.6941,3.7798,3.9075,3.9075,3.9936,4.1632,4.6118,4.8456,5.0144,5.2961,5.4023,5.3858,5.2552,5.3268,5.4247,5.3367,5.4494,5.6035,5.6465,5.6582,5.6582,5.6582,5.5471,5.3669,5.0539,4.7643,4.4517,4.1618,3.9848,3.8718,3.8718,3.8718,3.8718,3.8718,3.8718,3.8718,3.8718,3.8718,3.8718,3.8718,3.8718,3.8718,3.8718,3.8718,3.8718,3.8718,3.8718,3.8718,3.8718,3.8718,3.8718,3.8718,3.8597,3.8533,3.7809,3.7131,3.6839,3.6941,3.6941,3.6941,3.6941,3.6941,3.6941,2.7776,2.7949,2.823,2.8297,2.8257,2.839,0.0,0.0,0.0,3.0114,3.0287,3.0448,3.0982,3.1129,3.149,3.2519,3.332,3.5005,3.8612,4.383,4.8667,5.2157,4.9936,4.9221,5.2081,5.073,5.0583,5.2666,5.3041,5.2788,5.1897,5.2574,5.2988,5.334,5.3437,5.3652,5.4023,5.3574,5.3535,5.3887,5.3535,5.3333,5.2827,4.7791,4.5252,4.4414,3.9061,3.6941,3.6941,3.6941,3.865,4.1213,4.1213,4.1848,4.3342,4.8036,5.0163,5.0786,5.3166,5.4023,5.4101,5.4531,5.4785,5.5058,5.5723,5.625,5.6582,5.6582,5.6582,5.6582,5.6582,5.4787,5.2091,4.8533,4.5885,4.2988,3.9386,3.8718,3.8718,3.8718,3.8718,3.8718,3.8718,3.8718,3.8718,3.8718,3.8718,3.8718,3.8718,3.8718,3.8718,3.8718,3.8718,3.8718,3.8718,3.8718,3.8718,3.8718,3.8718,3.8718,3.8718,3.8664,3.8344,3.7303,3.7012,3.6972,3.6941,3.6941,3.6941,3.6941,3.6941,3.6941,2.9312,2.9633,2.9873,2.9125,2.9499,2.9753,2.8564,0.0,2.8925,2.8524,0.0,2.8551,2.8898,0.0,0.0,2.9873,3.1076,3.3298,3.6727,3.8246,4.0689,4.4937,4.3382,4.3225,4.6297,4.8139,4.9556,5.0316,5.163,5.1332,4.9368,5.182,5.3301,5.3359,5.375,5.3984,5.4023,5.3574,5.3379,5.3437,5.3379,5.2107,4.9635,4.6812,4.42,4.143,3.8238,3.6941,3.6941,3.6941,3.865,4.1213,4.1213,4.4184,4.8857,4.952,5.1444,5.3595,5.3819,5.4023,5.4101,5.4531,5.5176,5.5801,5.5898,5.625,5.6582,5.6582,5.6582,5.6582,5.6582,5.6368,5.4571,4.8994,4.742,4.5676,3.9834,3.8718,3.8718,3.8718,3.8718,3.8718,3.8718,3.8718,3.8718,3.8718,3.8718,3.8718,3.8718,3.8718,3.8718,3.8718,3.8718,3.8718,3.8718,3.8718,3.8718,3.8718,3.8718,3.8718,3.8718,3.8735,3.8654,3.8583,3.7515,3.6972,3.6941,3.6941,3.6941,3.6941,3.6941,3.6941,2.982,3.0047,3.0194,2.9472,2.9579,2.9593,2.8631,2.847,2.8444,2.819,0.0,0.0,0.0,0.0,0.0,0.0,3.0287,3.1593,3.3112,3.4049,3.6667,4.2691,4.0809,3.976,4.1502,4.424,4.6112,4.6285,4.7094,4.7831,4.8397,5.005,5.1662,5.3359,5.3789,5.3906,5.3652,5.3457,5.3359,5.3359,5.3359,5.1999,4.9476,4.6669,4.3986,4.0996,3.8225,3.6941,3.6927,3.8664,4.0996,4.3772,4.5464,4.758,4.9954,5.1931,5.3325,5.4433,5.4687,5.4765,5.4844,5.5273,5.582,5.6308,5.6308,5.6445,5.6582,5.6582,5.6582,5.6582,5.6582,5.3904,5.0759,4.8311,4.4968,4.1876,3.9154,3.8718,3.8718,3.8718,3.8718,3.8718,3.8718,3.8718,3.8718,3.8718,3.8718,3.8718,3.8718,3.8718,3.8718,3.8718,3.8718,3.8718,3.8718,3.8718,3.8718,3.8718,3.8718,3.8718,3.8718,3.8597,3.8803,3.8597,3.7463,3.6907,3.6941,3.6941,3.6941,3.6941,3.6941,3.6941,3.0621,3.0795,3.0862,2.9953,2.9726,2.9513,2.8671,2.8497,2.8484,2.8404,2.8577,0.0,0.0,0.0,2.8818,2.9392,0.0,3.0194,3.0408,3.0915,3.3317,3.9189,3.8037,3.7118,3.856,4.0684,4.2198,4.2474,4.3083,4.4211,4.5732,4.7926,5.0031,5.2137,5.3304,5.3867,5.3555,5.3535,5.3535,5.3535,5.3535,5.178,4.8456,4.6542,4.3557,3.9936,3.7798,3.6941,3.7149,3.9951,4.2912,4.5694,4.8771,5.0308,5.1422,5.3892,5.4746,5.4902,5.5195,5.539,5.5527,5.584,5.623,5.6582,5.6582,5.6582,5.6582,5.6582,5.6582,5.6368,5.5686,5.2109,4.8533,4.6766,4.3186,3.9603,3.895,3.8718,3.8718,3.8718,3.8718,3.8718,3.8718,3.8718,3.8718,3.8718,3.8718,3.8718,3.8718,3.8718,3.8718,3.8718,3.8718,3.8718,3.8718,3.8718,3.8718,3.8718,3.8718,3.8718,3.8718,3.8718,3.8694,3.8597,3.7556,3.6999,3.6941,3.6941,3.6941,3.6941,3.6941,3.6941,3.2185,3.2452,3.2478,3.0755,3.0327,2.9953,2.8497,2.8818,2.9366,2.9072,2.97,3.0207,2.9913,2.986,0.0,0.0,2.9499,0.0,0.0,2.9299,2.9793,3.1921,3.3197,3.5291,3.8687,3.841,3.844,3.9608,4.0969,4.1254,3.9638,4.5465,4.8777,4.8777,5.2094,5.4023,5.4004,5.4004,5.4004,5.4004,5.4004,5.1011,4.5677,4.5464,4.2497,3.6927,3.6941,3.6941,3.7149,3.9951,4.2912,4.571,4.9089,5.2059,5.4648,5.4668,5.4941,5.5293,5.5312,5.5566,5.5918,5.5937,5.623,5.6582,5.6582,5.6582,5.6582,5.6582,5.6582,5.592,5.2999,5.2109,5.0557,4.4773,4.3201,4.2289,3.9399,3.8718,3.8718,3.8718,3.8718,3.8718,3.8718,3.8718,3.8718,3.8718,3.8718,3.8718,3.8718,3.8718,3.8718,3.8718,3.8718,3.8718,3.8718,3.8718,3.8718,3.8718,3.8718,3.8718,3.8718,3.8718,3.8694,3.8597,3.7556,3.6999,3.6941,3.6941,3.6941,3.6941,3.6941,3.6941,3.2786,3.2959,3.2986,3.181,3.1076,3.0368,2.9272,2.9272,2.9459,2.9352,2.9887,3.0327,3.0221,3.0047,2.982,0.0,0.0,2.9566,0.0,2.8818,2.9259,3.0635,3.1583,3.2651,3.4004,3.4575,3.4979,3.509,3.5977,3.7256,3.8597,4.1281,4.4528,4.8538,5.0123,5.1666,5.3594,5.3887,5.3887,5.3594,5.1949,4.9084,4.5464,4.3557,4.0576,3.6941,3.6941,3.6941,3.7356,4.2065,4.4628,4.5906,5.097,5.357,5.4746,5.5312,5.5605,5.5762,5.6055,5.625,5.6367,5.6367,5.6465,5.6582,5.6582,5.6582,5.6582,5.6582,5.6582,5.5901,5.2781,5.0557,4.8106,4.411,4.1632,3.9834,3.895,3.8718,3.8718,3.8718,3.8718,3.8718,3.8718,3.8718,3.8718,3.8718,3.8718,3.8718,3.8718,3.8718,3.8718,3.8718,3.8718,3.8718,3.8718,3.8718,3.8718,3.8718,3.8718,3.8718,3.8718,3.8761,3.8735,3.8597,3.7622,3.6841,3.6941,3.6941,3.6941,3.6941,3.6941,3.6941,3.3534,3.3668,3.3681,3.2786,3.2064,3.1316,3.0327,3.0341,3.0541,3.0434,3.0795,3.1169,3.1276,3.0795,3.0287,0.0,0.0,2.9606,0.0,2.8604,2.9005,3.0074,3.0715,3.1356,3.2064,3.2438,3.2772,3.3106,3.3213,3.4296,3.6709,3.8442,4.1358,4.543,4.6975,4.8774,5.0604,5.0882,5.0882,5.0623,4.8959,4.6737,4.3986,4.2065,3.9703,3.6941,3.6941,3.6941,3.737,4.3127,4.5464,4.6118,5.2044,5.4433,5.4746,5.5293,5.5683,5.5976,5.625,5.6445,5.6582,5.6582,5.6582,5.6582,5.6582,5.6582,5.6582,5.6582,5.6582,5.5686,5.1453,4.8977,4.6542,4.2532,4.0051,3.8718,3.8718,3.8718,3.8718,3.8718,3.8718,3.8718,3.8718,3.8718,3.8718,3.8718,3.8718,3.8718,3.8718,3.8718,3.8718,3.8718,3.8718,3.8718,3.8718,3.8718,3.8718,3.8718,3.8718,3.8718,3.8718,3.8788,3.8546,3.7969,3.7397,3.688,3.6839,3.6967,3.6941,3.6941,3.6941,3.6941]}]]